<?xml version='1.0' encoding='UTF-8'?><gpx version="1.1" creator="JPX - https://github.com/jenetics/jpx" xmlns="http://www.topografix.com/GPX/1/1"><trk><trkseg><trkpt lat="40.76032638648355" lon="17.453718350930977"><ele>326.0</ele><time>2026-04-23T13:38:18.999Z</time></trkpt><trkpt lat="40.7604143056023" lon="17.45373999153265"><ele>326.0</ele><time>2026-04-23T13:38:21.999Z</time></trkpt><trkpt lat="40.76047545067009" lon="17.45379063052944"><ele>326.0</ele><time>2026-04-23T13:38:25.999Z</time></trkpt><trkpt lat="40.76054860434834" lon="17.453806376888913"><ele>326.0</ele><time>2026-04-23T13:38:29.999Z</time></trkpt><trkpt lat="40.760621421990265" lon="17.453811437426225"><ele>326.0</ele><time>2026-04-23T13:38:33.999Z</time></trkpt><trkpt lat="40.760773139481415" lon="17.45381413743743"><ele>326.0</ele><time>2026-04-23T13:38:40.999Z</time></trkpt><trkpt lat="40.76076675567331" lon="17.45367530884786"><ele>326.0</ele><time>2026-04-23T13:38:43.999Z</time></trkpt><trkpt lat="40.7607064988155" lon="17.453609728880455"><ele>326.0</ele><time>2026-04-23T13:38:46.999Z</time></trkpt><trkpt lat="40.76073818390241" lon="17.4535312017497"><ele>326.0</ele><time>2026-04-23T13:38:50.998Z</time></trkpt><trkpt lat="40.7607952570543" lon="17.45343740891244"><ele>326.0</ele><time>2026-04-23T13:38:53.998Z</time></trkpt><trkpt lat="40.76080442343342" lon="17.45331859325616"><ele>326.0</ele><time>2026-04-23T13:38:56.998Z</time></trkpt><trkpt lat="40.760846239081566" lon="17.4532448304372"><ele>326.0</ele><time>2026-04-23T13:38:59.998Z</time></trkpt><trkpt lat="40.760890928775304" lon="17.453176583090364"><ele>326.0</ele><time>2026-04-23T13:39:02.998Z</time></trkpt><trkpt lat="40.76091044050641" lon="17.453096659567098"><ele>326.0</ele><time>2026-04-23T13:39:05.998Z</time></trkpt><trkpt lat="40.7609622070109" lon="17.453020966345083"><ele>326.0</ele><time>2026-04-23T13:39:08.998Z</time></trkpt><trkpt lat="40.76104537822859" lon="17.45292474257771"><ele>326.0</ele><time>2026-04-23T13:39:20Z</time></trkpt><trkpt lat="40.76109308690734" lon="17.452857235989306"><ele>326.0</ele><time>2026-04-23T13:39:41Z</time></trkpt><trkpt lat="40.761113706898314" lon="17.45277525409921"><ele>326.14285714285717</ele><time>2026-04-23T13:39:53.999Z</time></trkpt><trkpt lat="40.76117465101716" lon="17.452733352428933"><ele>326.2857142857143</ele><time>2026-04-23T13:39:59.999Z</time></trkpt><trkpt lat="40.76124309208533" lon="17.452710169656687"><ele>326.42857142857144</ele><time>2026-04-23T13:40:01.999Z</time></trkpt><trkpt lat="40.76131090691043" lon="17.45265795017168"><ele>326.57142857142856</ele><time>2026-04-23T13:40:05.999Z</time></trkpt><trkpt lat="40.76136367941968" lon="17.45259492837887"><ele>326.7142857142857</ele><time>2026-04-23T13:40:08.999Z</time></trkpt><trkpt lat="40.761427218468135" lon="17.4525679421537"><ele>326.85714285714283</ele><time>2026-04-23T13:40:10.999Z</time></trkpt><trkpt lat="40.761513687044015" lon="17.452537226081454"><ele>327.0</ele><time>2026-04-23T13:40:13.999Z</time></trkpt><trkpt lat="40.76159584619649" lon="17.452484778370298"><ele>327.0</ele><time>2026-04-23T13:40:15.999Z</time></trkpt><trkpt lat="40.76165371144894" lon="17.452444295715765"><ele>327.0</ele><time>2026-04-23T13:40:17.999Z</time></trkpt><trkpt lat="40.76174699110575" lon="17.45241503805875"><ele>327.0</ele><time>2026-04-23T13:40:20.999Z</time></trkpt><trkpt lat="40.76180974063299" lon="17.452331217098095"><ele>327.0</ele><time>2026-04-23T13:40:22.999Z</time></trkpt><trkpt lat="40.76186725296757" lon="17.452294903360546"><ele>327.0</ele><time>2026-04-23T13:40:24.999Z</time></trkpt><trkpt lat="40.7619536754404" lon="17.452179570101684"><ele>327.0</ele><time>2026-04-23T13:40:29.999Z</time></trkpt><trkpt lat="40.762030292512655" lon="17.45210729720199"><ele>327.3333333333333</ele><time>2026-04-23T13:40:33.999Z</time></trkpt><trkpt lat="40.76209111937093" lon="17.452035900944566"><ele>327.6666666666667</ele><time>2026-04-23T13:40:36.999Z</time></trkpt><trkpt lat="40.76214796248659" lon="17.451963041581383"><ele>328.0</ele><time>2026-04-23T13:40:39.999Z</time></trkpt><trkpt lat="40.76221703599453" lon="17.45188849432125"><ele>328.33333333333337</ele><time>2026-04-23T13:40:42.999Z</time></trkpt><trkpt lat="40.76230520009995" lon="17.45185795957234"><ele>328.6666666666667</ele><time>2026-04-23T13:40:44.999Z</time></trkpt><trkpt lat="40.762366489308384" lon="17.451813096181812"><ele>329.0</ele><time>2026-04-23T13:40:45.999Z</time></trkpt><trkpt lat="40.76244412889794" lon="17.451763509892384"><ele>329.0</ele><time>2026-04-23T13:40:47.999Z</time></trkpt><trkpt lat="40.7625173983529" lon="17.45173083013728"><ele>329.0</ele><time>2026-04-23T13:40:49.999Z</time></trkpt><trkpt lat="40.76255292542101" lon="17.451643174449025"><ele>329.0</ele><time>2026-04-23T13:40:51.999Z</time></trkpt><trkpt lat="40.76262989560002" lon="17.451572696302296"><ele>329.0</ele><time>2026-04-23T13:40:56.999Z</time></trkpt><trkpt lat="40.76274184791116" lon="17.45154007163865"><ele>329.0</ele><time>2026-04-23T13:41:02.998Z</time></trkpt><trkpt lat="40.762848756876" lon="17.45145193880223"><ele>327.1666666666667</ele><time>2026-04-23T13:41:08.998Z</time></trkpt><trkpt lat="40.76290355313523" lon="17.45135402473731"><ele>325.33333333333337</ele><time>2026-04-23T13:41:11.998Z</time></trkpt><trkpt lat="40.76293951268869" lon="17.451285202626263"><ele>323.5</ele><time>2026-04-23T13:41:14.998Z</time></trkpt><trkpt lat="40.76294409959455" lon="17.451186861212985"><ele>321.6666666666667</ele><time>2026-04-23T13:41:17.998Z</time></trkpt><trkpt lat="40.762913306668125" lon="17.45110493450433"><ele>319.8333333333333</ele><time>2026-04-23T13:41:21Z</time></trkpt><trkpt lat="40.76285635994645" lon="17.451039977761123"><ele>318.0</ele><time>2026-04-23T13:41:24Z</time></trkpt><trkpt lat="40.7628108936359" lon="17.450935201815245"><ele>318.0</ele><time>2026-04-23T13:41:28Z</time></trkpt><trkpt lat="40.76275445947446" lon="17.450870532414186"><ele>318.0</ele><time>2026-04-23T13:41:31Z</time></trkpt><trkpt lat="40.76269733516736" lon="17.45079347633098"><ele>318.0</ele><time>2026-04-23T13:41:34Z</time></trkpt><trkpt lat="40.76264648266051" lon="17.450715981042507"><ele>318.0</ele><time>2026-04-23T13:41:37Z</time></trkpt><trkpt lat="40.762606400496054" lon="17.45064725958823"><ele>318.0</ele><time>2026-04-23T13:41:39Z</time></trkpt><trkpt lat="40.762569970507265" lon="17.450561041038295"><ele>318.0</ele><time>2026-04-23T13:41:42Z</time></trkpt><trkpt lat="40.76252372712911" lon="17.450461657783272"><ele>318.7142857142857</ele><time>2026-04-23T13:41:45Z</time></trkpt><trkpt lat="40.76249486952825" lon="17.45038544756983"><ele>319.42857142857144</ele><time>2026-04-23T13:41:47Z</time></trkpt><trkpt lat="40.76242665256534" lon="17.450346689135397"><ele>320.14285714285717</ele><time>2026-04-23T13:41:49Z</time></trkpt><trkpt lat="40.76240041450187" lon="17.45026461444601"><ele>320.8571428571429</ele><time>2026-04-23T13:41:51Z</time></trkpt><trkpt lat="40.762386146289224" lon="17.45017999008501"><ele>321.57142857142856</ele><time>2026-04-23T13:41:53Z</time></trkpt><trkpt lat="40.76237802367957" lon="17.450086516800177"><ele>322.28571428571433</ele><time>2026-04-23T13:41:55Z</time></trkpt><trkpt lat="40.76234667009642" lon="17.450010680685118"><ele>323.0</ele><time>2026-04-23T13:41:57Z</time></trkpt><trkpt lat="40.762313978361746" lon="17.449929144700977"><ele>323.00000000000006</ele><time>2026-04-23T13:42:00Z</time></trkpt><trkpt lat="40.76233743309315" lon="17.44981835570382"><ele>323.0</ele><time>2026-04-23T13:42:03.999Z</time></trkpt><trkpt lat="40.76236326736865" lon="17.44973900239637"><ele>323.0</ele><time>2026-04-23T13:42:06.999Z</time></trkpt><trkpt lat="40.76236511384729" lon="17.449646601221925"><ele>323.0</ele><time>2026-04-23T13:42:09.999Z</time></trkpt><trkpt lat="40.76237587945272" lon="17.449563284784958"><ele>323.0</ele><time>2026-04-23T13:42:12.999Z</time></trkpt><trkpt lat="40.762360352954325" lon="17.449460399217223"><ele>323.00000000000006</ele><time>2026-04-23T13:42:15.999Z</time></trkpt><trkpt lat="40.762380164236816" lon="17.449367386387117"><ele>323.0</ele><time>2026-04-23T13:42:18.999Z</time></trkpt><trkpt lat="40.7624014390273" lon="17.449252366600778"><ele>322.5</ele><time>2026-04-23T13:42:21.999Z</time></trkpt><trkpt lat="40.762440065337685" lon="17.449148420109648"><ele>322.0</ele><time>2026-04-23T13:42:24.999Z</time></trkpt><trkpt lat="40.76248630444096" lon="17.449010412618605"><ele>321.5</ele><time>2026-04-23T13:42:27.999Z</time></trkpt><trkpt lat="40.76247237411212" lon="17.448886997591767"><ele>321.0</ele><time>2026-04-23T13:42:29.999Z</time></trkpt><trkpt lat="40.7624464031393" lon="17.44880511826439"><ele>320.5</ele><time>2026-04-23T13:42:30.999Z</time></trkpt><trkpt lat="40.762407120396674" lon="17.448728279656507"><ele>320.0</ele><time>2026-04-23T13:42:33.999Z</time></trkpt><trkpt lat="40.762370630396234" lon="17.448655676661957"><ele>321.33333333333337</ele><time>2026-04-23T13:42:35.999Z</time></trkpt><trkpt lat="40.762351432796954" lon="17.448568420699264"><ele>322.6666666666667</ele><time>2026-04-23T13:42:37.999Z</time></trkpt><trkpt lat="40.762349184867304" lon="17.448466618403636"><ele>324.0</ele><time>2026-04-23T13:42:39.999Z</time></trkpt><trkpt lat="40.76232655901739" lon="17.448330912109828"><ele>325.3333333333333</ele><time>2026-04-23T13:42:42.999Z</time></trkpt><trkpt lat="40.762321729642004" lon="17.448239336402388"><ele>326.66666666666663</ele><time>2026-04-23T13:42:44.999Z</time></trkpt><trkpt lat="40.762323924436984" lon="17.448139390088386"><ele>328.0</ele><time>2026-04-23T13:42:46.999Z</time></trkpt><trkpt lat="40.76232006066937" lon="17.448049441008365"><ele>328.79999999999995</ele><time>2026-04-23T13:42:48.999Z</time></trkpt><trkpt lat="40.762298564115454" lon="17.447936090269824"><ele>329.6</ele><time>2026-04-23T13:42:50.999Z</time></trkpt><trkpt lat="40.76228990565145" lon="17.447830098166513"><ele>330.4</ele><time>2026-04-23T13:42:52.999Z</time></trkpt><trkpt lat="40.76231735500968" lon="17.44770308042414"><ele>331.20000000000005</ele><time>2026-04-23T13:42:54.999Z</time></trkpt><trkpt lat="40.76233360048478" lon="17.447577227084118"><ele>332.0</ele><time>2026-04-23T13:42:57.999Z</time></trkpt><trkpt lat="40.76236124885023" lon="17.447471680450718"><ele>332.0</ele><time>2026-04-23T13:42:59.999Z</time></trkpt><trkpt lat="40.76233389582815" lon="17.447391051441432"><ele>332.0</ele><time>2026-04-23T13:43:01.999Z</time></trkpt><trkpt lat="40.76235785138129" lon="17.447287844652212"><ele>332.0</ele><time>2026-04-23T13:43:03.999Z</time></trkpt><trkpt lat="40.76234413833821" lon="17.447201590891318"><ele>332.0</ele><time>2026-04-23T13:43:04.999Z</time></trkpt><trkpt lat="40.76237373668454" lon="17.44705602083655"><ele>332.0</ele><time>2026-04-23T13:43:06.999Z</time></trkpt><trkpt lat="40.76236316957635" lon="17.446939527315863"><ele>332.0</ele><time>2026-04-23T13:43:08.998Z</time></trkpt><trkpt lat="40.76237188630794" lon="17.44679502710794"><ele>333.1666666666667</ele><time>2026-04-23T13:43:10.998Z</time></trkpt><trkpt lat="40.76239708189112" lon="17.446675637721945"><ele>334.33333333333337</ele><time>2026-04-23T13:43:13.998Z</time></trkpt><trkpt lat="40.7624335983916" lon="17.44656837475298"><ele>335.5</ele><time>2026-04-23T13:43:16.998Z</time></trkpt><trkpt lat="40.76247943455599" lon="17.446493634642273"><ele>336.6666666666667</ele><time>2026-04-23T13:43:18.998Z</time></trkpt><trkpt lat="40.762526975226834" lon="17.446437347305412"><ele>337.8333333333333</ele><time>2026-04-23T13:43:20.998Z</time></trkpt><trkpt lat="40.7625886690452" lon="17.44636434926285"><ele>339.0</ele><time>2026-04-23T13:43:23.998Z</time></trkpt><trkpt lat="40.76262924083909" lon="17.44624995047606"><ele>340.1428571428571</ele><time>2026-04-23T13:43:28Z</time></trkpt><trkpt lat="40.76265837855575" lon="17.446173916472432"><ele>341.28571428571433</ele><time>2026-04-23T13:43:30Z</time></trkpt><trkpt lat="40.76267462851977" lon="17.446080491666315"><ele>342.42857142857144</ele><time>2026-04-23T13:43:33Z</time></trkpt><trkpt lat="40.76269995363513" lon="17.445984143498897"><ele>343.57142857142856</ele><time>2026-04-23T13:43:36Z</time></trkpt><trkpt lat="40.76272600351794" lon="17.445907683641963"><ele>344.71428571428567</ele><time>2026-04-23T13:43:38Z</time></trkpt><trkpt lat="40.76276783093115" lon="17.44583071060324"><ele>345.8571428571429</ele><time>2026-04-23T13:43:40Z</time></trkpt><trkpt lat="40.762828774272684" lon="17.445735137476298"><ele>347.0</ele><time>2026-04-23T13:43:42Z</time></trkpt><trkpt lat="40.76289621198204" lon="17.445629875586683"><ele>346.5</ele><time>2026-04-23T13:43:44Z</time></trkpt><trkpt lat="40.76294172735054" lon="17.44555297218481"><ele>346.0</ele><time>2026-04-23T13:43:46Z</time></trkpt><trkpt lat="40.76299257304418" lon="17.44547907488471"><ele>345.5</ele><time>2026-04-23T13:43:48Z</time></trkpt><trkpt lat="40.76306200008526" lon="17.44543951822449"><ele>345.0</ele><time>2026-04-23T13:43:50Z</time></trkpt><trkpt lat="40.763113971483065" lon="17.44537702119868"><ele>344.5</ele><time>2026-04-23T13:43:52Z</time></trkpt><trkpt lat="40.76311458256671" lon="17.445241807556428"><ele>344.0</ele><time>2026-04-23T13:43:54Z</time></trkpt><trkpt lat="40.76311915832981" lon="17.445149011550356"><ele>344.0</ele><time>2026-04-23T13:44:15.999Z</time></trkpt><trkpt lat="40.76315861440117" lon="17.445075578038875"><ele>344.0</ele><time>2026-04-23T13:44:24.999Z</time></trkpt><trkpt lat="40.763214655051804" lon="17.445019059337717"><ele>344.0</ele><time>2026-04-23T13:44:26.999Z</time></trkpt><trkpt lat="40.7632437660688" lon="17.444922849496425"><ele>344.0</ele><time>2026-04-23T13:44:28.999Z</time></trkpt><trkpt lat="40.76329234479067" lon="17.444807917079217"><ele>344.0</ele><time>2026-04-23T13:44:31.999Z</time></trkpt><trkpt lat="40.76332200361575" lon="17.444694889076118"><ele>344.0</ele><time>2026-04-23T13:44:34.999Z</time></trkpt><trkpt lat="40.76334693431668" lon="17.444579183798215"><ele>344.5</ele><time>2026-04-23T13:44:36.999Z</time></trkpt><trkpt lat="40.763367186546006" lon="17.444490725299687"><ele>345.0</ele><time>2026-04-23T13:44:38.999Z</time></trkpt><trkpt lat="40.76339915366414" lon="17.44438795260237"><ele>345.5</ele><time>2026-04-23T13:44:40.999Z</time></trkpt><trkpt lat="40.763400754485914" lon="17.444282599232526"><ele>346.0</ele><time>2026-04-23T13:44:43.999Z</time></trkpt><trkpt lat="40.76340933735628" lon="17.444194237130723"><ele>346.5</ele><time>2026-04-23T13:44:48.999Z</time></trkpt><trkpt lat="40.7634384243957" lon="17.44409202834057"><ele>347.0</ele><time>2026-04-23T13:44:51.999Z</time></trkpt><trkpt lat="40.763473134694024" lon="17.44400780133771"><ele>347.0</ele><time>2026-04-23T13:44:53.999Z</time></trkpt><trkpt lat="40.76352616037028" lon="17.443935687994813"><ele>347.0</ele><time>2026-04-23T13:44:55.999Z</time></trkpt><trkpt lat="40.76356905710551" lon="17.44381662421503"><ele>347.0</ele><time>2026-04-23T13:44:57.999Z</time></trkpt><trkpt lat="40.76360303006015" lon="17.44373649641453"><ele>347.0</ele><time>2026-04-23T13:44:59.999Z</time></trkpt><trkpt lat="40.76362288428544" lon="17.44364205258965"><ele>347.0</ele><time>2026-04-23T13:45:01.999Z</time></trkpt><trkpt lat="40.763620824345445" lon="17.443557328909804"><ele>347.0</ele><time>2026-04-23T13:45:03.999Z</time></trkpt><trkpt lat="40.763618565607715" lon="17.443468266386127"><ele>345.6666666666667</ele><time>2026-04-23T13:45:06.999Z</time></trkpt><trkpt lat="40.763650166478754" lon="17.44334746495445"><ele>344.33333333333337</ele><time>2026-04-23T13:45:09.999Z</time></trkpt><trkpt lat="40.763652853144286" lon="17.44325162502899"><ele>343.0</ele><time>2026-04-23T13:45:13.999Z</time></trkpt><trkpt lat="40.76362137304263" lon="17.443136074822814"><ele>341.6666666666667</ele><time>2026-04-23T13:45:15.999Z</time></trkpt><trkpt lat="40.76366493771002" lon="17.443070554551877"><ele>340.3333333333333</ele><time>2026-04-23T13:45:17.999Z</time></trkpt><trkpt lat="40.76368544513294" lon="17.44293903201711"><ele>339.0</ele><time>2026-04-23T13:45:19.999Z</time></trkpt><trkpt lat="40.76369004758304" lon="17.442838799427133"><ele>339.0</ele><time>2026-04-23T13:45:22.998Z</time></trkpt><trkpt lat="40.76373756355936" lon="17.442726206503906"><ele>339.0</ele><time>2026-04-23T13:45:25.998Z</time></trkpt><trkpt lat="40.76380808311178" lon="17.442670591600343"><ele>339.0</ele><time>2026-04-23T13:45:27.998Z</time></trkpt><trkpt lat="40.7638271561706" lon="17.442590482925688"><ele>339.0</ele><time>2026-04-23T13:45:29.998Z</time></trkpt><trkpt lat="40.76384601755884" lon="17.442503035297293"><ele>339.0</ele><time>2026-04-23T13:45:33Z</time></trkpt><trkpt lat="40.7638954996688" lon="17.442425829204854"><ele>339.0</ele><time>2026-04-23T13:45:36Z</time></trkpt><trkpt lat="40.763921222682804" lon="17.44231804208175"><ele>339.0</ele><time>2026-04-23T13:45:39Z</time></trkpt><trkpt lat="40.76393606355267" lon="17.44223562270399"><ele>339.0</ele><time>2026-04-23T13:45:41Z</time></trkpt><trkpt lat="40.76397631216037" lon="17.442145886028904"><ele>339.0</ele><time>2026-04-23T13:45:44Z</time></trkpt><trkpt lat="40.764036817035" lon="17.442043580501053"><ele>339.0</ele><time>2026-04-23T13:45:47Z</time></trkpt><trkpt lat="40.76407103546405" lon="17.441965071655694"><ele>339.0</ele><time>2026-04-23T13:45:50Z</time></trkpt><trkpt lat="40.76411508858718" lon="17.441865458781134"><ele>339.0</ele><time>2026-04-23T13:45:53Z</time></trkpt><trkpt lat="40.76417927558518" lon="17.441795376313788"><ele>339.1428571428571</ele><time>2026-04-23T13:45:55Z</time></trkpt><trkpt lat="40.76418735414966" lon="17.441704438150747"><ele>339.28571428571433</ele><time>2026-04-23T13:45:57Z</time></trkpt><trkpt lat="40.764229700509034" lon="17.44163402072766"><ele>339.42857142857144</ele><time>2026-04-23T13:45:59Z</time></trkpt><trkpt lat="40.76426876873097" lon="17.441551892684608"><ele>339.57142857142856</ele><time>2026-04-23T13:46:01Z</time></trkpt><trkpt lat="40.76430384201477" lon="17.44148031357106"><ele>339.71428571428567</ele><time>2026-04-23T13:46:03Z</time></trkpt><trkpt lat="40.764362716839386" lon="17.441446813892945"><ele>339.8571428571429</ele><time>2026-04-23T13:46:05Z</time></trkpt><trkpt lat="40.76442327097199" lon="17.44138211882849"><ele>340.0</ele><time>2026-04-23T13:46:07Z</time></trkpt><trkpt lat="40.7644562223211" lon="17.441300937225094"><ele>337.5</ele><time>2026-04-23T13:46:08Z</time></trkpt><trkpt lat="40.764511452572705" lon="17.441213196936385"><ele>335.0</ele><time>2026-04-23T13:46:10Z</time></trkpt><trkpt lat="40.76454925625237" lon="17.441146192417552"><ele>332.5</ele><time>2026-04-23T13:46:12Z</time></trkpt><trkpt lat="40.76462585612181" lon="17.44106901597613"><ele>330.0</ele><time>2026-04-23T13:46:16Z</time></trkpt><trkpt lat="40.76464119086936" lon="17.44096884001924"><ele>327.5</ele><time>2026-04-23T13:46:20Z</time></trkpt><trkpt lat="40.76459366375327" lon="17.440869401388813"><ele>325.0</ele><time>2026-04-23T13:46:23Z</time></trkpt><trkpt lat="40.764566962605144" lon="17.440782994106982"><ele>325.0</ele><time>2026-04-23T13:46:26.999Z</time></trkpt><trkpt lat="40.76455208005967" lon="17.44070100119821"><ele>325.0</ele><time>2026-04-23T13:46:29.999Z</time></trkpt><trkpt lat="40.76452849487824" lon="17.440621631268563"><ele>325.0</ele><time>2026-04-23T13:46:32.999Z</time></trkpt><trkpt lat="40.76451826949069" lon="17.440482010998693"><ele>325.0</ele><time>2026-04-23T13:46:35.999Z</time></trkpt><trkpt lat="40.76448910150098" lon="17.44039314758923"><ele>325.0</ele><time>2026-04-23T13:46:37.999Z</time></trkpt><trkpt lat="40.764452540915855" lon="17.44031479795533"><ele>325.0</ele><time>2026-04-23T13:46:40.999Z</time></trkpt><trkpt lat="40.76442106822675" lon="17.44023277377899"><ele>325.0</ele><time>2026-04-23T13:46:42.999Z</time></trkpt><trkpt lat="40.764395331427004" lon="17.44014865224325"><ele>325.0</ele><time>2026-04-23T13:46:45.999Z</time></trkpt><trkpt lat="40.76438853736131" lon="17.44004599484565"><ele>325.0</ele><time>2026-04-23T13:46:48.999Z</time></trkpt><trkpt lat="40.76433234498242" lon="17.439927554920246"><ele>325.0</ele><time>2026-04-23T13:46:50.999Z</time></trkpt><trkpt lat="40.76427973846808" lon="17.43984236444853"><ele>325.0</ele><time>2026-04-23T13:46:53.999Z</time></trkpt><trkpt lat="40.76424028410491" lon="17.439776418746195"><ele>325.0</ele><time>2026-04-23T13:46:55.999Z</time></trkpt><trkpt lat="40.76417171334686" lon="17.43970178824389"><ele>325.0</ele><time>2026-04-23T13:46:58.999Z</time></trkpt><trkpt lat="40.764094813180954" lon="17.43970255572136"><ele>325.0</ele><time>2026-04-23T13:47:16.999Z</time></trkpt><trkpt lat="40.76405315117367" lon="17.43977516546168"><ele>325.0</ele><time>2026-04-23T13:47:33.998Z</time></trkpt><trkpt lat="40.76400061131047" lon="17.439826326481235"><ele>325.0</ele><time>2026-04-23T13:47:39Z</time></trkpt><trkpt lat="40.76393800749768" lon="17.4399024762485"><ele>325.0</ele><time>2026-04-23T13:47:42Z</time></trkpt><trkpt lat="40.76384444995438" lon="17.43994863855481"><ele>325.0</ele><time>2026-04-23T13:47:44Z</time></trkpt><trkpt lat="40.76376051978708" lon="17.439948253240562"><ele>325.0</ele><time>2026-04-23T13:47:46Z</time></trkpt><trkpt lat="40.76368252731434" lon="17.440019480629005"><ele>325.0</ele><time>2026-04-23T13:47:48Z</time></trkpt><trkpt lat="40.763615903700845" lon="17.440085573189727"><ele>325.0</ele><time>2026-04-23T13:47:50Z</time></trkpt><trkpt lat="40.76356372194343" lon="17.440156434492454"><ele>325.0</ele><time>2026-04-23T13:47:52Z</time></trkpt><trkpt lat="40.76345982217868" lon="17.440175868112245"><ele>325.0</ele><time>2026-04-23T13:47:56Z</time></trkpt><trkpt lat="40.763336334460135" lon="17.44018989669661"><ele>325.0</ele><time>2026-04-23T13:47:58Z</time></trkpt><trkpt lat="40.76323910438443" lon="17.440214301433805"><ele>324.0</ele><time>2026-04-23T13:48:00Z</time></trkpt><trkpt lat="40.76320778757919" lon="17.440114167906266"><ele>323.0</ele><time>2026-04-23T13:48:03Z</time></trkpt><trkpt lat="40.76327204534288" lon="17.44000866588732"><ele>322.0</ele><time>2026-04-23T13:48:05Z</time></trkpt><trkpt lat="40.76333321736789" lon="17.439884239441657"><ele>321.0</ele><time>2026-04-23T13:48:07Z</time></trkpt><trkpt lat="40.76335633941613" lon="17.439796428180212"><ele>320.0</ele><time>2026-04-23T13:48:08Z</time></trkpt><trkpt lat="40.76339899181926" lon="17.43965218478777"><ele>319.6</ele><time>2026-04-23T13:48:10Z</time></trkpt><trkpt lat="40.76344965767905" lon="17.439502790551437"><ele>319.2</ele><time>2026-04-23T13:48:12Z</time></trkpt><trkpt lat="40.76348864511881" lon="17.43936726626216"><ele>318.8</ele><time>2026-04-23T13:48:14Z</time></trkpt><trkpt lat="40.76353308495839" lon="17.439232143724233"><ele>318.4</ele><time>2026-04-23T13:48:16Z</time></trkpt><trkpt lat="40.763574404411706" lon="17.43910832651837"><ele>318.0</ele><time>2026-04-23T13:48:18Z</time></trkpt><trkpt lat="40.763613178544276" lon="17.438961671005487"><ele>318.0</ele><time>2026-04-23T13:48:20Z</time></trkpt><trkpt lat="40.76365375314337" lon="17.438817266718708"><ele>318.0</ele><time>2026-04-23T13:48:22Z</time></trkpt><trkpt lat="40.7636974635805" lon="17.438714223376063"><ele>318.0</ele><time>2026-04-23T13:48:24Z</time></trkpt><trkpt lat="40.76373843911905" lon="17.438581492719265"><ele>318.0</ele><time>2026-04-23T13:48:26Z</time></trkpt><trkpt lat="40.763777044878275" lon="17.438467705377914"><ele>318.0</ele><time>2026-04-23T13:48:28Z</time></trkpt><trkpt lat="40.7638160134281" lon="17.438332988357793"><ele>318.8</ele><time>2026-04-23T13:48:30Z</time></trkpt><trkpt lat="40.763841576079635" lon="17.438208824878483"><ele>319.6</ele><time>2026-04-23T13:48:32Z</time></trkpt><trkpt lat="40.76386036786881" lon="17.438122640675683"><ele>320.40000000000003</ele><time>2026-04-23T13:48:33Z</time></trkpt><trkpt lat="40.76387140913085" lon="17.43798915603083"><ele>321.20000000000005</ele><time>2026-04-23T13:48:34.999Z</time></trkpt><trkpt lat="40.76386799757687" lon="17.43784034587457"><ele>322.0</ele><time>2026-04-23T13:48:36.999Z</time></trkpt><trkpt lat="40.76385767021412" lon="17.43770573326204"><ele>322.3333333333333</ele><time>2026-04-23T13:48:38.999Z</time></trkpt><trkpt lat="40.76383901408065" lon="17.437573179304785"><ele>322.66666666666663</ele><time>2026-04-23T13:48:40.999Z</time></trkpt><trkpt lat="40.763812618649325" lon="17.43745397693851"><ele>323.0</ele><time>2026-04-23T13:48:42.999Z</time></trkpt><trkpt lat="40.76378071156575" lon="17.437347853186264"><ele>323.3333333333333</ele><time>2026-04-23T13:48:44.999Z</time></trkpt><trkpt lat="40.763755527876675" lon="17.437245006607657"><ele>323.6666666666667</ele><time>2026-04-23T13:48:46.999Z</time></trkpt><trkpt lat="40.763716444945885" lon="17.437160855755327"><ele>324.0</ele><time>2026-04-23T13:48:48.999Z</time></trkpt><trkpt lat="40.763685385284255" lon="17.437074707077937"><ele>324.0</ele><time>2026-04-23T13:48:50.999Z</time></trkpt><trkpt lat="40.763642428697516" lon="17.436984495924815"><ele>324.0</ele><time>2026-04-23T13:48:52.999Z</time></trkpt><trkpt lat="40.76359224645248" lon="17.436918141272233"><ele>324.0</ele><time>2026-04-23T13:48:54.999Z</time></trkpt><trkpt lat="40.763504533686216" lon="17.436832055435115"><ele>324.0</ele><time>2026-04-23T13:48:56.999Z</time></trkpt><trkpt lat="40.76342675955804" lon="17.436746570785644"><ele>324.0</ele><time>2026-04-23T13:48:58.999Z</time></trkpt><trkpt lat="40.76334835360859" lon="17.43665562441086"><ele>326.5</ele><time>2026-04-23T13:49:00.999Z</time></trkpt><trkpt lat="40.76326852925776" lon="17.436562598044265"><ele>329.0</ele><time>2026-04-23T13:49:02.999Z</time></trkpt><trkpt lat="40.7631890328265" lon="17.436458514697073"><ele>331.5</ele><time>2026-04-23T13:49:04.999Z</time></trkpt><trkpt lat="40.76311408700214" lon="17.436324038239594"><ele>334.0</ele><time>2026-04-23T13:49:06.999Z</time></trkpt><trkpt lat="40.76304699956849" lon="17.4362048166998"><ele>334.0</ele><time>2026-04-23T13:49:08.999Z</time></trkpt><trkpt lat="40.7629752653484" lon="17.436069979628012"><ele>334.0</ele><time>2026-04-23T13:49:10.999Z</time></trkpt><trkpt lat="40.76292487066898" lon="17.435933642715092"><ele>334.0</ele><time>2026-04-23T13:49:12.999Z</time></trkpt><trkpt lat="40.76289382848525" lon="17.435855633635448"><ele>334.0</ele><time>2026-04-23T13:49:13.999Z</time></trkpt><trkpt lat="40.76284838704043" lon="17.43569665305506"><ele>334.0</ele><time>2026-04-23T13:49:15.999Z</time></trkpt><trkpt lat="40.76282797679853" lon="17.435617399954612"><ele>333.4</ele><time>2026-04-23T13:49:16.999Z</time></trkpt><trkpt lat="40.762799375361645" lon="17.435465217769845"><ele>332.79999999999995</ele><time>2026-04-23T13:49:18.999Z</time></trkpt><trkpt lat="40.76278557584083" lon="17.435382533705877"><ele>332.20000000000005</ele><time>2026-04-23T13:49:19.999Z</time></trkpt><trkpt lat="40.762775634935785" lon="17.435298379249414"><ele>331.6</ele><time>2026-04-23T13:49:20.999Z</time></trkpt><trkpt lat="40.76275458561198" lon="17.435140599111826"><ele>331.0</ele><time>2026-04-23T13:49:22.999Z</time></trkpt><trkpt lat="40.7627278385788" lon="17.43498696278978"><ele>331.0</ele><time>2026-04-23T13:49:24.999Z</time></trkpt><trkpt lat="40.762698303956824" lon="17.434834377019907"><ele>331.0</ele><time>2026-04-23T13:49:26.999Z</time></trkpt><trkpt lat="40.76267489250089" lon="17.43475056344533"><ele>331.0</ele><time>2026-04-23T13:49:27.999Z</time></trkpt><trkpt lat="40.76263034204117" lon="17.434611630523115"><ele>331.0</ele><time>2026-04-23T13:49:29.999Z</time></trkpt><trkpt lat="40.76259656017929" lon="17.434540134287325"><ele>331.0</ele><time>2026-04-23T13:49:30.999Z</time></trkpt><trkpt lat="40.7625598647186" lon="17.43446856175332"><ele>331.0</ele><time>2026-04-23T13:49:31.999Z</time></trkpt><trkpt lat="40.7625210637953" lon="17.434399214601694"><ele>333.20000000000005</ele><time>2026-04-23T13:49:32.999Z</time></trkpt><trkpt lat="40.762452408143204" lon="17.434271651690924"><ele>335.40000000000003</ele><time>2026-04-23T13:49:34.999Z</time></trkpt><trkpt lat="40.76237200157596" lon="17.434152172379424"><ele>337.6</ele><time>2026-04-23T13:49:36.998Z</time></trkpt><trkpt lat="40.762286912540006" lon="17.434044855788677"><ele>339.8</ele><time>2026-04-23T13:49:38.998Z</time></trkpt><trkpt lat="40.76223664233844" lon="17.43398704040508"><ele>342.0</ele><time>2026-04-23T13:49:40.998Z</time></trkpt><trkpt lat="40.762186327057286" lon="17.433922235925976"><ele>342.0</ele><time>2026-04-23T13:49:45Z</time></trkpt><trkpt lat="40.762142578228506" lon="17.433856084282013"><ele>342.0</ele><time>2026-04-23T13:49:48Z</time></trkpt><trkpt lat="40.762080631526516" lon="17.433776686837724"><ele>342.0</ele><time>2026-04-23T13:49:50Z</time></trkpt><trkpt lat="40.762005568465014" lon="17.43368618575166"><ele>342.0</ele><time>2026-04-23T13:49:52Z</time></trkpt><trkpt lat="40.76192405492889" lon="17.433584074490877"><ele>342.0</ele><time>2026-04-23T13:49:54Z</time></trkpt><trkpt lat="40.761835667906105" lon="17.433481012742572"><ele>342.8</ele><time>2026-04-23T13:49:56Z</time></trkpt><trkpt lat="40.76174787144113" lon="17.43337614453861"><ele>343.6</ele><time>2026-04-23T13:49:58Z</time></trkpt><trkpt lat="40.76170035765066" lon="17.433320488714113"><ele>344.40000000000003</ele><time>2026-04-23T13:49:59Z</time></trkpt><trkpt lat="40.761607307859194" lon="17.433213094367186"><ele>345.20000000000005</ele><time>2026-04-23T13:50:01Z</time></trkpt><trkpt lat="40.76151554353055" lon="17.433108958944178"><ele>346.0</ele><time>2026-04-23T13:50:03Z</time></trkpt><trkpt lat="40.76142563916901" lon="17.433000617971892"><ele>345.6</ele><time>2026-04-23T13:50:05Z</time></trkpt><trkpt lat="40.76138028926971" lon="17.432942909019594"><ele>345.20000000000005</ele><time>2026-04-23T13:50:06Z</time></trkpt><trkpt lat="40.76129821026101" lon="17.432828093550842"><ele>344.79999999999995</ele><time>2026-04-23T13:50:08Z</time></trkpt><trkpt lat="40.76122777249044" lon="17.432697856274935"><ele>344.4</ele><time>2026-04-23T13:50:10Z</time></trkpt><trkpt lat="40.7611608263443" lon="17.43256868164199"><ele>344.0</ele><time>2026-04-23T13:50:12Z</time></trkpt><trkpt lat="40.76112358623068" lon="17.432496185898437"><ele>344.0</ele><time>2026-04-23T13:50:13Z</time></trkpt><trkpt lat="40.76107276241652" lon="17.432352081179165"><ele>344.0</ele><time>2026-04-23T13:50:15Z</time></trkpt><trkpt lat="40.76102826969713" lon="17.432199771897153"><ele>344.0</ele><time>2026-04-23T13:50:17Z</time></trkpt><trkpt lat="40.761003935350345" lon="17.43212036260297"><ele>344.0</ele><time>2026-04-23T13:50:18Z</time></trkpt><trkpt lat="40.760964128673535" lon="17.431969918778936"><ele>344.0</ele><time>2026-04-23T13:50:20Z</time></trkpt><trkpt lat="40.76093402204135" lon="17.43181626872512"><ele>344.6</ele><time>2026-04-23T13:50:22Z</time></trkpt><trkpt lat="40.76091777674011" lon="17.431733968710663"><ele>345.2</ele><time>2026-04-23T13:50:23Z</time></trkpt><trkpt lat="40.76089250246503" lon="17.431575415486495"><ele>345.8</ele><time>2026-04-23T13:50:25Z</time></trkpt><trkpt lat="40.76088692276691" lon="17.43141805073276"><ele>346.40000000000003</ele><time>2026-04-23T13:50:27Z</time></trkpt><trkpt lat="40.76089074146077" lon="17.431265341180932"><ele>347.0</ele><time>2026-04-23T13:50:29Z</time></trkpt><trkpt lat="40.76087981882805" lon="17.4311004262732"><ele>347.1666666666667</ele><time>2026-04-23T13:50:31Z</time></trkpt><trkpt lat="40.760870760710674" lon="17.431010176852258"><ele>347.33333333333337</ele><time>2026-04-23T13:50:31.999Z</time></trkpt><trkpt lat="40.76086796697238" lon="17.430839000393053"><ele>347.5</ele><time>2026-04-23T13:50:33.999Z</time></trkpt><trkpt lat="40.760871160733345" lon="17.43075127316364"><ele>347.6666666666667</ele><time>2026-04-23T13:50:34.999Z</time></trkpt><trkpt lat="40.76087351979341" lon="17.43066717018028"><ele>347.8333333333333</ele><time>2026-04-23T13:50:35.999Z</time></trkpt><trkpt lat="40.76089489351793" lon="17.430522491448706"><ele>348.0</ele><time>2026-04-23T13:50:37.999Z</time></trkpt><trkpt lat="40.76095976881806" lon="17.430395162526896"><ele>348.0</ele><time>2026-04-23T13:50:39.999Z</time></trkpt><trkpt lat="40.76102323271009" lon="17.4302868623187"><ele>348.0</ele><time>2026-04-23T13:50:41.999Z</time></trkpt><trkpt lat="40.76106646414197" lon="17.43022313838671"><ele>348.0</ele><time>2026-04-23T13:50:42.999Z</time></trkpt><trkpt lat="40.761114394310994" lon="17.430150697376806"><ele>348.0</ele><time>2026-04-23T13:50:43.999Z</time></trkpt><trkpt lat="40.7611954779778" lon="17.4300450990428"><ele>348.0</ele><time>2026-04-23T13:50:45.999Z</time></trkpt><trkpt lat="40.7612360774449" lon="17.429976713853634"><ele>348.0</ele><time>2026-04-23T13:50:46.999Z</time></trkpt><trkpt lat="40.76129906696585" lon="17.429842586977554"><ele>347.79999999999995</ele><time>2026-04-23T13:50:48.999Z</time></trkpt><trkpt lat="40.76136530259337" lon="17.42971027769776"><ele>347.6</ele><time>2026-04-23T13:50:50.999Z</time></trkpt><trkpt lat="40.76144023811202" lon="17.42956807143598"><ele>347.4</ele><time>2026-04-23T13:50:52.999Z</time></trkpt><trkpt lat="40.76148305087187" lon="17.42949221374544"><ele>347.20000000000005</ele><time>2026-04-23T13:50:53.999Z</time></trkpt><trkpt lat="40.761567025156744" lon="17.429369817204513"><ele>347.0</ele><time>2026-04-23T13:50:55.999Z</time></trkpt><trkpt lat="40.761642346040645" lon="17.42924736616781"><ele>347.0</ele><time>2026-04-23T13:50:57.999Z</time></trkpt><trkpt lat="40.761684579664504" lon="17.429176377886556"><ele>347.0</ele><time>2026-04-23T13:50:58.999Z</time></trkpt><trkpt lat="40.76172656947967" lon="17.42910173865937"><ele>347.0</ele><time>2026-04-23T13:50:59.999Z</time></trkpt><trkpt lat="40.76176910183168" lon="17.429034833646845"><ele>347.0</ele><time>2026-04-23T13:51:00.999Z</time></trkpt><trkpt lat="40.76181557097936" lon="17.428967905422198"><ele>347.0</ele><time>2026-04-23T13:51:01.999Z</time></trkpt><trkpt lat="40.76186527933722" lon="17.428890039322912"><ele>347.0</ele><time>2026-04-23T13:51:02.999Z</time></trkpt><trkpt lat="40.76196257380349" lon="17.428861545342663"><ele>347.6</ele><time>2026-04-23T13:51:04.999Z</time></trkpt><trkpt lat="40.76204633149219" lon="17.428943490474456"><ele>348.20000000000005</ele><time>2026-04-23T13:51:06.999Z</time></trkpt><trkpt lat="40.76207758546536" lon="17.429019787369985"><ele>348.8</ele><time>2026-04-23T13:51:07.999Z</time></trkpt><trkpt lat="40.76212894017262" lon="17.42914131721314"><ele>349.4</ele><time>2026-04-23T13:51:09.999Z</time></trkpt><trkpt lat="40.76220383105318" lon="17.429213186359718"><ele>350.0</ele><time>2026-04-23T13:51:11.999Z</time></trkpt><trkpt lat="40.7622872978149" lon="17.42912205123101"><ele>350.0</ele><time>2026-04-23T13:51:13.999Z</time></trkpt><trkpt lat="40.762326059194486" lon="17.429045901776977"><ele>350.0</ele><time>2026-04-23T13:51:14.999Z</time></trkpt><trkpt lat="40.76241969523454" lon="17.428932449439106"><ele>350.0</ele><time>2026-04-23T13:51:16.999Z</time></trkpt><trkpt lat="40.76247049564151" lon="17.428879916907285"><ele>350.0</ele><time>2026-04-23T13:51:17.999Z</time></trkpt><trkpt lat="40.762525084022414" lon="17.428838266076042"><ele>350.0</ele><time>2026-04-23T13:51:18.999Z</time></trkpt><trkpt lat="40.7625840844516" lon="17.428802524621528"><ele>350.0</ele><time>2026-04-23T13:51:19.999Z</time></trkpt><trkpt lat="40.76264655015388" lon="17.42878034348744"><ele>349.4</ele><time>2026-04-23T13:51:20.999Z</time></trkpt><trkpt lat="40.76277363128682" lon="17.428770869778127"><ele>348.8</ele><time>2026-04-23T13:51:22.999Z</time></trkpt><trkpt lat="40.762837451123914" lon="17.428756045488672"><ele>348.20000000000005</ele><time>2026-04-23T13:51:23.999Z</time></trkpt><trkpt lat="40.762964657620024" lon="17.428732680802618"><ele>347.6</ele><time>2026-04-23T13:51:25.999Z</time></trkpt><trkpt lat="40.76307467162563" lon="17.42866558615722"><ele>347.0</ele><time>2026-04-23T13:51:27.999Z</time></trkpt><trkpt lat="40.763184210777844" lon="17.42858697660404"><ele>347.0</ele><time>2026-04-23T13:51:29.999Z</time></trkpt><trkpt lat="40.763290347768375" lon="17.42853387332285"><ele>347.0</ele><time>2026-04-23T13:51:31.998Z</time></trkpt><trkpt lat="40.76337280267038" lon="17.42847294174658"><ele>347.0</ele><time>2026-04-23T13:51:33.998Z</time></trkpt><trkpt lat="40.763530919824426" lon="17.428536101270264"><ele>347.0</ele><time>2026-04-23T13:51:37.998Z</time></trkpt><trkpt lat="40.76359812122548" lon="17.428656443381456"><ele>343.5</ele><time>2026-04-23T13:51:39.998Z</time></trkpt><trkpt lat="40.763733046416974" lon="17.428540565499397"><ele>340.0</ele><time>2026-04-23T13:51:43.998Z</time></trkpt><trkpt lat="40.76374927637908" lon="17.42839529061167"><ele>336.5</ele><time>2026-04-23T13:51:45.998Z</time></trkpt><trkpt lat="40.76375197514988" lon="17.42828683518683"><ele>333.0</ele><time>2026-04-23T13:51:46.998Z</time></trkpt><trkpt lat="40.76379486877126" lon="17.428128163067935"><ele>333.0</ele><time>2026-04-23T13:51:48.998Z</time></trkpt><trkpt lat="40.763825240554795" lon="17.427983523176557"><ele>333.0</ele><time>2026-04-23T13:51:51Z</time></trkpt><trkpt lat="40.76384051904289" lon="17.427822156789865"><ele>333.0</ele><time>2026-04-23T13:51:53Z</time></trkpt><trkpt lat="40.76385903507453" lon="17.427677302032563"><ele>333.0</ele><time>2026-04-23T13:51:55Z</time></trkpt><trkpt lat="40.76388237649802" lon="17.42751770122731"><ele>334.4</ele><time>2026-04-23T13:51:57Z</time></trkpt><trkpt lat="40.76389226765832" lon="17.427429685974186"><ele>335.79999999999995</ele><time>2026-04-23T13:51:58Z</time></trkpt><trkpt lat="40.763910412273404" lon="17.427343669062974"><ele>337.2</ele><time>2026-04-23T13:51:59Z</time></trkpt><trkpt lat="40.76391615325686" lon="17.427202027955747"><ele>338.6</ele><time>2026-04-23T13:52:01Z</time></trkpt><trkpt lat="40.76390536914266" lon="17.427034189447575"><ele>340.0</ele><time>2026-04-23T13:52:03Z</time></trkpt><trkpt lat="40.76390467422626" lon="17.42687746000191"><ele>340.3333333333333</ele><time>2026-04-23T13:52:05Z</time></trkpt><trkpt lat="40.76389170168601" lon="17.4267870434498"><ele>340.66666666666663</ele><time>2026-04-23T13:52:06Z</time></trkpt><trkpt lat="40.7638794128744" lon="17.426629541956906"><ele>341.0</ele><time>2026-04-23T13:52:08Z</time></trkpt><trkpt lat="40.763891160669324" lon="17.42646665635565"><ele>341.3333333333333</ele><time>2026-04-23T13:52:10Z</time></trkpt><trkpt lat="40.763899913454274" lon="17.426376796940453"><ele>341.6666666666667</ele><time>2026-04-23T13:52:11Z</time></trkpt><trkpt lat="40.76389660256048" lon="17.42628865629591"><ele>342.0</ele><time>2026-04-23T13:52:12Z</time></trkpt><trkpt lat="40.76391510203648" lon="17.426127360335652"><ele>341.99999999999994</ele><time>2026-04-23T13:52:14Z</time></trkpt><trkpt lat="40.76390039165635" lon="17.42603665499983"><ele>342.0</ele><time>2026-04-23T13:52:15Z</time></trkpt><trkpt lat="40.76391050617247" lon="17.425947394898923"><ele>342.0</ele><time>2026-04-23T13:52:16Z</time></trkpt><trkpt lat="40.763913170055154" lon="17.42585961625997"><ele>342.0</ele><time>2026-04-23T13:52:17Z</time></trkpt><trkpt lat="40.763927637566034" lon="17.425770291287403"><ele>342.0</ele><time>2026-04-23T13:52:18Z</time></trkpt><trkpt lat="40.76393776577928" lon="17.425672874656456"><ele>341.99999999999994</ele><time>2026-04-23T13:52:19Z</time></trkpt><trkpt lat="40.76392628991499" lon="17.425561715378443"><ele>342.0</ele><time>2026-04-23T13:52:20Z</time></trkpt><trkpt lat="40.76390814946646" lon="17.425462064027393"><ele>341.6666666666667</ele><time>2026-04-23T13:52:21Z</time></trkpt><trkpt lat="40.763930997404266" lon="17.42536666525041"><ele>341.3333333333333</ele><time>2026-04-23T13:52:22Z</time></trkpt><trkpt lat="40.76392699951534" lon="17.425269839202066"><ele>341.0</ele><time>2026-04-23T13:52:23Z</time></trkpt><trkpt lat="40.76391302804298" lon="17.425177056782218"><ele>340.66666666666663</ele><time>2026-04-23T13:52:24Z</time></trkpt><trkpt lat="40.76389711933443" lon="17.425059110732253"><ele>340.3333333333333</ele><time>2026-04-23T13:52:25Z</time></trkpt><trkpt lat="40.76389642221233" lon="17.424969133991002"><ele>340.0</ele><time>2026-04-23T13:52:26Z</time></trkpt><trkpt lat="40.76390787936281" lon="17.42487271882864"><ele>340.0</ele><time>2026-04-23T13:52:27Z</time></trkpt><trkpt lat="40.76391270234602" lon="17.424777490889742"><ele>340.0</ele><time>2026-04-23T13:52:28Z</time></trkpt><trkpt lat="40.76391592434344" lon="17.424680024206204"><ele>340.0</ele><time>2026-04-23T13:52:29Z</time></trkpt><trkpt lat="40.763912457461295" lon="17.42459068889508"><ele>340.0</ele><time>2026-04-23T13:52:30Z</time></trkpt><trkpt lat="40.76390971925657" lon="17.424494867663086"><ele>340.0</ele><time>2026-04-23T13:52:31Z</time></trkpt><trkpt lat="40.76391120994799" lon="17.424389039934574"><ele>340.0</ele><time>2026-04-23T13:52:32Z</time></trkpt><trkpt lat="40.763910326920815" lon="17.424285133417623"><ele>340.0</ele><time>2026-04-23T13:52:33Z</time></trkpt><trkpt lat="40.76390989740972" lon="17.424185437969108"><ele>340.0</ele><time>2026-04-23T13:52:34Z</time></trkpt><trkpt lat="40.76390702050514" lon="17.42409294311947"><ele>340.0</ele><time>2026-04-23T13:52:35Z</time></trkpt><trkpt lat="40.76389265885306" lon="17.423983350145186"><ele>340.0</ele><time>2026-04-23T13:52:36Z</time></trkpt><trkpt lat="40.76389487144121" lon="17.423899384277846"><ele>340.0</ele><time>2026-04-23T13:52:37Z</time></trkpt><trkpt lat="40.7638914082591" lon="17.423812916821635"><ele>340.0</ele><time>2026-04-23T13:52:37.999Z</time></trkpt><trkpt lat="40.76388907165992" lon="17.42372017093949"><ele>340.0</ele><time>2026-04-23T13:52:38.999Z</time></trkpt><trkpt lat="40.76388233366275" lon="17.423588512925946"><ele>340.0</ele><time>2026-04-23T13:52:40.999Z</time></trkpt><trkpt lat="40.76389539432874" lon="17.423500997609885"><ele>340.0</ele><time>2026-04-23T13:52:42.999Z</time></trkpt><trkpt lat="40.76395295326538" lon="17.42341263800105"><ele>340.0</ele><time>2026-04-23T13:52:49.999Z</time></trkpt><trkpt lat="40.7639239842927" lon="17.423280207315877"><ele>340.0</ele><time>2026-04-23T13:52:51.999Z</time></trkpt><trkpt lat="40.76389408717027" lon="17.423141452691034"><ele>340.0</ele><time>2026-04-23T13:52:53.999Z</time></trkpt><trkpt lat="40.76386328675106" lon="17.423004228773117"><ele>340.6</ele><time>2026-04-23T13:52:55.999Z</time></trkpt><trkpt lat="40.76382266964939" lon="17.422865339678577"><ele>341.2</ele><time>2026-04-23T13:52:57.999Z</time></trkpt><trkpt lat="40.76376215341712" lon="17.422740778924123"><ele>341.79999999999995</ele><time>2026-04-23T13:52:59.999Z</time></trkpt><trkpt lat="40.763716925000246" lon="17.422631453717756"><ele>342.4</ele><time>2026-04-23T13:53:01.999Z</time></trkpt><trkpt lat="40.763716611963595" lon="17.42251248927788"><ele>343.0</ele><time>2026-04-23T13:53:03.999Z</time></trkpt><trkpt lat="40.763812058036805" lon="17.422445259018456"><ele>343.0</ele><time>2026-04-23T13:53:05.999Z</time></trkpt><trkpt lat="40.763921080421945" lon="17.422399747505573"><ele>343.0</ele><time>2026-04-23T13:53:07.999Z</time></trkpt><trkpt lat="40.76402312358601" lon="17.422334671829184"><ele>343.0</ele><time>2026-04-23T13:53:09.999Z</time></trkpt><trkpt lat="40.76411588760097" lon="17.422282428481704"><ele>343.0</ele><time>2026-04-23T13:53:11.999Z</time></trkpt><trkpt lat="40.764221954872426" lon="17.422203388860968"><ele>343.79999999999995</ele><time>2026-04-23T13:53:13.999Z</time></trkpt><trkpt lat="40.76433125185556" lon="17.42213500486608"><ele>344.6</ele><time>2026-04-23T13:53:15.999Z</time></trkpt><trkpt lat="40.76438848259668" lon="17.42209905190771"><ele>345.4</ele><time>2026-04-23T13:53:16.999Z</time></trkpt><trkpt lat="40.76444310972882" lon="17.422057657490768"><ele>346.20000000000005</ele><time>2026-04-23T13:53:17.999Z</time></trkpt><trkpt lat="40.764547025348165" lon="17.421980412551537"><ele>347.0</ele><time>2026-04-23T13:53:19.999Z</time></trkpt><trkpt lat="40.76465740623276" lon="17.421913306929486"><ele>347.75</ele><time>2026-04-23T13:53:21.999Z</time></trkpt><trkpt lat="40.764755211613824" lon="17.42182566651253"><ele>348.5</ele><time>2026-04-23T13:53:23.999Z</time></trkpt><trkpt lat="40.76485698908096" lon="17.421741890936442"><ele>349.25</ele><time>2026-04-23T13:53:25.999Z</time></trkpt><trkpt lat="40.76494259913882" lon="17.421644486500252"><ele>350.0</ele><time>2026-04-23T13:53:27.999Z</time></trkpt><trkpt lat="40.765022964448605" lon="17.421532253568447"><ele>350.0</ele><time>2026-04-23T13:53:29.999Z</time></trkpt><trkpt lat="40.76507092018889" lon="17.42147487082641"><ele>350.0</ele><time>2026-04-23T13:53:30.999Z</time></trkpt><trkpt lat="40.765159514008594" lon="17.421363329881334"><ele>350.0</ele><time>2026-04-23T13:53:32.999Z</time></trkpt><trkpt lat="40.76520918158933" lon="17.421300556797693"><ele>350.0</ele><time>2026-04-23T13:53:33.999Z</time></trkpt><trkpt lat="40.765296939273874" lon="17.421202937300215"><ele>350.0</ele><time>2026-04-23T13:53:35.998Z</time></trkpt><trkpt lat="40.765393085015965" lon="17.421101037080494"><ele>351.5</ele><time>2026-04-23T13:53:37.998Z</time></trkpt><trkpt lat="40.76548989401574" lon="17.421012094565047"><ele>353.0</ele><time>2026-04-23T13:53:39.998Z</time></trkpt><trkpt lat="40.76558166565575" lon="17.420925139878328"><ele>354.5</ele><time>2026-04-23T13:53:41.998Z</time></trkpt><trkpt lat="40.765677360941105" lon="17.420835625928266"><ele>356.0</ele><time>2026-04-23T13:53:43.998Z</time></trkpt><trkpt lat="40.76577152784694" lon="17.42074074913861"><ele>356.0</ele><time>2026-04-23T13:53:45.998Z</time></trkpt><trkpt lat="40.76583041213534" lon="17.42070487045423"><ele>356.0</ele><time>2026-04-23T13:53:46.998Z</time></trkpt><trkpt lat="40.765932611583096" lon="17.420610543152524"><ele>356.0</ele><time>2026-04-23T13:53:48.998Z</time></trkpt><trkpt lat="40.76603255082099" lon="17.420511928943238"><ele>356.0</ele><time>2026-04-23T13:53:50.998Z</time></trkpt><trkpt lat="40.7661258790201" lon="17.42041835635373"><ele>356.0</ele><time>2026-04-23T13:53:52.998Z</time></trkpt><trkpt lat="40.76617743271157" lon="17.42036286961163"><ele>355.8</ele><time>2026-04-23T13:53:53.998Z</time></trkpt><trkpt lat="40.76627204830063" lon="17.420268751833664"><ele>355.6</ele><time>2026-04-23T13:53:55.998Z</time></trkpt><trkpt lat="40.76632339748511" lon="17.420219396946408"><ele>355.4</ele><time>2026-04-23T13:53:57Z</time></trkpt><trkpt lat="40.76643879919002" lon="17.420162874640383"><ele>355.2</ele><time>2026-04-23T13:53:59Z</time></trkpt><trkpt lat="40.7665607109469" lon="17.420132566883936"><ele>355.0</ele><time>2026-04-23T13:54:01Z</time></trkpt><trkpt lat="40.766685207439245" lon="17.420123379034493"><ele>355.0</ele><time>2026-04-23T13:54:03Z</time></trkpt><trkpt lat="40.766749904898994" lon="17.420124741755377"><ele>355.0</ele><time>2026-04-23T13:54:04Z</time></trkpt><trkpt lat="40.766872983512435" lon="17.42013792579545"><ele>355.0</ele><time>2026-04-23T13:54:06Z</time></trkpt><trkpt lat="40.76693731444918" lon="17.420144963866036"><ele>355.0</ele><time>2026-04-23T13:54:07Z</time></trkpt><trkpt lat="40.7670542487411" lon="17.420179805836153"><ele>355.0</ele><time>2026-04-23T13:54:09Z</time></trkpt><trkpt lat="40.76712593393691" lon="17.42018431996446"><ele>355.0</ele><time>2026-04-23T13:54:10Z</time></trkpt><trkpt lat="40.76723796764515" lon="17.420211900652383"><ele>355.4</ele><time>2026-04-23T13:54:12Z</time></trkpt><trkpt lat="40.767350235982846" lon="17.420241804196987"><ele>355.8</ele><time>2026-04-23T13:54:14Z</time></trkpt><trkpt lat="40.76745683542675" lon="17.42027824969161"><ele>356.20000000000005</ele><time>2026-04-23T13:54:16Z</time></trkpt><trkpt lat="40.76756332989451" lon="17.420288337434314"><ele>356.6</ele><time>2026-04-23T13:54:18Z</time></trkpt><trkpt lat="40.767662573983785" lon="17.420319311991648"><ele>357.0</ele><time>2026-04-23T13:54:20Z</time></trkpt><trkpt lat="40.76774173164911" lon="17.42035224225396"><ele>358.8</ele><time>2026-04-23T13:54:22Z</time></trkpt><trkpt lat="40.76782668732274" lon="17.420386284722056"><ele>360.6</ele><time>2026-04-23T13:54:24Z</time></trkpt><trkpt lat="40.767909827763084" lon="17.420417054570578"><ele>362.40000000000003</ele><time>2026-04-23T13:54:26Z</time></trkpt><trkpt lat="40.768005167685516" lon="17.420458839101077"><ele>364.20000000000005</ele><time>2026-04-23T13:54:28Z</time></trkpt><trkpt lat="40.768096403560726" lon="17.420501861592324"><ele>366.0</ele><time>2026-04-23T13:54:30Z</time></trkpt><trkpt lat="40.76817594636049" lon="17.420541239863397"><ele>366.0</ele><time>2026-04-23T13:54:32Z</time></trkpt><trkpt lat="40.76825402913774" lon="17.42059205351318"><ele>366.0</ele><time>2026-04-23T13:54:34Z</time></trkpt><trkpt lat="40.768318415148684" lon="17.420677844752653"><ele>366.0</ele><time>2026-04-23T13:54:36Z</time></trkpt><trkpt lat="40.768385196587275" lon="17.42079218811393"><ele>366.0</ele><time>2026-04-23T13:54:38Z</time></trkpt><trkpt lat="40.76840567952068" lon="17.420932911709407"><ele>366.0</ele><time>2026-04-23T13:54:39.999Z</time></trkpt><trkpt lat="40.768418073840955" lon="17.421014936713327"><ele>366.0</ele><time>2026-04-23T13:54:40.999Z</time></trkpt><trkpt lat="40.76844054136587" lon="17.421096516135528"><ele>366.0</ele><time>2026-04-23T13:54:41.999Z</time></trkpt><trkpt lat="40.7684450329839" lon="17.421181604847042"><ele>366.0</ele><time>2026-04-23T13:54:42.999Z</time></trkpt><trkpt lat="40.768468836102194" lon="17.421265599993358"><ele>366.0</ele><time>2026-04-23T13:54:43.999Z</time></trkpt><trkpt lat="40.768503075594516" lon="17.421337731915944"><ele>366.0</ele><time>2026-04-23T13:54:44.999Z</time></trkpt><trkpt lat="40.76858886905004" lon="17.421460548003846"><ele>366.0</ele><time>2026-04-23T13:54:46.999Z</time></trkpt><trkpt lat="40.768650175597294" lon="17.42158443224841"><ele>365.5</ele><time>2026-04-23T13:54:48.999Z</time></trkpt><trkpt lat="40.76870898086314" lon="17.421701543220344"><ele>365.0</ele><time>2026-04-23T13:54:50.999Z</time></trkpt><trkpt lat="40.76874418037009" lon="17.42177140575218"><ele>364.5</ele><time>2026-04-23T13:54:51.999Z</time></trkpt><trkpt lat="40.76880110860686" lon="17.421918371422638"><ele>364.0</ele><time>2026-04-23T13:54:53.999Z</time></trkpt><trkpt lat="40.76883368835803" lon="17.42199455330555"><ele>363.5</ele><time>2026-04-23T13:54:54.999Z</time></trkpt><trkpt lat="40.76886684930962" lon="17.42207011211421"><ele>363.0</ele><time>2026-04-23T13:54:55.999Z</time></trkpt><trkpt lat="40.768910682532976" lon="17.422146177355394"><ele>362.2</ele><time>2026-04-23T13:54:56.999Z</time></trkpt><trkpt lat="40.7689403063526" lon="17.422222825754208"><ele>361.4</ele><time>2026-04-23T13:54:57.999Z</time></trkpt><trkpt lat="40.76900647994802" lon="17.422372420449634"><ele>360.59999999999997</ele><time>2026-04-23T13:54:59.999Z</time></trkpt><trkpt lat="40.769084529165816" lon="17.422507351802313"><ele>359.79999999999995</ele><time>2026-04-23T13:55:01.999Z</time></trkpt><trkpt lat="40.76912283274679" lon="17.42258103871222"><ele>359.0</ele><time>2026-04-23T13:55:02.999Z</time></trkpt><trkpt lat="40.76918111257969" lon="17.422724705841176"><ele>359.0</ele><time>2026-04-23T13:55:04.999Z</time></trkpt><trkpt lat="40.769213347341555" lon="17.42279671732905"><ele>359.0</ele><time>2026-04-23T13:55:05.999Z</time></trkpt><trkpt lat="40.76927103532994" lon="17.42293956648184"><ele>359.0</ele><time>2026-04-23T13:55:07.999Z</time></trkpt><trkpt lat="40.769304126883014" lon="17.423011292840336"><ele>359.0</ele><time>2026-04-23T13:55:08.999Z</time></trkpt><trkpt lat="40.76935921795014" lon="17.42315503228817"><ele>359.0</ele><time>2026-04-23T13:55:10.999Z</time></trkpt><trkpt lat="40.769392404594605" lon="17.423228272697276"><ele>359.0</ele><time>2026-04-23T13:55:11.999Z</time></trkpt><trkpt lat="40.76943896611146" lon="17.42337173158015"><ele>359.75</ele><time>2026-04-23T13:55:13.999Z</time></trkpt><trkpt lat="40.76950840707062" lon="17.423515092168994"><ele>360.5</ele><time>2026-04-23T13:55:15.999Z</time></trkpt><trkpt lat="40.769574571015355" lon="17.423654824831534"><ele>361.25</ele><time>2026-04-23T13:55:17.999Z</time></trkpt><trkpt lat="40.769655215513374" lon="17.42377206592665"><ele>362.0</ele><time>2026-04-23T13:55:19.999Z</time></trkpt><trkpt lat="40.76970485622907" lon="17.42390456533818"><ele>362.40000000000003</ele><time>2026-04-23T13:55:21.999Z</time></trkpt><trkpt lat="40.76969695536169" lon="17.42406910328751"><ele>362.8</ele><time>2026-04-23T13:55:23.999Z</time></trkpt><trkpt lat="40.769715024309306" lon="17.424216255453047"><ele>363.2</ele><time>2026-04-23T13:55:25.999Z</time></trkpt><trkpt lat="40.7698297312814" lon="17.424249808438628"><ele>363.6</ele><time>2026-04-23T13:55:27.999Z</time></trkpt><trkpt lat="40.76989853577507" lon="17.42420869035676"><ele>364.0</ele><time>2026-04-23T13:55:28.999Z</time></trkpt><trkpt lat="40.76996295555104" lon="17.424175210403792"><ele>364.0</ele><time>2026-04-23T13:55:29.999Z</time></trkpt><trkpt lat="40.77002800328935" lon="17.42414603061403"><ele>364.0</ele><time>2026-04-23T13:55:30.999Z</time></trkpt><trkpt lat="40.770097368431045" lon="17.424134137322326"><ele>364.0</ele><time>2026-04-23T13:55:31.999Z</time></trkpt><trkpt lat="40.770161933409014" lon="17.424121313654464"><ele>364.0</ele><time>2026-04-23T13:55:32.999Z</time></trkpt><trkpt lat="40.77027916940229" lon="17.424114036389923"><ele>364.0</ele><time>2026-04-23T13:55:34.998Z</time></trkpt><trkpt lat="40.77037777691486" lon="17.424124962777803"><ele>364.0</ele><time>2026-04-23T13:55:36.998Z</time></trkpt><trkpt lat="40.77047768311909" lon="17.42415095799531"><ele>363.6</ele><time>2026-04-23T13:55:38.998Z</time></trkpt><trkpt lat="40.770541457310884" lon="17.424172603549128"><ele>363.2</ele><time>2026-04-23T13:55:39.998Z</time></trkpt><trkpt lat="40.77060507588196" lon="17.424208519720953"><ele>362.8</ele><time>2026-04-23T13:55:40.998Z</time></trkpt><trkpt lat="40.77070351157588" lon="17.42429175217956"><ele>362.40000000000003</ele><time>2026-04-23T13:55:42.998Z</time></trkpt><trkpt lat="40.77081305491832" lon="17.424358426533807"><ele>362.0</ele><time>2026-04-23T13:55:44.998Z</time></trkpt><trkpt lat="40.77091382664506" lon="17.42443811311401"><ele>362.0</ele><time>2026-04-23T13:55:46.998Z</time></trkpt><trkpt lat="40.77102342750429" lon="17.424545048331773"><ele>362.0</ele><time>2026-04-23T13:55:48.998Z</time></trkpt><trkpt lat="40.77107192182413" lon="17.42463869279854"><ele>362.0</ele><time>2026-04-23T13:55:49.998Z</time></trkpt><trkpt lat="40.77110423208693" lon="17.424726382860612"><ele>362.0</ele><time>2026-04-23T13:55:50.998Z</time></trkpt><trkpt lat="40.77113501568478" lon="17.42482790016252"><ele>362.0</ele><time>2026-04-23T13:55:51.998Z</time></trkpt><trkpt lat="40.77116235029841" lon="17.42492162639468"><ele>360.1666666666667</ele><time>2026-04-23T13:55:52.998Z</time></trkpt><trkpt lat="40.77115900848946" lon="17.42502277973942"><ele>358.33333333333337</ele><time>2026-04-23T13:55:53.998Z</time></trkpt><trkpt lat="40.77116763005226" lon="17.425211237276052"><ele>356.5</ele><time>2026-04-23T13:55:55.998Z</time></trkpt><trkpt lat="40.77116247028286" lon="17.42530785742196"><ele>354.6666666666667</ele><time>2026-04-23T13:55:56.998Z</time></trkpt><trkpt lat="40.77115797391465" lon="17.425391577631203"><ele>352.8333333333333</ele><time>2026-04-23T13:55:57.998Z</time></trkpt><trkpt lat="40.77116472303178" lon="17.425486054405223"><ele>351.0</ele><time>2026-04-23T13:55:58.998Z</time></trkpt><trkpt lat="40.77117629664969" lon="17.42557602215579"><ele>350.8</ele><time>2026-04-23T13:55:59.998Z</time></trkpt><trkpt lat="40.77119190454611" lon="17.425672472675355"><ele>350.6</ele><time>2026-04-23T13:56:00.998Z</time></trkpt><trkpt lat="40.77122795599952" lon="17.425775902270907"><ele>350.4</ele><time>2026-04-23T13:56:01.998Z</time></trkpt><trkpt lat="40.771256531045275" lon="17.425871839582644"><ele>350.2</ele><time>2026-04-23T13:56:03Z</time></trkpt><trkpt lat="40.77128781565055" lon="17.42602078570772"><ele>350.0</ele><time>2026-04-23T13:56:05Z</time></trkpt><trkpt lat="40.7713148720169" lon="17.42616640560393"><ele>350.0</ele><time>2026-04-23T13:56:07Z</time></trkpt><trkpt lat="40.771342141306846" lon="17.426296378546148"><ele>350.0</ele><time>2026-04-23T13:56:09Z</time></trkpt><trkpt lat="40.771333856557355" lon="17.42638277444398"><ele>350.0</ele><time>2026-04-23T13:56:11Z</time></trkpt><trkpt lat="40.77154701585418" lon="17.426417556797876"><ele>350.0</ele><time>2026-04-23T13:56:12Z</time></trkpt><trkpt lat="40.77162767542299" lon="17.42648813878181"><ele>349.8</ele><time>2026-04-23T13:56:13Z</time></trkpt><trkpt lat="40.771667307269" lon="17.426587522191493"><ele>349.6</ele><time>2026-04-23T13:56:14Z</time></trkpt><trkpt lat="40.771701403529825" lon="17.42669543140013"><ele>349.4</ele><time>2026-04-23T13:56:15Z</time></trkpt><trkpt lat="40.77174398501007" lon="17.42677822344312"><ele>349.2</ele><time>2026-04-23T13:56:16Z</time></trkpt><trkpt lat="40.7718285208177" lon="17.42683688463215"><ele>349.0</ele><time>2026-04-23T13:56:18Z</time></trkpt><trkpt lat="40.77189952509788" lon="17.426726519742925"><ele>349.0</ele><time>2026-04-23T13:56:20Z</time></trkpt><trkpt lat="40.77193866080601" lon="17.42664043607441"><ele>349.0</ele><time>2026-04-23T13:56:21Z</time></trkpt><trkpt lat="40.77198198312063" lon="17.426566543280046"><ele>349.0</ele><time>2026-04-23T13:56:22Z</time></trkpt><trkpt lat="40.77205670175694" lon="17.426444174089063"><ele>349.0</ele><time>2026-04-23T13:56:24Z</time></trkpt><trkpt lat="40.77211368790054" lon="17.426395234537743"><ele>349.0</ele><time>2026-04-23T13:56:26Z</time></trkpt><trkpt lat="40.77217328371541" lon="17.426484285154427"><ele>349.0</ele><time>2026-04-23T13:56:28Z</time></trkpt><trkpt lat="40.77221058872588" lon="17.426589288700548"><ele>349.0</ele><time>2026-04-23T13:56:30Z</time></trkpt><trkpt lat="40.77227274724309" lon="17.426681982096547"><ele>349.0</ele><time>2026-04-23T13:56:32Z</time></trkpt><trkpt lat="40.77232951174471" lon="17.426783997711496"><ele>349.0</ele><time>2026-04-23T13:56:34Z</time></trkpt><trkpt lat="40.77239628243724" lon="17.426882411278577"><ele>349.0</ele><time>2026-04-23T13:56:36Z</time></trkpt><trkpt lat="40.77246527911619" lon="17.426985710697988"><ele>349.0</ele><time>2026-04-23T13:56:38Z</time></trkpt><trkpt lat="40.77253432204953" lon="17.427078488337685"><ele>350.0</ele><time>2026-04-23T13:56:40Z</time></trkpt><trkpt lat="40.77261969282013" lon="17.427168546564765"><ele>351.0</ele><time>2026-04-23T13:56:42Z</time></trkpt><trkpt lat="40.772699585234335" lon="17.427265634200115"><ele>352.0</ele><time>2026-04-23T13:56:44Z</time></trkpt><trkpt lat="40.77274700734761" lon="17.427333962197537"><ele>353.0</ele><time>2026-04-23T13:56:46Z</time></trkpt><trkpt lat="40.77279062929427" lon="17.42726883856464"><ele>354.0</ele><time>2026-04-23T13:56:48.999Z</time></trkpt><trkpt lat="40.77284875371309" lon="17.427200088079918"><ele>355.0</ele><time>2026-04-23T13:56:50.999Z</time></trkpt><trkpt lat="40.77292127397598" lon="17.427127509922894"><ele>355.0</ele><time>2026-04-23T13:56:52.999Z</time></trkpt><trkpt lat="40.77298663663681" lon="17.427021940179497"><ele>355.0</ele><time>2026-04-23T13:56:54.999Z</time></trkpt><trkpt lat="40.773036026927485" lon="17.426961374058333"><ele>355.0</ele><time>2026-04-23T13:56:55.999Z</time></trkpt><trkpt lat="40.77309508675616" lon="17.4268849019525"><ele>355.0</ele><time>2026-04-23T13:56:57.999Z</time></trkpt><trkpt lat="40.773188576673164" lon="17.426914026708197"><ele>355.0</ele><time>2026-04-23T13:57:00.999Z</time></trkpt><trkpt lat="40.773257533855215" lon="17.426994333532054"><ele>355.0</ele><time>2026-04-23T13:57:02.999Z</time></trkpt><trkpt lat="40.77331486038511" lon="17.427069391379014"><ele>355.0</ele><time>2026-04-23T13:57:04.999Z</time></trkpt><trkpt lat="40.77337782984385" lon="17.427143931355204"><ele>355.0</ele><time>2026-04-23T13:57:06.999Z</time></trkpt><trkpt lat="40.773450554828116" lon="17.427202720574225"><ele>355.0</ele><time>2026-04-23T13:57:08.999Z</time></trkpt><trkpt lat="40.773532921441515" lon="17.42729433120349"><ele>355.0</ele><time>2026-04-23T13:57:10.999Z</time></trkpt><trkpt lat="40.77359903594243" lon="17.427383918350515"><ele>355.0</ele><time>2026-04-23T13:57:12.999Z</time></trkpt><trkpt lat="40.773668245065856" lon="17.42746161303509"><ele>357.0</ele><time>2026-04-23T13:57:14.999Z</time></trkpt><trkpt lat="40.77375400686731" lon="17.427517558696966"><ele>359.0</ele><time>2026-04-23T13:57:16.999Z</time></trkpt><trkpt lat="40.773848454309906" lon="17.427557764282668"><ele>361.0</ele><time>2026-04-23T13:57:18.999Z</time></trkpt><trkpt lat="40.77393569231461" lon="17.42755699957658"><ele>363.0</ele><time>2026-04-23T13:57:20.999Z</time></trkpt><trkpt lat="40.773967157674974" lon="17.427427401585632"><ele>365.0</ele><time>2026-04-23T13:57:22.999Z</time></trkpt><trkpt lat="40.774005029577104" lon="17.42726784607082"><ele>365.0</ele><time>2026-04-23T13:57:24.999Z</time></trkpt><trkpt lat="40.774109241179254" lon="17.427203909034244"><ele>365.0</ele><time>2026-04-23T13:57:26.999Z</time></trkpt><trkpt lat="40.77418225846267" lon="17.427144298365192"><ele>365.0</ele><time>2026-04-23T13:57:28.999Z</time></trkpt><trkpt lat="40.774247310709654" lon="17.42708833121607"><ele>365.0</ele><time>2026-04-23T13:57:30.999Z</time></trkpt><trkpt lat="40.77428997516567" lon="17.42718248140133"><ele>365.0</ele><time>2026-04-23T13:57:33.999Z</time></trkpt><trkpt lat="40.77425083548407" lon="17.42733946497681"><ele>365.0</ele><time>2026-04-23T13:57:35.999Z</time></trkpt><trkpt lat="40.77424740316941" lon="17.42749234557503"><ele>365.0</ele><time>2026-04-23T13:57:37.999Z</time></trkpt><trkpt lat="40.77430652480158" lon="17.427579251109954"><ele>365.0</ele><time>2026-04-23T13:57:40.999Z</time></trkpt><trkpt lat="40.77438816021107" lon="17.427592266112473"><ele>365.0</ele><time>2026-04-23T13:57:43.999Z</time></trkpt><trkpt lat="40.774449065818445" lon="17.42755064068457"><ele>365.0</ele><time>2026-04-23T13:57:45.998Z</time></trkpt><trkpt lat="40.77451088450544" lon="17.427501879933274"><ele>365.0</ele><time>2026-04-23T13:57:49.998Z</time></trkpt><trkpt lat="40.77458582628806" lon="17.427455269308023"><ele>365.0</ele><time>2026-04-23T13:57:51.998Z</time></trkpt><trkpt lat="40.77465191448772" lon="17.427385511311783"><ele>365.0</ele><time>2026-04-23T13:57:53.998Z</time></trkpt><trkpt lat="40.77470731963648" lon="17.42725557066448"><ele>365.0</ele><time>2026-04-23T13:57:55.998Z</time></trkpt><trkpt lat="40.774731429610966" lon="17.427176277522545"><ele>365.0</ele><time>2026-04-23T13:57:56.998Z</time></trkpt><trkpt lat="40.77476802867732" lon="17.42709998861911"><ele>365.0</ele><time>2026-04-23T13:57:57.998Z</time></trkpt><trkpt lat="40.77484710824104" lon="17.427004183956726"><ele>365.0</ele><time>2026-04-23T13:57:59.998Z</time></trkpt><trkpt lat="40.77493077777473" lon="17.426920883866376"><ele>365.0</ele><time>2026-04-23T13:58:01.998Z</time></trkpt><trkpt lat="40.775008831155645" lon="17.42688636676209"><ele>365.0</ele><time>2026-04-23T13:58:03.998Z</time></trkpt><trkpt lat="40.775042692436465" lon="17.42680287244677"><ele>365.0</ele><time>2026-04-23T13:58:05.998Z</time></trkpt><trkpt lat="40.77514636271707" lon="17.426732638831904"><ele>365.0</ele><time>2026-04-23T13:58:07.998Z</time></trkpt><trkpt lat="40.77523238867064" lon="17.426632328407816"><ele>365.0</ele><time>2026-04-23T13:58:10Z</time></trkpt><trkpt lat="40.775324208445916" lon="17.426568023162428"><ele>364.1666666666667</ele><time>2026-04-23T13:58:12Z</time></trkpt><trkpt lat="40.77538909148185" lon="17.426504136284372"><ele>363.33333333333337</ele><time>2026-04-23T13:58:15Z</time></trkpt><trkpt lat="40.775398889391916" lon="17.42635300288578"><ele>362.5</ele><time>2026-04-23T13:58:17Z</time></trkpt><trkpt lat="40.77547647318323" lon="17.426260205072083"><ele>361.6666666666667</ele><time>2026-04-23T13:58:19Z</time></trkpt><trkpt lat="40.77551744084485" lon="17.426189097350807"><ele>360.8333333333333</ele><time>2026-04-23T13:58:22Z</time></trkpt><trkpt lat="40.77556060214309" lon="17.426120511831822"><ele>360.0</ele><time>2026-04-23T13:58:25Z</time></trkpt><trkpt lat="40.775566119117535" lon="17.42602635383262"><ele>360.0</ele><time>2026-04-23T13:58:27Z</time></trkpt><trkpt lat="40.775542626302204" lon="17.425922871668853"><ele>360.0</ele><time>2026-04-23T13:58:30Z</time></trkpt><trkpt lat="40.775602107801376" lon="17.425829835623002"><ele>360.0</ele><time>2026-04-23T13:58:33Z</time></trkpt><trkpt lat="40.77566918767348" lon="17.425858957114965"><ele>360.0</ele><time>2026-04-23T13:58:35Z</time></trkpt><trkpt lat="40.77574379907524" lon="17.425850338804597"><ele>360.0</ele><time>2026-04-23T13:58:36Z</time></trkpt><trkpt lat="40.775811964570515" lon="17.425856056754952"><ele>360.0</ele><time>2026-04-23T13:58:38Z</time></trkpt><trkpt lat="40.775875743605816" lon="17.42592096578746"><ele>360.0</ele><time>2026-04-23T13:58:41Z</time></trkpt><trkpt lat="40.7759809687996" lon="17.425962680310697"><ele>360.0</ele><time>2026-04-23T13:58:43Z</time></trkpt><trkpt lat="40.77613548874004" lon="17.42591308345817"><ele>360.0</ele><time>2026-04-23T13:58:47Z</time></trkpt><trkpt lat="40.77636943214681" lon="17.426112642896275"><ele>359.0</ele><time>2026-04-23T13:58:52.999Z</time></trkpt><trkpt lat="40.776430479472765" lon="17.42616582985083"><ele>358.0</ele><time>2026-04-23T13:58:54.999Z</time></trkpt><trkpt lat="40.77653734743696" lon="17.42618230163104"><ele>357.0</ele><time>2026-04-23T13:58:56.999Z</time></trkpt><trkpt lat="40.776614598087306" lon="17.426153106414592"><ele>356.0</ele><time>2026-04-23T13:58:58.999Z</time></trkpt><trkpt lat="40.77662973966336" lon="17.426033252164174"><ele>355.0</ele><time>2026-04-23T13:59:00.999Z</time></trkpt><trkpt lat="40.776698164426314" lon="17.425952631145975"><ele>354.0</ele><time>2026-04-23T13:59:02.999Z</time></trkpt><trkpt lat="40.77671946801781" lon="17.425832588645367"><ele>354.0</ele><time>2026-04-23T13:59:04.999Z</time></trkpt><trkpt lat="40.77676020382388" lon="17.425752310114735"><ele>354.0</ele><time>2026-04-23T13:59:06.999Z</time></trkpt><trkpt lat="40.77682751288098" lon="17.425676319230018"><ele>354.0</ele><time>2026-04-23T13:59:08.999Z</time></trkpt><trkpt lat="40.77687378775275" lon="17.425556956782856"><ele>354.0</ele><time>2026-04-23T13:59:11.999Z</time></trkpt><trkpt lat="40.776967985531485" lon="17.42561044483308"><ele>354.0</ele><time>2026-04-23T13:59:13.999Z</time></trkpt><trkpt lat="40.77705936698237" lon="17.425659560441655"><ele>353.6</ele><time>2026-04-23T13:59:15.999Z</time></trkpt><trkpt lat="40.77715587193026" lon="17.425645415440826"><ele>353.2</ele><time>2026-04-23T13:59:17.999Z</time></trkpt><trkpt lat="40.77723577221282" lon="17.425602327159407"><ele>352.8</ele><time>2026-04-23T13:59:19.999Z</time></trkpt><trkpt lat="40.77730737596904" lon="17.425526749766565"><ele>352.40000000000003</ele><time>2026-04-23T13:59:21.999Z</time></trkpt><trkpt lat="40.777382136570424" lon="17.425513118737975"><ele>352.0</ele><time>2026-04-23T13:59:24.999Z</time></trkpt><trkpt lat="40.77743732001836" lon="17.425396374795938"><ele>352.0</ele><time>2026-04-23T13:59:26.999Z</time></trkpt><trkpt lat="40.77749821965425" lon="17.425334348838668"><ele>352.0</ele><time>2026-04-23T13:59:28.999Z</time></trkpt><trkpt lat="40.777569516058236" lon="17.42525402892352"><ele>352.0</ele><time>2026-04-23T13:59:33.999Z</time></trkpt><trkpt lat="40.77773525057279" lon="17.42521355861323"><ele>352.0</ele><time>2026-04-23T13:59:40.999Z</time></trkpt><trkpt lat="40.77775191304576" lon="17.425107430980745"><ele>352.0</ele><time>2026-04-23T13:59:45.998Z</time></trkpt><trkpt lat="40.77775697776794" lon="17.425005128953195"><ele>352.3333333333333</ele><time>2026-04-23T13:59:47.998Z</time></trkpt><trkpt lat="40.77774841437356" lon="17.42487188748263"><ele>352.66666666666663</ele><time>2026-04-23T13:59:49.998Z</time></trkpt><trkpt lat="40.77773947596098" lon="17.424756329958534"><ele>353.0</ele><time>2026-04-23T13:59:53.998Z</time></trkpt><trkpt lat="40.777710082741244" lon="17.424670165542675"><ele>353.3333333333333</ele><time>2026-04-23T13:59:55.998Z</time></trkpt><trkpt lat="40.77767457160567" lon="17.424565437225947"><ele>353.6666666666667</ele><time>2026-04-23T13:59:57.998Z</time></trkpt><trkpt lat="40.777637612185124" lon="17.424492744890948"><ele>354.0</ele><time>2026-04-23T13:59:59.998Z</time></trkpt><trkpt lat="40.7775667708178" lon="17.424547834679103"><ele>354.8333333333333</ele><time>2026-04-23T14:00:02.998Z</time></trkpt><trkpt lat="40.777470564044734" lon="17.424510857619527"><ele>355.6666666666667</ele><time>2026-04-23T14:00:07.998Z</time></trkpt><trkpt lat="40.7774125395909" lon="17.424461888251624"><ele>356.5</ele><time>2026-04-23T14:00:10.998Z</time></trkpt><trkpt lat="40.777439633494026" lon="17.42436625408637"><ele>357.33333333333337</ele><time>2026-04-23T14:00:13.998Z</time></trkpt><trkpt lat="40.77748969327666" lon="17.424276615755762"><ele>358.1666666666667</ele><time>2026-04-23T14:00:16Z</time></trkpt><trkpt lat="40.77750086555694" lon="17.42417441052995"><ele>359.0</ele><time>2026-04-23T14:00:18Z</time></trkpt><trkpt lat="40.77746708434558" lon="17.424055461414483"><ele>359.0</ele><time>2026-04-23T14:00:20Z</time></trkpt><trkpt lat="40.77743284440435" lon="17.423978790067117"><ele>359.0</ele><time>2026-04-23T14:00:23Z</time></trkpt><trkpt lat="40.77742583227312" lon="17.423868993737642"><ele>359.0</ele><time>2026-04-23T14:00:25Z</time></trkpt><trkpt lat="40.777388186807485" lon="17.42375959826464"><ele>359.0</ele><time>2026-04-23T14:00:28Z</time></trkpt><trkpt lat="40.777319521155505" lon="17.42368588979138"><ele>359.0</ele><time>2026-04-23T14:00:31Z</time></trkpt><trkpt lat="40.77724954505532" lon="17.423638815116455"><ele>359.0</ele><time>2026-04-23T14:00:34Z</time></trkpt><trkpt lat="40.77727904936417" lon="17.423548695811863"><ele>359.1666666666667</ele><time>2026-04-23T14:00:36Z</time></trkpt><trkpt lat="40.77734095850692" lon="17.423533065978027"><ele>359.33333333333337</ele><time>2026-04-23T14:00:38Z</time></trkpt><trkpt lat="40.777441339363634" lon="17.423502852694863"><ele>359.5</ele><time>2026-04-23T14:00:41Z</time></trkpt><trkpt lat="40.7775090018333" lon="17.423517810189193"><ele>359.6666666666667</ele><time>2026-04-23T14:00:45Z</time></trkpt><trkpt lat="40.77754538285618" lon="17.42344407260458"><ele>359.8333333333333</ele><time>2026-04-23T14:00:48Z</time></trkpt><trkpt lat="40.77753170077026" lon="17.423316542183027"><ele>360.0</ele><time>2026-04-23T14:00:51Z</time></trkpt><trkpt lat="40.777552916489114" lon="17.42322074221497"><ele>360.0</ele><time>2026-04-23T14:00:53Z</time></trkpt><trkpt lat="40.777569565899064" lon="17.423107700703817"><ele>360.0</ele><time>2026-04-23T14:00:54.999Z</time></trkpt><trkpt lat="40.777571238536424" lon="17.422963347130608"><ele>360.0</ele><time>2026-04-23T14:00:56.999Z</time></trkpt><trkpt lat="40.777566735081336" lon="17.422787482086193"><ele>360.0</ele><time>2026-04-23T14:00:58.999Z</time></trkpt><trkpt lat="40.777573648639994" lon="17.42269627963642"><ele>360.0</ele><time>2026-04-23T14:00:59.999Z</time></trkpt><trkpt lat="40.77758284603243" lon="17.42260286035599"><ele>360.0</ele><time>2026-04-23T14:01:00.999Z</time></trkpt><trkpt lat="40.77759028850329" lon="17.422493213496608"><ele>360.0</ele><time>2026-04-23T14:01:01.999Z</time></trkpt><trkpt lat="40.7775955272069" lon="17.422396163580544"><ele>360.0</ele><time>2026-04-23T14:01:02.999Z</time></trkpt><trkpt lat="40.777599866307824" lon="17.422287190192097"><ele>360.0</ele><time>2026-04-23T14:01:03.999Z</time></trkpt><trkpt lat="40.77759328387082" lon="17.42216582341069"><ele>360.0</ele><time>2026-04-23T14:01:04.999Z</time></trkpt><trkpt lat="40.77759424743511" lon="17.422059177363195"><ele>360.0</ele><time>2026-04-23T14:01:05.999Z</time></trkpt><trkpt lat="40.77758902184599" lon="17.421944173907484"><ele>359.8333333333333</ele><time>2026-04-23T14:01:06.999Z</time></trkpt><trkpt lat="40.777589442999705" lon="17.421834323869813"><ele>359.6666666666667</ele><time>2026-04-23T14:01:07.999Z</time></trkpt><trkpt lat="40.77759999037906" lon="17.421699305313307"><ele>359.5</ele><time>2026-04-23T14:01:09.999Z</time></trkpt><trkpt lat="40.777598666753036" lon="17.421590552316207"><ele>359.33333333333337</ele><time>2026-04-23T14:01:11.999Z</time></trkpt><trkpt lat="40.77763084900912" lon="17.42148864528797"><ele>359.1666666666667</ele><time>2026-04-23T14:01:13.999Z</time></trkpt><trkpt lat="40.77765117872035" lon="17.421364377337316"><ele>359.0</ele><time>2026-04-23T14:01:15.999Z</time></trkpt><trkpt lat="40.77766799888126" lon="17.421249790764964"><ele>355.0</ele><time>2026-04-23T14:01:17.999Z</time></trkpt><trkpt lat="40.77768842487467" lon="17.421130588952906"><ele>351.0</ele><time>2026-04-23T14:01:19.999Z</time></trkpt><trkpt lat="40.777725423819824" lon="17.420984408940136"><ele>347.0</ele><time>2026-04-23T14:01:21.999Z</time></trkpt><trkpt lat="40.777756714253776" lon="17.420850201051284"><ele>343.0</ele><time>2026-04-23T14:01:23.999Z</time></trkpt><trkpt lat="40.777783718502796" lon="17.420743943265162"><ele>339.0</ele><time>2026-04-23T14:01:25.999Z</time></trkpt><trkpt lat="40.77786279896785" lon="17.420781748749192"><ele>339.0</ele><time>2026-04-23T14:01:28.999Z</time></trkpt><trkpt lat="40.77789344953947" lon="17.420886064540944"><ele>339.0</ele><time>2026-04-23T14:01:30.999Z</time></trkpt><trkpt lat="40.7779055823903" lon="17.42102222481555"><ele>339.0</ele><time>2026-04-23T14:01:32.999Z</time></trkpt><trkpt lat="40.77791270704345" lon="17.421107939151483"><ele>339.0</ele><time>2026-04-23T14:01:33.999Z</time></trkpt><trkpt lat="40.777908644410765" lon="17.421201799664978"><ele>339.0</ele><time>2026-04-23T14:01:34.999Z</time></trkpt><trkpt lat="40.77789498820567" lon="17.421288860760235"><ele>339.0</ele><time>2026-04-23T14:01:35.999Z</time></trkpt><trkpt lat="40.77788441264292" lon="17.421379620758724"><ele>337.5</ele><time>2026-04-23T14:01:36.999Z</time></trkpt><trkpt lat="40.77787047389421" lon="17.42147661730243"><ele>336.0</ele><time>2026-04-23T14:01:37.999Z</time></trkpt><trkpt lat="40.77785384148868" lon="17.421562653640713"><ele>334.5</ele><time>2026-04-23T14:01:38.999Z</time></trkpt><trkpt lat="40.777816847547236" lon="17.421643026713625"><ele>333.0</ele><time>2026-04-23T14:01:39.999Z</time></trkpt><trkpt lat="40.77775746347765" lon="17.421773049441317"><ele>331.5</ele><time>2026-04-23T14:01:41.999Z</time></trkpt><trkpt lat="40.777739396177935" lon="17.42190812301829"><ele>330.0</ele><time>2026-04-23T14:01:43.999Z</time></trkpt><trkpt lat="40.777757686954104" lon="17.422051248678038"><ele>330.0</ele><time>2026-04-23T14:01:45.999Z</time></trkpt><trkpt lat="40.7777857841599" lon="17.4221342035363"><ele>330.0</ele><time>2026-04-23T14:01:46.999Z</time></trkpt><trkpt lat="40.777823502537544" lon="17.42224681646948"><ele>330.0</ele><time>2026-04-23T14:01:47.999Z</time></trkpt><trkpt lat="40.77785958718705" lon="17.422396766468275"><ele>330.0</ele><time>2026-04-23T14:01:49.998Z</time></trkpt><trkpt lat="40.77789576770203" lon="17.422478848520825"><ele>330.0</ele><time>2026-04-23T14:01:50.998Z</time></trkpt><trkpt lat="40.77793420191126" lon="17.422560868035852"><ele>330.0</ele><time>2026-04-23T14:01:51.998Z</time></trkpt><trkpt lat="40.77795249773617" lon="17.422647968898495"><ele>330.0</ele><time>2026-04-23T14:01:52.998Z</time></trkpt><trkpt lat="40.77797173802841" lon="17.422737842827445"><ele>330.0</ele><time>2026-04-23T14:01:53.998Z</time></trkpt><trkpt lat="40.77798798897168" lon="17.422822482952213"><ele>330.0</ele><time>2026-04-23T14:01:54.998Z</time></trkpt><trkpt lat="40.77802183408978" lon="17.422894952932594"><ele>330.0</ele><time>2026-04-23T14:01:55.998Z</time></trkpt><trkpt lat="40.77812101857709" lon="17.42302127854874"><ele>330.0</ele><time>2026-04-23T14:01:57.998Z</time></trkpt><trkpt lat="40.778190593156786" lon="17.423112532629627"><ele>330.0</ele><time>2026-04-23T14:01:58.998Z</time></trkpt><trkpt lat="40.77824389181021" lon="17.423225179058264"><ele>331.8</ele><time>2026-04-23T14:01:59.998Z</time></trkpt><trkpt lat="40.77829492739781" lon="17.423339770759405"><ele>333.6</ele><time>2026-04-23T14:02:00.998Z</time></trkpt><trkpt lat="40.77832455029066" lon="17.423447334044024"><ele>335.4</ele><time>2026-04-23T14:02:01.998Z</time></trkpt><trkpt lat="40.77839939447258" lon="17.423562815482427"><ele>337.2</ele><time>2026-04-23T14:02:02.998Z</time></trkpt><trkpt lat="40.7784710033341" lon="17.423664810396332"><ele>339.0</ele><time>2026-04-23T14:02:03.998Z</time></trkpt><trkpt lat="40.77853690027926" lon="17.42377331110084"><ele>332.59999999999997</ele><time>2026-04-23T14:02:04.998Z</time></trkpt><trkpt lat="40.7786082043169" lon="17.42386628409583"><ele>326.2</ele><time>2026-04-23T14:02:05.998Z</time></trkpt><trkpt lat="40.778665367993796" lon="17.42397012983239"><ele>319.79999999999995</ele><time>2026-04-23T14:02:06.998Z</time></trkpt><trkpt lat="40.778719711172265" lon="17.424080393527156"><ele>313.4</ele><time>2026-04-23T14:02:07.998Z</time></trkpt><trkpt lat="40.778759337983054" lon="17.424178415860762"><ele>307.0</ele><time>2026-04-23T14:02:08.998Z</time></trkpt><trkpt lat="40.77879850957049" lon="17.424264302824948"><ele>307.0</ele><time>2026-04-23T14:02:09.998Z</time></trkpt><trkpt lat="40.77885608156055" lon="17.42435840490897"><ele>307.0</ele><time>2026-04-23T14:02:10.998Z</time></trkpt><trkpt lat="40.7788977963074" lon="17.424482836825856"><ele>307.0</ele><time>2026-04-23T14:02:11.998Z</time></trkpt><trkpt lat="40.778940991160844" lon="17.42459798077943"><ele>307.0</ele><time>2026-04-23T14:02:12.998Z</time></trkpt><trkpt lat="40.7789713806941" lon="17.424699297798714"><ele>307.0</ele><time>2026-04-23T14:02:13.998Z</time></trkpt><trkpt lat="40.77900766374418" lon="17.424816082884554"><ele>308.16666666666663</ele><time>2026-04-23T14:02:14.998Z</time></trkpt><trkpt lat="40.77904189979019" lon="17.424927470762363"><ele>309.3333333333333</ele><time>2026-04-23T14:02:15.998Z</time></trkpt><trkpt lat="40.77907538199579" lon="17.425010748502434"><ele>310.5</ele><time>2026-04-23T14:02:16.998Z</time></trkpt><trkpt lat="40.77912739675107" lon="17.425104670204345"><ele>311.6666666666667</ele><time>2026-04-23T14:02:17.998Z</time></trkpt><trkpt lat="40.779160155573585" lon="17.425213242958986"><ele>312.83333333333337</ele><time>2026-04-23T14:02:18.998Z</time></trkpt><trkpt lat="40.779190107993266" lon="17.42531747623576"><ele>314.0</ele><time>2026-04-23T14:02:19.998Z</time></trkpt><trkpt lat="40.77922571839176" lon="17.42542713359059"><ele>315.0</ele><time>2026-04-23T14:02:21Z</time></trkpt><trkpt lat="40.77925882879981" lon="17.425545228414293"><ele>316.0</ele><time>2026-04-23T14:02:22Z</time></trkpt><trkpt lat="40.7792702840059" lon="17.425646907701054"><ele>317.0</ele><time>2026-04-23T14:02:23Z</time></trkpt><trkpt lat="40.77929821078184" lon="17.425785837764543"><ele>318.0</ele><time>2026-04-23T14:02:25Z</time></trkpt><trkpt lat="40.77935759081924" lon="17.425930688159283"><ele>319.0</ele><time>2026-04-23T14:02:27Z</time></trkpt><trkpt lat="40.77938548949045" lon="17.426033098499463"><ele>311.8333333333333</ele><time>2026-04-23T14:02:28Z</time></trkpt><trkpt lat="40.77939727183222" lon="17.42612473819633"><ele>304.66666666666663</ele><time>2026-04-23T14:02:29Z</time></trkpt><trkpt lat="40.77938208663787" lon="17.4262138190312"><ele>297.5</ele><time>2026-04-23T14:02:30Z</time></trkpt><trkpt lat="40.77940079946558" lon="17.426357128062474"><ele>290.3333333333333</ele><time>2026-04-23T14:02:32Z</time></trkpt><trkpt lat="40.779432246767264" lon="17.426443347903177"><ele>283.1666666666667</ele><time>2026-04-23T14:02:33Z</time></trkpt><trkpt lat="40.7794550753735" lon="17.426535606843206"><ele>276.0</ele><time>2026-04-23T14:02:34Z</time></trkpt><trkpt lat="40.77946928832493" lon="17.426623937261976"><ele>276.0</ele><time>2026-04-23T14:02:35Z</time></trkpt><trkpt lat="40.77950072549959" lon="17.426755405092514"><ele>276.0</ele><time>2026-04-23T14:02:37Z</time></trkpt><trkpt lat="40.779544299393194" lon="17.42686512937762"><ele>276.0</ele><time>2026-04-23T14:02:39Z</time></trkpt><trkpt lat="40.779555567343984" lon="17.42696896584831"><ele>276.0</ele><time>2026-04-23T14:02:41Z</time></trkpt><trkpt lat="40.77962182579178" lon="17.426937841700834"><ele>276.0</ele><time>2026-04-23T14:02:45Z</time></trkpt><trkpt lat="40.779622686655" lon="17.426812343744952"><ele>276.0</ele><time>2026-04-23T14:02:47Z</time></trkpt><trkpt lat="40.779623575599764" lon="17.426648565677315"><ele>276.0</ele><time>2026-04-23T14:02:49Z</time></trkpt><trkpt lat="40.77964130934913" lon="17.42656340001347"><ele>276.0</ele><time>2026-04-23T14:02:50Z</time></trkpt><trkpt lat="40.77965312740687" lon="17.42648017116901"><ele>276.0</ele><time>2026-04-23T14:02:51Z</time></trkpt><trkpt lat="40.779668036100844" lon="17.426389766028485"><ele>276.0</ele><time>2026-04-23T14:02:52Z</time></trkpt><trkpt lat="40.779672509641706" lon="17.426289931437616"><ele>276.0</ele><time>2026-04-23T14:02:53Z</time></trkpt><trkpt lat="40.77967587935851" lon="17.42619169678667"><ele>276.0</ele><time>2026-04-23T14:02:54Z</time></trkpt><trkpt lat="40.77969540017672" lon="17.426042980868473"><ele>275.6</ele><time>2026-04-23T14:02:56Z</time></trkpt><trkpt lat="40.77973675748257" lon="17.42591695968618"><ele>275.20000000000005</ele><time>2026-04-23T14:02:58Z</time></trkpt><trkpt lat="40.77974174301997" lon="17.425813579260005"><ele>274.79999999999995</ele><time>2026-04-23T14:03:00Z</time></trkpt><trkpt lat="40.779775525157454" lon="17.425706242021082"><ele>274.4</ele><time>2026-04-23T14:03:01.999Z</time></trkpt><trkpt lat="40.7798046731639" lon="17.425585441826783"><ele>274.0</ele><time>2026-04-23T14:03:03.999Z</time></trkpt><trkpt lat="40.77982215271065" lon="17.425465962249525"><ele>273.0</ele><time>2026-04-23T14:03:05.999Z</time></trkpt><trkpt lat="40.77983245702839" lon="17.425379583906377"><ele>272.0</ele><time>2026-04-23T14:03:06.999Z</time></trkpt><trkpt lat="40.779832959415316" lon="17.42528028155861"><ele>271.0</ele><time>2026-04-23T14:03:07.999Z</time></trkpt><trkpt lat="40.77984097124944" lon="17.425115938414855"><ele>270.0</ele><time>2026-04-23T14:03:09.999Z</time></trkpt><trkpt lat="40.77985008732848" lon="17.424950440287663"><ele>269.0</ele><time>2026-04-23T14:03:11.999Z</time></trkpt><trkpt lat="40.779873242913425" lon="17.424822986134288"><ele>269.0</ele><time>2026-04-23T14:03:13.999Z</time></trkpt><trkpt lat="40.77987593866205" lon="17.424712221842167"><ele>269.0</ele><time>2026-04-23T14:03:15.999Z</time></trkpt><trkpt lat="40.77989246836938" lon="17.424624173467983"><ele>269.0</ele><time>2026-04-23T14:03:17.999Z</time></trkpt><trkpt lat="40.779932890496994" lon="17.424530554158686"><ele>269.0</ele><time>2026-04-23T14:03:19.999Z</time></trkpt><trkpt lat="40.779942269192894" lon="17.42443329908597"><ele>269.0</ele><time>2026-04-23T14:03:21.999Z</time></trkpt><trkpt lat="40.77995198563176" lon="17.42431000814259"><ele>269.0</ele><time>2026-04-23T14:03:24.999Z</time></trkpt><trkpt lat="40.77998414706872" lon="17.42422406816229"><ele>268.0</ele><time>2026-04-23T14:03:26.999Z</time></trkpt><trkpt lat="40.78000482730365" lon="17.42410598135105"><ele>267.0</ele><time>2026-04-23T14:03:28.999Z</time></trkpt><trkpt lat="40.77999944222834" lon="17.42400680651209"><ele>266.0</ele><time>2026-04-23T14:03:30.999Z</time></trkpt><trkpt lat="40.78007755197504" lon="17.42399639295325"><ele>265.0</ele><time>2026-04-23T14:03:54.999Z</time></trkpt><trkpt lat="40.78010955665443" lon="17.42408261019571"><ele>264.0</ele><time>2026-04-23T14:03:56.999Z</time></trkpt><trkpt lat="40.78014646436471" lon="17.42416306442611"><ele>263.0</ele><time>2026-04-23T14:03:58.998Z</time></trkpt><trkpt lat="40.78018803568334" lon="17.424261345537992"><ele>257.6666666666667</ele><time>2026-04-23T14:04:00.998Z</time></trkpt><trkpt lat="40.78023107304069" lon="17.424355727605192"><ele>252.33333333333334</ele><time>2026-04-23T14:04:03.998Z</time></trkpt><trkpt lat="40.78031113109103" lon="17.424436444921117"><ele>247.0</ele><time>2026-04-23T14:04:06.998Z</time></trkpt><trkpt lat="40.78032521365091" lon="17.42452613469312"><ele>241.66666666666669</ele><time>2026-04-23T14:04:08.998Z</time></trkpt><trkpt lat="40.78035024544433" lon="17.424612349261235"><ele>236.33333333333334</ele><time>2026-04-23T14:04:10.998Z</time></trkpt><trkpt lat="40.7803893761702" lon="17.424692491340465"><ele>231.0</ele><time>2026-04-23T14:04:13.998Z</time></trkpt><trkpt lat="40.78044157278131" lon="17.424756609608544"><ele>231.0</ele><time>2026-04-23T14:04:15.998Z</time></trkpt><trkpt lat="40.78049681213241" lon="17.424846547673457"><ele>231.0</ele><time>2026-04-23T14:04:18.998Z</time></trkpt><trkpt lat="40.78053326658253" lon="17.42492885874335"><ele>231.0</ele><time>2026-04-23T14:04:20.998Z</time></trkpt><trkpt lat="40.780565227424475" lon="17.4250175543707"><ele>231.0</ele><time>2026-04-23T14:04:22.998Z</time></trkpt><trkpt lat="40.780618556899" lon="17.425090923406238"><ele>231.0</ele><time>2026-04-23T14:04:24.998Z</time></trkpt><trkpt lat="40.780659969836286" lon="17.4251564521429"><ele>231.0</ele><time>2026-04-23T14:04:27Z</time></trkpt><trkpt lat="40.780702783768" lon="17.425218686219473"><ele>231.0</ele><time>2026-04-23T14:04:30Z</time></trkpt><trkpt lat="40.780730609438926" lon="17.42530262036528"><ele>231.0</ele><time>2026-04-23T14:04:32Z</time></trkpt><trkpt lat="40.78084630403785" lon="17.42542729222581"><ele>231.00000000000003</ele><time>2026-04-23T14:04:35Z</time></trkpt><trkpt lat="40.780878828934384" lon="17.425502129444002"><ele>231.00000000000003</ele><time>2026-04-23T14:04:38Z</time></trkpt><trkpt lat="40.78093398744232" lon="17.425552547508698"><ele>231.0</ele><time>2026-04-23T14:04:40Z</time></trkpt><trkpt lat="40.78098776514822" lon="17.42568671827298"><ele>231.0</ele><time>2026-04-23T14:04:43Z</time></trkpt><trkpt lat="40.78104398331043" lon="17.425775761017057"><ele>225.4</ele><time>2026-04-23T14:04:45Z</time></trkpt><trkpt lat="40.78110427604176" lon="17.42587473223447"><ele>219.8</ele><time>2026-04-23T14:04:47Z</time></trkpt><trkpt lat="40.781161727422564" lon="17.425980305434763"><ele>214.20000000000002</ele><time>2026-04-23T14:04:49Z</time></trkpt><trkpt lat="40.78120472871796" lon="17.42608780701974"><ele>208.60000000000002</ele><time>2026-04-23T14:04:51Z</time></trkpt><trkpt lat="40.78127733130073" lon="17.42617551350136"><ele>203.0</ele><time>2026-04-23T14:04:53Z</time></trkpt><trkpt lat="40.78132650807918" lon="17.42628038910531"><ele>203.00000000000003</ele><time>2026-04-23T14:04:55Z</time></trkpt><trkpt lat="40.781379823895094" lon="17.426390681517137"><ele>203.0</ele><time>2026-04-23T14:04:57Z</time></trkpt><trkpt lat="40.78144803567474" lon="17.42644321401163"><ele>203.0</ele><time>2026-04-23T14:04:59Z</time></trkpt><trkpt lat="40.78149677706326" lon="17.426505323867993"><ele>203.0</ele><time>2026-04-23T14:05:01Z</time></trkpt><trkpt lat="40.78152486462622" lon="17.426580964392002"><ele>203.00000000000003</ele><time>2026-04-23T14:05:03Z</time></trkpt><trkpt lat="40.781572825819055" lon="17.426650260638343"><ele>203.0</ele><time>2026-04-23T14:05:05Z</time></trkpt><trkpt lat="40.78164732439973" lon="17.426688041828037"><ele>203.0</ele><time>2026-04-23T14:05:08Z</time></trkpt><trkpt lat="40.781706574622405" lon="17.426721361334202"><ele>203.0</ele><time>2026-04-23T14:05:10Z</time></trkpt><trkpt lat="40.78177902435928" lon="17.42673639685639"><ele>203.0</ele><time>2026-04-23T14:05:16.999Z</time></trkpt><trkpt lat="40.78183979263386" lon="17.42671397653733"><ele>203.0</ele><time>2026-04-23T14:05:29.999Z</time></trkpt><trkpt lat="40.78183406346757" lon="17.426609458260966"><ele>203.0</ele><time>2026-04-23T14:05:31.999Z</time></trkpt><trkpt lat="40.7818290616924" lon="17.426483264096706"><ele>203.0</ele><time>2026-04-23T14:05:34.999Z</time></trkpt><trkpt lat="40.78182057076294" lon="17.42639712748678"><ele>203.0</ele><time>2026-04-23T14:05:36.999Z</time></trkpt><trkpt lat="40.7818158173398" lon="17.4263021768403"><ele>203.00000000000003</ele><time>2026-04-23T14:05:38.999Z</time></trkpt><trkpt lat="40.78180175726253" lon="17.426192179136507"><ele>203.0</ele><time>2026-04-23T14:05:40.999Z</time></trkpt><trkpt lat="40.781782479030745" lon="17.426077375325885"><ele>203.0</ele><time>2026-04-23T14:05:42.999Z</time></trkpt><trkpt lat="40.78176588525985" lon="17.42596158612823"><ele>203.0</ele><time>2026-04-23T14:05:44.999Z</time></trkpt><trkpt lat="40.78174727174534" lon="17.42585350159208"><ele>203.00000000000003</ele><time>2026-04-23T14:05:46.999Z</time></trkpt><trkpt lat="40.78172406503686" lon="17.42573805264618"><ele>203.0</ele><time>2026-04-23T14:05:48.999Z</time></trkpt><trkpt lat="40.78169959136209" lon="17.42563330069631"><ele>203.00000000000003</ele><time>2026-04-23T14:05:50.999Z</time></trkpt><trkpt lat="40.781674403485304" lon="17.425527305711608"><ele>203.0</ele><time>2026-04-23T14:05:52.999Z</time></trkpt><trkpt lat="40.781650999327795" lon="17.425435164314003"><ele>203.0</ele><time>2026-04-23T14:05:54.999Z</time></trkpt><trkpt lat="40.78162295367213" lon="17.425329047677607"><ele>203.0</ele><time>2026-04-23T14:05:56.999Z</time></trkpt><trkpt lat="40.78159193815075" lon="17.42521354386212"><ele>203.00000000000003</ele><time>2026-04-23T14:05:58.999Z</time></trkpt><trkpt lat="40.781560978744764" lon="17.425095162728258"><ele>203.0</ele><time>2026-04-23T14:06:00.999Z</time></trkpt><trkpt lat="40.78153065673514" lon="17.42498214742516"><ele>203.2</ele><time>2026-04-23T14:06:02.999Z</time></trkpt><trkpt lat="40.781499681862506" lon="17.424851398055605"><ele>203.4</ele><time>2026-04-23T14:06:04.999Z</time></trkpt><trkpt lat="40.781465753818466" lon="17.424732640300267"><ele>203.6</ele><time>2026-04-23T14:06:06.998Z</time></trkpt><trkpt lat="40.78143328189665" lon="17.4245975553363"><ele>203.79999999999998</ele><time>2026-04-23T14:06:08.998Z</time></trkpt><trkpt lat="40.78140413036241" lon="17.424470837504167"><ele>204.0</ele><time>2026-04-23T14:06:10.998Z</time></trkpt><trkpt lat="40.781371199076766" lon="17.42433973469926"><ele>203.2</ele><time>2026-04-23T14:06:12.998Z</time></trkpt><trkpt lat="40.78134524448574" lon="17.424204030971975"><ele>202.39999999999998</ele><time>2026-04-23T14:06:14.998Z</time></trkpt><trkpt lat="40.781320011942164" lon="17.424061702815752"><ele>201.6</ele><time>2026-04-23T14:06:16.998Z</time></trkpt><trkpt lat="40.78130175952167" lon="17.423924068445416"><ele>200.8</ele><time>2026-04-23T14:06:18.998Z</time></trkpt><trkpt lat="40.78128700089677" lon="17.42379290857145"><ele>200.0</ele><time>2026-04-23T14:06:20.998Z</time></trkpt><trkpt lat="40.78127761299841" lon="17.423650011566025"><ele>200.0</ele><time>2026-04-23T14:06:22.998Z</time></trkpt><trkpt lat="40.78126403150837" lon="17.42349623611657"><ele>200.0</ele><time>2026-04-23T14:06:24.998Z</time></trkpt><trkpt lat="40.781261515935924" lon="17.423341809204103"><ele>200.0</ele><time>2026-04-23T14:06:26.998Z</time></trkpt><trkpt lat="40.78123017970121" lon="17.423235040028608"><ele>200.0</ele><time>2026-04-23T14:06:28.998Z</time></trkpt><trkpt lat="40.78118979506616" lon="17.423144435129768"><ele>200.0</ele><time>2026-04-23T14:06:30.998Z</time></trkpt><trkpt lat="40.78120441391825" lon="17.42305755900286"><ele>200.0</ele><time>2026-04-23T14:06:33Z</time></trkpt><trkpt lat="40.78121940107432" lon="17.422944331811443"><ele>200.0</ele><time>2026-04-23T14:06:35Z</time></trkpt><trkpt lat="40.78123562295116" lon="17.422830862675667"><ele>200.0</ele><time>2026-04-23T14:06:37Z</time></trkpt><trkpt lat="40.78124655888766" lon="17.422689902895033"><ele>200.0</ele><time>2026-04-23T14:06:39Z</time></trkpt><trkpt lat="40.78125048865356" lon="17.422544379679266"><ele>200.0</ele><time>2026-04-23T14:06:41Z</time></trkpt><trkpt lat="40.781261376432695" lon="17.422419588416535"><ele>200.00000000000003</ele><time>2026-04-23T14:06:43Z</time></trkpt><trkpt lat="40.78128265174694" lon="17.422324642456704"><ele>200.0</ele><time>2026-04-23T14:06:45Z</time></trkpt><trkpt lat="40.781292036008935" lon="17.42220308197354"><ele>200.0</ele><time>2026-04-23T14:06:47Z</time></trkpt><trkpt lat="40.78129455841706" lon="17.422112482710805"><ele>200.0</ele><time>2026-04-23T14:06:49Z</time></trkpt><trkpt lat="40.781307404502506" lon="17.42196888323861"><ele>200.00000000000003</ele><time>2026-04-23T14:06:51Z</time></trkpt><trkpt lat="40.78131998395615" lon="17.42183366322674"><ele>200.0</ele><time>2026-04-23T14:06:53Z</time></trkpt><trkpt lat="40.78134691966726" lon="17.421702079784342"><ele>200.50000000000003</ele><time>2026-04-23T14:06:55Z</time></trkpt><trkpt lat="40.781373003737926" lon="17.42155591198066"><ele>201.0</ele><time>2026-04-23T14:06:57Z</time></trkpt><trkpt lat="40.78138216710053" lon="17.42143020725416"><ele>201.5</ele><time>2026-04-23T14:06:59Z</time></trkpt><trkpt lat="40.7814060493685" lon="17.421333925127524"><ele>202.0</ele><time>2026-04-23T14:07:01Z</time></trkpt><trkpt lat="40.78142927811858" lon="17.421240169969185"><ele>202.50000000000003</ele><time>2026-04-23T14:07:03Z</time></trkpt><trkpt lat="40.78145128711928" lon="17.42114322506061"><ele>203.0</ele><time>2026-04-23T14:07:05Z</time></trkpt><trkpt lat="40.7814481398686" lon="17.421044006543138"><ele>204.00000000000003</ele><time>2026-04-23T14:07:08Z</time></trkpt><trkpt lat="40.78136917576646" lon="17.421003614583178"><ele>205.0</ele><time>2026-04-23T14:07:11Z</time></trkpt><trkpt lat="40.78130120087967" lon="17.420993540389862"><ele>206.0</ele><time>2026-04-23T14:07:13.999Z</time></trkpt><trkpt lat="40.781232536017875" lon="17.420927680658902"><ele>207.0</ele><time>2026-04-23T14:07:16.999Z</time></trkpt><trkpt lat="40.78116567428007" lon="17.420972336159767"><ele>208.00000000000003</ele><time>2026-04-23T14:07:19.999Z</time></trkpt><trkpt lat="40.78110253260997" lon="17.421020473286717"><ele>209.0</ele><time>2026-04-23T14:07:21.999Z</time></trkpt><trkpt lat="40.78101829682652" lon="17.42103740768261"><ele>211.42857142857142</ele><time>2026-04-23T14:07:24.999Z</time></trkpt><trkpt lat="40.78097970713793" lon="17.420965816790396"><ele>213.85714285714283</ele><time>2026-04-23T14:07:27.999Z</time></trkpt><trkpt lat="40.78090889713888" lon="17.420916626297295"><ele>216.28571428571428</ele><time>2026-04-23T14:07:30.999Z</time></trkpt><trkpt lat="40.780866601599264" lon="17.420818330040706"><ele>218.71428571428572</ele><time>2026-04-23T14:07:34.999Z</time></trkpt><trkpt lat="40.7808313167739" lon="17.420749323924596"><ele>221.14285714285714</ele><time>2026-04-23T14:07:38.999Z</time></trkpt><trkpt lat="40.780774902521806" lon="17.42071020140319"><ele>223.57142857142858</ele><time>2026-04-23T14:07:41.999Z</time></trkpt><trkpt lat="40.78071289636876" lon="17.420777979268383"><ele>226.0</ele><time>2026-04-23T14:07:44.999Z</time></trkpt><trkpt lat="40.78067492174046" lon="17.42085732705658"><ele>226.0</ele><time>2026-04-23T14:07:47.999Z</time></trkpt><trkpt lat="40.780617558124206" lon="17.420915557767824"><ele>226.0</ele><time>2026-04-23T14:07:51.999Z</time></trkpt><trkpt lat="40.780569704156186" lon="17.4209767848293"><ele>226.0</ele><time>2026-04-23T14:07:55.999Z</time></trkpt><trkpt lat="40.78049730294952" lon="17.421049057132283"><ele>226.0</ele><time>2026-04-23T14:07:59.999Z</time></trkpt><trkpt lat="40.78044699486774" lon="17.42110621025637"><ele>226.0</ele><time>2026-04-23T14:08:02.999Z</time></trkpt><trkpt lat="40.78039641831637" lon="17.421167851741572"><ele>226.0</ele><time>2026-04-23T14:08:06.999Z</time></trkpt><trkpt lat="40.780354164670214" lon="17.4212482818372"><ele>226.0</ele><time>2026-04-23T14:08:10.998Z</time></trkpt><trkpt lat="40.78031411948917" lon="17.42133178908826"><ele>225.2857142857143</ele><time>2026-04-23T14:08:14.998Z</time></trkpt><trkpt lat="40.780282603699426" lon="17.421422830075738"><ele>224.57142857142856</ele><time>2026-04-23T14:08:17.998Z</time></trkpt><trkpt lat="40.78026423962532" lon="17.421506843919303"><ele>223.85714285714286</ele><time>2026-04-23T14:08:20.998Z</time></trkpt><trkpt lat="40.78024391006914" lon="17.421598784875012"><ele>223.14285714285717</ele><time>2026-04-23T14:08:23.998Z</time></trkpt><trkpt lat="40.78021518037832" lon="17.42168486426228"><ele>222.42857142857144</ele><time>2026-04-23T14:08:26.998Z</time></trkpt><trkpt lat="40.78020996412087" lon="17.421786278049456"><ele>221.71428571428572</ele><time>2026-04-23T14:08:29.998Z</time></trkpt><trkpt lat="40.780188747395215" lon="17.421887315824463"><ele>221.0</ele><time>2026-04-23T14:08:32.998Z</time></trkpt><trkpt lat="40.78016773361874" lon="17.421985124389288"><ele>225.2857142857143</ele><time>2026-04-23T14:08:35.998Z</time></trkpt><trkpt lat="40.78013991410733" lon="17.422081900129502"><ele>229.57142857142856</ele><time>2026-04-23T14:08:39Z</time></trkpt><trkpt lat="40.78012140295106" lon="17.422187543814285"><ele>233.85714285714283</ele><time>2026-04-23T14:08:42Z</time></trkpt><trkpt lat="40.78009796181337" lon="17.422271947376448"><ele>238.14285714285714</ele><time>2026-04-23T14:08:45Z</time></trkpt><trkpt lat="40.78007504686304" lon="17.4223620827383"><ele>242.42857142857142</ele><time>2026-04-23T14:08:48Z</time></trkpt><trkpt lat="40.780064992189246" lon="17.42244709236724"><ele>246.7142857142857</ele><time>2026-04-23T14:08:51Z</time></trkpt><trkpt lat="40.78006077899302" lon="17.42254110593451"><ele>250.99999999999997</ele><time>2026-04-23T14:08:54Z</time></trkpt><trkpt lat="40.780046543969334" lon="17.422626037253973"><ele>250.99999999999997</ele><time>2026-04-23T14:08:58Z</time></trkpt><trkpt lat="40.77998415089123" lon="17.42256736739538"><ele>251.0</ele><time>2026-04-23T14:09:02Z</time></trkpt><trkpt lat="40.779972775834466" lon="17.42248545845613"><ele>250.99999999999997</ele><time>2026-04-23T14:09:05Z</time></trkpt><trkpt lat="40.77995072256382" lon="17.422405744625358"><ele>250.99999999999997</ele><time>2026-04-23T14:09:07Z</time></trkpt><trkpt lat="40.77991562326312" lon="17.42233528516511"><ele>251.0</ele><time>2026-04-23T14:09:09Z</time></trkpt><trkpt lat="40.77989355681017" lon="17.422254359215472"><ele>250.99999999999997</ele><time>2026-04-23T14:09:12Z</time></trkpt><trkpt lat="40.779877559617844" lon="17.422171838884896"><ele>250.99999999999997</ele><time>2026-04-23T14:09:14Z</time></trkpt><trkpt lat="40.77987580724338" lon="17.422087952045413"><ele>251.00000000000003</ele><time>2026-04-23T14:09:16Z</time></trkpt><trkpt lat="40.77985807880551" lon="17.421988687529698"><ele>251.0</ele><time>2026-04-23T14:09:18.999Z</time></trkpt><trkpt lat="40.779847769646075" lon="17.421869524409974"><ele>251.0</ele><time>2026-04-23T14:09:22.999Z</time></trkpt><trkpt lat="40.77981973184874" lon="17.421769882742947"><ele>251.0</ele><time>2026-04-23T14:09:24.999Z</time></trkpt><trkpt lat="40.77981437828333" lon="17.421679054080005"><ele>251.00000000000003</ele><time>2026-04-23T14:09:27.999Z</time></trkpt><trkpt lat="40.77979789091439" lon="17.421587326285092"><ele>251.0</ele><time>2026-04-23T14:09:30.999Z</time></trkpt><trkpt lat="40.779795555199165" lon="17.42149019584168"><ele>251.00000000000003</ele><time>2026-04-23T14:09:34.999Z</time></trkpt><trkpt lat="40.7797780546848" lon="17.42140084636675"><ele>251.0</ele><time>2026-04-23T14:09:38.999Z</time></trkpt><trkpt lat="40.77975873548773" lon="17.421301034279757"><ele>251.0</ele><time>2026-04-23T14:09:41.999Z</time></trkpt><trkpt lat="40.77973262302833" lon="17.42119891929229"><ele>251.0</ele><time>2026-04-23T14:09:44.999Z</time></trkpt><trkpt lat="40.77971597684934" lon="17.421110858043992"><ele>251.00000000000003</ele><time>2026-04-23T14:09:47.999Z</time></trkpt><trkpt lat="40.77970581657911" lon="17.421014612794792"><ele>251.0</ele><time>2026-04-23T14:09:51.999Z</time></trkpt><trkpt lat="40.779698927042794" lon="17.42090887727058"><ele>251.99999999999997</ele><time>2026-04-23T14:09:55.999Z</time></trkpt><trkpt lat="40.77971316746032" lon="17.420804777590288"><ele>253.0</ele><time>2026-04-23T14:09:59.999Z</time></trkpt><trkpt lat="40.77972786943389" lon="17.420721246534914"><ele>253.99999999999997</ele><time>2026-04-23T14:10:01.999Z</time></trkpt><trkpt lat="40.77974995206079" lon="17.42064039718628"><ele>254.99999999999997</ele><time>2026-04-23T14:10:03.999Z</time></trkpt><trkpt lat="40.77977196100725" lon="17.42056023813062"><ele>256.0</ele><time>2026-04-23T14:10:05.999Z</time></trkpt><trkpt lat="40.779800769615626" lon="17.42045490356009"><ele>256.99999999999994</ele><time>2026-04-23T14:10:08.999Z</time></trkpt><trkpt lat="40.77981343177615" lon="17.42036259136778"><ele>258.0</ele><time>2026-04-23T14:10:11.998Z</time></trkpt><trkpt lat="40.77983606950703" lon="17.420281527063846"><ele>259.6666666666667</ele><time>2026-04-23T14:10:13.998Z</time></trkpt><trkpt lat="40.77985294995614" lon="17.420174005758355"><ele>261.3333333333333</ele><time>2026-04-23T14:10:16.998Z</time></trkpt><trkpt lat="40.77988961020927" lon="17.420067204648195"><ele>263.0</ele><time>2026-04-23T14:10:19.998Z</time></trkpt><trkpt lat="40.77991476301693" lon="17.419988402021104"><ele>264.66666666666663</ele><time>2026-04-23T14:10:21.998Z</time></trkpt><trkpt lat="40.77993728591581" lon="17.419867255512003"><ele>266.3333333333333</ele><time>2026-04-23T14:10:24.998Z</time></trkpt><trkpt lat="40.779958014091584" lon="17.41973316832183"><ele>268.0</ele><time>2026-04-23T14:10:27.998Z</time></trkpt><trkpt lat="40.77998271468282" lon="17.41962613610166"><ele>270.66666666666663</ele><time>2026-04-23T14:10:30.998Z</time></trkpt><trkpt lat="40.780005959964164" lon="17.419512500085702"><ele>273.3333333333333</ele><time>2026-04-23T14:10:33.998Z</time></trkpt><trkpt lat="40.78000598000014" lon="17.41942916140424"><ele>276.0</ele><time>2026-04-23T14:10:35.998Z</time></trkpt><trkpt lat="40.780007773482836" lon="17.419323988361803"><ele>278.6666666666667</ele><time>2026-04-23T14:10:38.998Z</time></trkpt><trkpt lat="40.78001235290943" lon="17.419209333793116"><ele>281.33333333333337</ele><time>2026-04-23T14:10:41.998Z</time></trkpt><trkpt lat="40.78003666623586" lon="17.419113274317024"><ele>284.0</ele><time>2026-04-23T14:10:45Z</time></trkpt><trkpt lat="40.78006561256558" lon="17.419018233337482"><ele>284.0</ele><time>2026-04-23T14:10:48Z</time></trkpt><trkpt lat="40.78009502716473" lon="17.418941046086303"><ele>284.0</ele><time>2026-04-23T14:10:51Z</time></trkpt><trkpt lat="40.78012788463911" lon="17.418862439417172"><ele>284.0</ele><time>2026-04-23T14:10:54Z</time></trkpt><trkpt lat="40.780148826559234" lon="17.418763608995523"><ele>284.0</ele><time>2026-04-23T14:10:57Z</time></trkpt><trkpt lat="40.780172947547335" lon="17.41866501561065"><ele>284.0</ele><time>2026-04-23T14:11:01Z</time></trkpt><trkpt lat="40.78018476062162" lon="17.418579333132953"><ele>284.0</ele><time>2026-04-23T14:11:04Z</time></trkpt><trkpt lat="40.78022155678365" lon="17.418493857228363"><ele>284.0</ele><time>2026-04-23T14:11:08Z</time></trkpt><trkpt lat="40.780261119322965" lon="17.41841125571475"><ele>283.83333333333337</ele><time>2026-04-23T14:11:11Z</time></trkpt><trkpt lat="40.780305775154694" lon="17.41834440651574"><ele>283.6666666666667</ele><time>2026-04-23T14:11:14Z</time></trkpt><trkpt lat="40.780366325238724" lon="17.418288370230698"><ele>283.5</ele><time>2026-04-23T14:11:18Z</time></trkpt><trkpt lat="40.78041985206834" lon="17.418225524449237"><ele>283.3333333333333</ele><time>2026-04-23T14:11:21Z</time></trkpt><trkpt lat="40.78048903933473" lon="17.4181628571912"><ele>283.16666666666663</ele><time>2026-04-23T14:11:23.999Z</time></trkpt><trkpt lat="40.78055275519083" lon="17.418107140443695"><ele>283.0</ele><time>2026-04-23T14:11:26.999Z</time></trkpt><trkpt lat="40.78063121779534" lon="17.418051288396306"><ele>283.0</ele><time>2026-04-23T14:11:29.999Z</time></trkpt><trkpt lat="40.7807083773604" lon="17.41802487103785"><ele>283.0</ele><time>2026-04-23T14:11:32.999Z</time></trkpt><trkpt lat="40.780788422633236" lon="17.417966625834215"><ele>283.0</ele><time>2026-04-23T14:11:35.999Z</time></trkpt><trkpt lat="40.780854501295885" lon="17.417916179446717"><ele>283.0</ele><time>2026-04-23T14:11:38.999Z</time></trkpt><trkpt lat="40.78091623413477" lon="17.417888654945873"><ele>283.0</ele><time>2026-04-23T14:11:40.999Z</time></trkpt><trkpt lat="40.78099141143525" lon="17.417855543626587"><ele>283.0</ele><time>2026-04-23T14:11:43.999Z</time></trkpt><trkpt lat="40.781076089335386" lon="17.417800066618135"><ele>285.8333333333333</ele><time>2026-04-23T14:11:47.999Z</time></trkpt><trkpt lat="40.781047020629565" lon="17.417726289055732"><ele>288.66666666666663</ele><time>2026-04-23T14:11:53.999Z</time></trkpt><trkpt lat="40.78094011177708" lon="17.41776652725734"><ele>291.5</ele><time>2026-04-23T14:11:57.999Z</time></trkpt><trkpt lat="40.78086346198203" lon="17.417779834698862"><ele>294.3333333333333</ele><time>2026-04-23T14:12:00.999Z</time></trkpt><trkpt lat="40.780774933569894" lon="17.417798125579477"><ele>297.1666666666667</ele><time>2026-04-23T14:12:03.999Z</time></trkpt><trkpt lat="40.78069824570339" lon="17.41784190573705"><ele>300.0</ele><time>2026-04-23T14:12:06.999Z</time></trkpt><trkpt lat="40.780609738510904" lon="17.417842464251358"><ele>302.5</ele><time>2026-04-23T14:12:10.999Z</time></trkpt><trkpt lat="40.78052750575796" lon="17.417841926776585"><ele>305.0</ele><time>2026-04-23T14:12:14.999Z</time></trkpt><trkpt lat="40.78046370143782" lon="17.41785706823144"><ele>307.5</ele><time>2026-04-23T14:12:17.998Z</time></trkpt><trkpt lat="40.78039845592879" lon="17.41787611748229"><ele>310.0</ele><time>2026-04-23T14:12:20.998Z</time></trkpt><trkpt lat="40.780315747709786" lon="17.41789305348004"><ele>312.5</ele><time>2026-04-23T14:12:23.998Z</time></trkpt><trkpt lat="40.780236541485316" lon="17.417921510193537"><ele>315.0</ele><time>2026-04-23T14:12:26.998Z</time></trkpt><trkpt lat="40.78015757442905" lon="17.417981691812773"><ele>313.2</ele><time>2026-04-23T14:12:29.998Z</time></trkpt><trkpt lat="40.780072153424975" lon="17.417998198801335"><ele>311.4</ele><time>2026-04-23T14:12:33.998Z</time></trkpt><trkpt lat="40.779979846715364" lon="17.418035586307035"><ele>309.6</ele><time>2026-04-23T14:12:37.998Z</time></trkpt><trkpt lat="40.7798890114277" lon="17.418078784541677"><ele>307.8</ele><time>2026-04-23T14:12:41.998Z</time></trkpt><trkpt lat="40.77981259509105" lon="17.418113630417153"><ele>306.0</ele><time>2026-04-23T14:12:44.998Z</time></trkpt><trkpt lat="40.77972203215844" lon="17.418166444203766"><ele>306.0</ele><time>2026-04-23T14:12:48.998Z</time></trkpt><trkpt lat="40.77962884565006" lon="17.418213420881205"><ele>306.0</ele><time>2026-04-23T14:12:53Z</time></trkpt><trkpt lat="40.77954054570839" lon="17.418244656658157"><ele>306.0</ele><time>2026-04-23T14:12:57Z</time></trkpt><trkpt lat="40.77945396544441" lon="17.418291508049567"><ele>306.0</ele><time>2026-04-23T14:13:01Z</time></trkpt><trkpt lat="40.779377228345666" lon="17.418352400801204"><ele>306.0</ele><time>2026-04-23T14:13:05Z</time></trkpt><trkpt lat="40.779321016979154" lon="17.418390781089585"><ele>306.0</ele><time>2026-04-23T14:13:08Z</time></trkpt><trkpt lat="40.77928043530455" lon="17.41845713446664"><ele>308.8333333333333</ele><time>2026-04-23T14:13:11Z</time></trkpt><trkpt lat="40.77922891425995" lon="17.418510145252"><ele>311.6666666666667</ele><time>2026-04-23T14:13:14Z</time></trkpt><trkpt lat="40.77916384069963" lon="17.418577312672877"><ele>314.5</ele><time>2026-04-23T14:13:17Z</time></trkpt><trkpt lat="40.779102230901" lon="17.418645111562455"><ele>317.33333333333337</ele><time>2026-04-23T14:13:20Z</time></trkpt><trkpt lat="40.77904335247722" lon="17.41871834541419"><ele>320.1666666666667</ele><time>2026-04-23T14:13:23Z</time></trkpt><trkpt lat="40.778986437551765" lon="17.41878593294899"><ele>323.0</ele><time>2026-04-23T14:13:26Z</time></trkpt><trkpt lat="40.778940710901" lon="17.418849410038032"><ele>323.00000000000006</ele><time>2026-04-23T14:13:28.999Z</time></trkpt><trkpt lat="40.77889043165304" lon="17.41892032522852"><ele>323.0</ele><time>2026-04-23T14:13:31.999Z</time></trkpt><trkpt lat="40.77884934467079" lon="17.418991147422382"><ele>323.0</ele><time>2026-04-23T14:13:36.999Z</time></trkpt><trkpt lat="40.778812039934515" lon="17.419061483407685"><ele>323.0</ele><time>2026-04-23T14:13:38.999Z</time></trkpt><trkpt lat="40.7787745548732" lon="17.419139174755628"><ele>323.0</ele><time>2026-04-23T14:13:42.999Z</time></trkpt><trkpt lat="40.778737606925034" lon="17.419234092632294"><ele>323.00000000000006</ele><time>2026-04-23T14:13:45.999Z</time></trkpt><trkpt lat="40.778730011496535" lon="17.419323797586777"><ele>323.0</ele><time>2026-04-23T14:13:48.999Z</time></trkpt><trkpt lat="40.77867052922925" lon="17.419373738034544"><ele>323.0</ele><time>2026-04-23T14:13:51.999Z</time></trkpt><trkpt lat="40.778618471746974" lon="17.419300730829505"><ele>323.0</ele><time>2026-04-23T14:13:54.999Z</time></trkpt><trkpt lat="40.77864755401241" lon="17.41921577936967"><ele>323.0</ele><time>2026-04-23T14:13:57.999Z</time></trkpt><trkpt lat="40.778656888571696" lon="17.419083246370274"><ele>323.0</ele><time>2026-04-23T14:14:00.999Z</time></trkpt><trkpt lat="40.77864858168742" lon="17.41897250544334"><ele>323.0</ele><time>2026-04-23T14:14:02.999Z</time></trkpt><trkpt lat="40.77865095222674" lon="17.418864924740785"><ele>323.0</ele><time>2026-04-23T14:14:04.999Z</time></trkpt><trkpt lat="40.77864609970305" lon="17.418775249589082"><ele>325.33333333333337</ele><time>2026-04-23T14:14:06.999Z</time></trkpt><trkpt lat="40.77864895574404" lon="17.418684125452028"><ele>327.6666666666667</ele><time>2026-04-23T14:14:08.999Z</time></trkpt><trkpt lat="40.778653363924505" lon="17.418562089287214"><ele>330.0</ele><time>2026-04-23T14:14:11.999Z</time></trkpt><trkpt lat="40.77867262246366" lon="17.418456349639094"><ele>332.3333333333333</ele><time>2026-04-23T14:14:14.999Z</time></trkpt><trkpt lat="40.77861403311271" lon="17.418500068379725"><ele>334.66666666666663</ele><time>2026-04-23T14:14:20.999Z</time></trkpt><trkpt lat="40.778600699408855" lon="17.41858755772533"><ele>337.0</ele><time>2026-04-23T14:14:24.998Z</time></trkpt><trkpt lat="40.77859401503118" lon="17.41869308490354"><ele>337.0</ele><time>2026-04-23T14:15:10Z</time></trkpt><trkpt lat="40.77855895378052" lon="17.418803024165985"><ele>337.0</ele><time>2026-04-23T14:15:41.999Z</time></trkpt><trkpt lat="40.77853173903205" lon="17.418892945682384"><ele>337.0</ele><time>2026-04-23T14:15:44.999Z</time></trkpt><trkpt lat="40.77850341799179" lon="17.41896807919685"><ele>337.0</ele><time>2026-04-23T14:15:46.999Z</time></trkpt><trkpt lat="40.778459912362905" lon="17.419066163631943"><ele>337.0</ele><time>2026-04-23T14:15:48.999Z</time></trkpt><trkpt lat="40.77841582598159" lon="17.419150880166228"><ele>337.0</ele><time>2026-04-23T14:15:50.999Z</time></trkpt><trkpt lat="40.778377402767966" lon="17.419261977861584"><ele>339.6</ele><time>2026-04-23T14:15:52.999Z</time></trkpt><trkpt lat="40.778333403099154" lon="17.419374368943195"><ele>342.20000000000005</ele><time>2026-04-23T14:15:54.999Z</time></trkpt><trkpt lat="40.77828157008421" lon="17.41948592188076"><ele>344.8</ele><time>2026-04-23T14:15:56.999Z</time></trkpt><trkpt lat="40.77823334979938" lon="17.419585187830577"><ele>347.4</ele><time>2026-04-23T14:15:58.999Z</time></trkpt><trkpt lat="40.77817801424168" lon="17.419692877203143"><ele>350.0</ele><time>2026-04-23T14:16:00.999Z</time></trkpt><trkpt lat="40.77812740976483" lon="17.419797841568457"><ele>350.0</ele><time>2026-04-23T14:16:02.999Z</time></trkpt><trkpt lat="40.77806896041246" lon="17.419912487827766"><ele>350.0</ele><time>2026-04-23T14:16:04.999Z</time></trkpt><trkpt lat="40.778033086171924" lon="17.420026101714075"><ele>350.0</ele><time>2026-04-23T14:16:06.999Z</time></trkpt><trkpt lat="40.777986033302696" lon="17.42014145175995"><ele>350.0</ele><time>2026-04-23T14:16:08.999Z</time></trkpt><trkpt lat="40.77795138056853" lon="17.42026943363477"><ele>350.0</ele><time>2026-04-23T14:16:10.999Z</time></trkpt><trkpt lat="40.777918129613866" lon="17.42040804168004"><ele>348.1666666666667</ele><time>2026-04-23T14:16:12.999Z</time></trkpt><trkpt lat="40.777889792962526" lon="17.42050937056031"><ele>346.33333333333337</ele><time>2026-04-23T14:16:14.999Z</time></trkpt><trkpt lat="40.77786585203521" lon="17.42059820329415"><ele>344.5</ele><time>2026-04-23T14:16:16.999Z</time></trkpt><trkpt lat="40.777857002578784" lon="17.420687831334234"><ele>342.6666666666667</ele><time>2026-04-23T14:16:56.998Z</time></trkpt><trkpt lat="40.77780965099631" lon="17.420785237123294"><ele>340.8333333333333</ele><time>2026-04-23T14:16:59.998Z</time></trkpt><trkpt lat="40.77776840720686" lon="17.420893620942856"><ele>339.0</ele><time>2026-04-23T14:17:03Z</time></trkpt><trkpt lat="40.77773340706811" lon="17.42099834897126"><ele>339.0</ele><time>2026-04-23T14:17:06Z</time></trkpt><trkpt lat="40.77771871904627" lon="17.42108710856153"><ele>339.0</ele><time>2026-04-23T14:17:08Z</time></trkpt><trkpt lat="40.77768386701724" lon="17.42121505608364"><ele>339.0</ele><time>2026-04-23T14:17:11Z</time></trkpt><trkpt lat="40.77766418552265" lon="17.42131391580297"><ele>339.0</ele><time>2026-04-23T14:17:13Z</time></trkpt><trkpt lat="40.77764286280589" lon="17.421419895436333"><ele>339.0</ele><time>2026-04-23T14:17:15Z</time></trkpt><trkpt lat="40.77761646414894" lon="17.42152393377927"><ele>339.0</ele><time>2026-04-23T14:17:17Z</time></trkpt><trkpt lat="40.77759806577518" lon="17.421640071129648"><ele>342.1666666666667</ele><time>2026-04-23T14:17:19Z</time></trkpt><trkpt lat="40.77758642830847" lon="17.42178531277083"><ele>345.3333333333333</ele><time>2026-04-23T14:17:21Z</time></trkpt><trkpt lat="40.77758586272533" lon="17.4218692494602"><ele>348.5</ele><time>2026-04-23T14:17:22Z</time></trkpt><trkpt lat="40.777590855223" lon="17.42195903584609"><ele>351.66666666666663</ele><time>2026-04-23T14:17:23Z</time></trkpt><trkpt lat="40.77758721112885" lon="17.422042501786603"><ele>354.8333333333333</ele><time>2026-04-23T14:17:24Z</time></trkpt><trkpt lat="40.77758656024457" lon="17.42213125477392"><ele>358.0</ele><time>2026-04-23T14:17:25Z</time></trkpt><trkpt lat="40.777593580324755" lon="17.42228034060358"><ele>358.3333333333333</ele><time>2026-04-23T14:17:27Z</time></trkpt><trkpt lat="40.777592447790624" lon="17.42240175733489"><ele>358.66666666666663</ele><time>2026-04-23T14:17:29Z</time></trkpt><trkpt lat="40.77758546511443" lon="17.42253861705711"><ele>359.0</ele><time>2026-04-23T14:17:31Z</time></trkpt><trkpt lat="40.77756407311553" lon="17.42263680241316"><ele>359.3333333333333</ele><time>2026-04-23T14:17:33Z</time></trkpt><trkpt lat="40.77756939611986" lon="17.42274028054222"><ele>359.6666666666667</ele><time>2026-04-23T14:17:35Z</time></trkpt><trkpt lat="40.77756420937993" lon="17.42285289556088"><ele>360.0</ele><time>2026-04-23T14:17:37Z</time></trkpt><trkpt lat="40.77756320832174" lon="17.422965830183742"><ele>360.0</ele><time>2026-04-23T14:17:39Z</time></trkpt><trkpt lat="40.77755698089703" lon="17.423093711795865"><ele>360.0</ele><time>2026-04-23T14:17:41Z</time></trkpt><trkpt lat="40.77753783052044" lon="17.423224176371647"><ele>360.0</ele><time>2026-04-23T14:17:43Z</time></trkpt><trkpt lat="40.777529081322854" lon="17.42335369855497"><ele>360.0</ele><time>2026-04-23T14:17:44.999Z</time></trkpt><trkpt lat="40.777546105168454" lon="17.4234674619897"><ele>360.0</ele><time>2026-04-23T14:17:46.999Z</time></trkpt><trkpt lat="40.77749085475601" lon="17.423532410365837"><ele>360.0</ele><time>2026-04-23T14:17:49.999Z</time></trkpt><trkpt lat="40.77743214917676" lon="17.423493692194736"><ele>360.0</ele><time>2026-04-23T14:17:52.999Z</time></trkpt><trkpt lat="40.77736505473227" lon="17.423542087035724"><ele>360.0</ele><time>2026-04-23T14:17:54.999Z</time></trkpt><trkpt lat="40.77728165343571" lon="17.423573898813494"><ele>360.0</ele><time>2026-04-23T14:17:56.999Z</time></trkpt><trkpt lat="40.77726448007938" lon="17.423670372244292"><ele>360.0</ele><time>2026-04-23T14:17:58.999Z</time></trkpt><trkpt lat="40.77733798504115" lon="17.42370346737701"><ele>360.0</ele><time>2026-04-23T14:18:00.999Z</time></trkpt><trkpt lat="40.77740229796502" lon="17.423749093460614"><ele>359.8</ele><time>2026-04-23T14:18:02.999Z</time></trkpt><trkpt lat="40.77744488504439" lon="17.42391917400095"><ele>359.6</ele><time>2026-04-23T14:18:04.999Z</time></trkpt><trkpt lat="40.777451169193654" lon="17.424037996254498"><ele>359.4</ele><time>2026-04-23T14:18:06.999Z</time></trkpt><trkpt lat="40.77748376936103" lon="17.424158657221863"><ele>359.2</ele><time>2026-04-23T14:18:08.999Z</time></trkpt><trkpt lat="40.777497912023016" lon="17.42424255137104"><ele>359.0</ele><time>2026-04-23T14:18:09.999Z</time></trkpt><trkpt lat="40.77746962024844" lon="17.424325921112704"><ele>359.0</ele><time>2026-04-23T14:18:10.999Z</time></trkpt><trkpt lat="40.777426167007505" lon="17.424389289290083"><ele>359.0</ele><time>2026-04-23T14:18:11.999Z</time></trkpt><trkpt lat="40.77739917857862" lon="17.424467447794466"><ele>359.0</ele><time>2026-04-23T14:18:13.999Z</time></trkpt><trkpt lat="40.77762428023964" lon="17.424486094408493"><ele>359.0</ele><time>2026-04-23T14:18:23.999Z</time></trkpt><trkpt lat="40.77768691481235" lon="17.4245735297757"><ele>359.0</ele><time>2026-04-23T14:18:26.999Z</time></trkpt><trkpt lat="40.777721615513" lon="17.42469423630844"><ele>358.1666666666667</ele><time>2026-04-23T14:18:28.999Z</time></trkpt><trkpt lat="40.77776664402278" lon="17.424784383722816"><ele>357.33333333333337</ele><time>2026-04-23T14:18:30.999Z</time></trkpt><trkpt lat="40.77776707516114" lon="17.42489606397196"><ele>356.5</ele><time>2026-04-23T14:18:33.999Z</time></trkpt><trkpt lat="40.777775865967136" lon="17.42500613245729"><ele>355.6666666666667</ele><time>2026-04-23T14:18:35.999Z</time></trkpt><trkpt lat="40.77776664711077" lon="17.425117985885773"><ele>354.8333333333333</ele><time>2026-04-23T14:18:37.998Z</time></trkpt><trkpt lat="40.77776389977109" lon="17.42520626014217"><ele>354.0</ele><time>2026-04-23T14:18:39.998Z</time></trkpt><trkpt lat="40.777715925891435" lon="17.425321540294103"><ele>353.6666666666667</ele><time>2026-04-23T14:18:42.998Z</time></trkpt><trkpt lat="40.777624988216154" lon="17.425326298181055"><ele>353.3333333333333</ele><time>2026-04-23T14:18:45.998Z</time></trkpt><trkpt lat="40.77756589416849" lon="17.425281620820538"><ele>353.0</ele><time>2026-04-23T14:18:47.998Z</time></trkpt><trkpt lat="40.77750347518416" lon="17.425379093208857"><ele>352.66666666666663</ele><time>2026-04-23T14:18:51.998Z</time></trkpt><trkpt lat="40.77742576341842" lon="17.42544699829493"><ele>352.3333333333333</ele><time>2026-04-23T14:18:54.998Z</time></trkpt><trkpt lat="40.77737595172473" lon="17.42552315860414"><ele>352.0</ele><time>2026-04-23T14:18:56.998Z</time></trkpt><trkpt lat="40.77731911471667" lon="17.425575566707984"><ele>352.8333333333333</ele><time>2026-04-23T14:18:58.998Z</time></trkpt><trkpt lat="40.77722525456159" lon="17.42559014708902"><ele>353.66666666666663</ele><time>2026-04-23T14:19:01.998Z</time></trkpt><trkpt lat="40.77716204725283" lon="17.425640281348596"><ele>354.5</ele><time>2026-04-23T14:19:03.998Z</time></trkpt><trkpt lat="40.77708020684456" lon="17.42565244338929"><ele>355.3333333333333</ele><time>2026-04-23T14:19:05.998Z</time></trkpt><trkpt lat="40.77701712877689" lon="17.425634902838425"><ele>356.1666666666667</ele><time>2026-04-23T14:19:08Z</time></trkpt><trkpt lat="40.77693654636767" lon="17.42560493193274"><ele>357.0</ele><time>2026-04-23T14:19:11Z</time></trkpt><trkpt lat="40.77686751791936" lon="17.42560542887418"><ele>356.5</ele><time>2026-04-23T14:19:14Z</time></trkpt><trkpt lat="40.77682213992236" lon="17.425729303387087"><ele>356.0</ele><time>2026-04-23T14:19:17Z</time></trkpt><trkpt lat="40.77678359748693" lon="17.425797699248136"><ele>355.5</ele><time>2026-04-23T14:19:19Z</time></trkpt><trkpt lat="40.77674339663962" lon="17.42588861150251"><ele>355.0</ele><time>2026-04-23T14:19:22Z</time></trkpt><trkpt lat="40.776718848920225" lon="17.425999930697703"><ele>354.5</ele><time>2026-04-23T14:19:25Z</time></trkpt><trkpt lat="40.77666943668754" lon="17.4260755474467"><ele>354.0</ele><time>2026-04-23T14:19:28Z</time></trkpt><trkpt lat="40.7766275799408" lon="17.426177090568398"><ele>354.0</ele><time>2026-04-23T14:19:31Z</time></trkpt><trkpt lat="40.77655316756138" lon="17.426190725115443"><ele>354.0</ele><time>2026-04-23T14:19:34Z</time></trkpt><trkpt lat="40.776441874609304" lon="17.426158328812257"><ele>354.0</ele><time>2026-04-23T14:19:38Z</time></trkpt><trkpt lat="40.776380899860776" lon="17.426076847059242"><ele>354.0</ele><time>2026-04-23T14:19:41Z</time></trkpt><trkpt lat="40.77631554976312" lon="17.42603689537576"><ele>354.0</ele><time>2026-04-23T14:19:43Z</time></trkpt><trkpt lat="40.77625968878604" lon="17.425958171860124"><ele>354.0</ele><time>2026-04-23T14:19:46Z</time></trkpt><trkpt lat="40.77615673106796" lon="17.425927345566723"><ele>354.0</ele><time>2026-04-23T14:19:48Z</time></trkpt><trkpt lat="40.77607780208086" lon="17.425972061780662"><ele>354.0</ele><time>2026-04-23T14:19:49.999Z</time></trkpt><trkpt lat="40.776012376875414" lon="17.425972008003487"><ele>354.0</ele><time>2026-04-23T14:19:51.999Z</time></trkpt><trkpt lat="40.775954620607344" lon="17.425886812193045"><ele>354.0</ele><time>2026-04-23T14:19:54.999Z</time></trkpt><trkpt lat="40.77587551107463" lon="17.4258601862426"><ele>354.0</ele><time>2026-04-23T14:19:56.999Z</time></trkpt><trkpt lat="40.7758297447632" lon="17.42579580887996"><ele>354.0</ele><time>2026-04-23T14:19:58.999Z</time></trkpt><trkpt lat="40.77576424018921" lon="17.425807144617103"><ele>355.0</ele><time>2026-04-23T14:20:00.999Z</time></trkpt><trkpt lat="40.7756820014887" lon="17.425788530403977"><ele>356.0</ele><time>2026-04-23T14:20:02.999Z</time></trkpt><trkpt lat="40.77561232186263" lon="17.425760446716186"><ele>357.0</ele><time>2026-04-23T14:20:04.999Z</time></trkpt><trkpt lat="40.77557269417653" lon="17.425843449362144"><ele>358.0</ele><time>2026-04-23T14:20:06.999Z</time></trkpt><trkpt lat="40.77559863560213" lon="17.42593168068065"><ele>359.0</ele><time>2026-04-23T14:20:08.999Z</time></trkpt><trkpt lat="40.77563896282398" lon="17.42602745915105"><ele>360.0</ele><time>2026-04-23T14:20:12.999Z</time></trkpt><trkpt lat="40.77558703062714" lon="17.42612267606051"><ele>360.0</ele><time>2026-04-23T14:20:14.999Z</time></trkpt><trkpt lat="40.7755251690644" lon="17.426203291462723"><ele>360.0</ele><time>2026-04-23T14:20:16.999Z</time></trkpt><trkpt lat="40.77547018123358" lon="17.426301929403575"><ele>360.0</ele><time>2026-04-23T14:20:18.999Z</time></trkpt><trkpt lat="40.7754091650751" lon="17.42638749944409"><ele>360.0</ele><time>2026-04-23T14:20:20.999Z</time></trkpt><trkpt lat="40.775397954241036" lon="17.426521519877824"><ele>360.0</ele><time>2026-04-23T14:20:22.999Z</time></trkpt><trkpt lat="40.775355401783905" lon="17.426634680886178"><ele>360.8333333333333</ele><time>2026-04-23T14:20:24.999Z</time></trkpt><trkpt lat="40.77528268452789" lon="17.426640040003353"><ele>361.6666666666667</ele><time>2026-04-23T14:20:26.999Z</time></trkpt><trkpt lat="40.775207207849576" lon="17.426715036775118"><ele>362.5</ele><time>2026-04-23T14:20:29.999Z</time></trkpt><trkpt lat="40.77513569371491" lon="17.426802703121666"><ele>363.33333333333337</ele><time>2026-04-23T14:20:31.999Z</time></trkpt><trkpt lat="40.77505257879205" lon="17.426857925551072"><ele>364.1666666666667</ele><time>2026-04-23T14:20:33.999Z</time></trkpt><trkpt lat="40.77500036733372" lon="17.426918646814404"><ele>365.0</ele><time>2026-04-23T14:20:35.999Z</time></trkpt><trkpt lat="40.77493451029493" lon="17.4269749659553"><ele>365.0</ele><time>2026-04-23T14:20:38.999Z</time></trkpt><trkpt lat="40.7748610544973" lon="17.427048954623565"><ele>365.0</ele><time>2026-04-23T14:20:40.999Z</time></trkpt><trkpt lat="40.774808905673325" lon="17.427133491525993"><ele>365.0</ele><time>2026-04-23T14:20:42.998Z</time></trkpt><trkpt lat="40.77474930060265" lon="17.427214320611654"><ele>365.0</ele><time>2026-04-23T14:20:44.998Z</time></trkpt><trkpt lat="40.77469366366682" lon="17.42732570055568"><ele>365.0</ele><time>2026-04-23T14:20:47.998Z</time></trkpt><trkpt lat="40.77462848880657" lon="17.42740934212968"><ele>365.0</ele><time>2026-04-23T14:20:49.998Z</time></trkpt><trkpt lat="40.774575781648615" lon="17.42747983742037"><ele>365.0</ele><time>2026-04-23T14:20:51.998Z</time></trkpt><trkpt lat="40.77450081553193" lon="17.427557978229277"><ele>365.0</ele><time>2026-04-23T14:20:54.998Z</time></trkpt><trkpt lat="40.77443017536489" lon="17.427577725449183"><ele>365.0</ele><time>2026-04-23T14:20:57.998Z</time></trkpt><trkpt lat="40.77436506295329" lon="17.427632833314018"><ele>365.0</ele><time>2026-04-23T14:20:59.998Z</time></trkpt><trkpt lat="40.774301764037396" lon="17.427569752529724"><ele>365.0</ele><time>2026-04-23T14:21:02.998Z</time></trkpt><trkpt lat="40.774266980789996" lon="17.427463437055284"><ele>365.0</ele><time>2026-04-23T14:21:05.998Z</time></trkpt><trkpt lat="40.77427754197502" lon="17.427354238075427"><ele>365.0</ele><time>2026-04-23T14:21:07.998Z</time></trkpt><trkpt lat="40.774286921890905" lon="17.427206577139433"><ele>365.0</ele><time>2026-04-23T14:21:09.998Z</time></trkpt><trkpt lat="40.77429424279855" lon="17.42709560479056"><ele>365.0</ele><time>2026-04-23T14:21:11.998Z</time></trkpt><trkpt lat="40.7742328316378" lon="17.42713825646622"><ele>365.0</ele><time>2026-04-23T14:21:14Z</time></trkpt><trkpt lat="40.774102471845154" lon="17.427237850509957"><ele>365.0</ele><time>2026-04-23T14:21:16Z</time></trkpt><trkpt lat="40.77403833953393" lon="17.427295591167983"><ele>365.0</ele><time>2026-04-23T14:21:17Z</time></trkpt><trkpt lat="40.773983843935085" lon="17.427361199164068"><ele>365.0</ele><time>2026-04-23T14:21:18Z</time></trkpt><trkpt lat="40.77395142913211" lon="17.4275133113407"><ele>365.0</ele><time>2026-04-23T14:21:20Z</time></trkpt><trkpt lat="40.773942184110254" lon="17.42760164223321"><ele>365.0</ele><time>2026-04-23T14:21:22Z</time></trkpt><trkpt lat="40.773847837736746" lon="17.427591713934945"><ele>365.0</ele><time>2026-04-23T14:21:24Z</time></trkpt><trkpt lat="40.77376039755934" lon="17.427486688717323"><ele>365.0</ele><time>2026-04-23T14:21:26Z</time></trkpt><trkpt lat="40.773689724172996" lon="17.42745065284434"><ele>365.0</ele><time>2026-04-23T14:21:27Z</time></trkpt><trkpt lat="40.77359204734572" lon="17.427327197583743"><ele>365.0</ele><time>2026-04-23T14:21:29Z</time></trkpt><trkpt lat="40.77354751363778" lon="17.427264135374195"><ele>365.0</ele><time>2026-04-23T14:21:30Z</time></trkpt><trkpt lat="40.77349356238858" lon="17.427203208522524"><ele>365.0</ele><time>2026-04-23T14:21:31Z</time></trkpt><trkpt lat="40.773440419553026" lon="17.427146739030473"><ele>365.0</ele><time>2026-04-23T14:21:32Z</time></trkpt><trkpt lat="40.77338169665384" lon="17.427102165191652"><ele>363.0</ele><time>2026-04-23T14:21:33Z</time></trkpt><trkpt lat="40.773298403139066" lon="17.427009139990684"><ele>361.0</ele><time>2026-04-23T14:21:35Z</time></trkpt><trkpt lat="40.77319592612686" lon="17.42689810885942"><ele>359.0</ele><time>2026-04-23T14:21:37Z</time></trkpt><trkpt lat="40.77311367803746" lon="17.426882362618965"><ele>357.0</ele><time>2026-04-23T14:21:39Z</time></trkpt><trkpt lat="40.773075056638476" lon="17.426965241567174"><ele>355.0</ele><time>2026-04-23T14:21:41Z</time></trkpt><trkpt lat="40.772996582148416" lon="17.4270652782846"><ele>355.0</ele><time>2026-04-23T14:21:43Z</time></trkpt><trkpt lat="40.77293251049911" lon="17.427177399681042"><ele>355.0</ele><time>2026-04-23T14:21:45Z</time></trkpt><trkpt lat="40.772847678143464" lon="17.427282700412693"><ele>355.0</ele><time>2026-04-23T14:21:47Z</time></trkpt><trkpt lat="40.772779557688146" lon="17.42734916912018"><ele>355.0</ele><time>2026-04-23T14:21:49Z</time></trkpt><trkpt lat="40.77272084094671" lon="17.427277003989282"><ele>355.0</ele><time>2026-04-23T14:21:50.999Z</time></trkpt><trkpt lat="40.7726210618614" lon="17.42716512173475"><ele>354.0</ele><time>2026-04-23T14:21:52.999Z</time></trkpt><trkpt lat="40.77257939971626" lon="17.427095762312405"><ele>353.0</ele><time>2026-04-23T14:21:53.999Z</time></trkpt><trkpt lat="40.77252810819619" lon="17.42701776296356"><ele>352.0</ele><time>2026-04-23T14:21:54.999Z</time></trkpt><trkpt lat="40.77248166540041" lon="17.426947442209972"><ele>351.0</ele><time>2026-04-23T14:21:55.999Z</time></trkpt><trkpt lat="40.77243944931027" lon="17.42688038029717"><ele>350.0</ele><time>2026-04-23T14:21:56.999Z</time></trkpt><trkpt lat="40.77233399490881" lon="17.42673643298536"><ele>349.0</ele><time>2026-04-23T14:21:58.999Z</time></trkpt><trkpt lat="40.77227831380636" lon="17.426658249760706"><ele>349.0</ele><time>2026-04-23T14:21:59.999Z</time></trkpt><trkpt lat="40.772219756497506" lon="17.426569298792288"><ele>349.0</ele><time>2026-04-23T14:22:00.999Z</time></trkpt><trkpt lat="40.77217584321074" lon="17.42648980606192"><ele>349.0</ele><time>2026-04-23T14:22:01.999Z</time></trkpt><trkpt lat="40.77212602498041" lon="17.426404129713667"><ele>349.0</ele><time>2026-04-23T14:22:03.999Z</time></trkpt><trkpt lat="40.772064975059095" lon="17.426429384390563"><ele>349.0</ele><time>2026-04-23T14:22:05.999Z</time></trkpt><trkpt lat="40.772001508470446" lon="17.426556248470327"><ele>349.0</ele><time>2026-04-23T14:22:07.999Z</time></trkpt><trkpt lat="40.77193454783095" lon="17.42666976555905"><ele>349.0</ele><time>2026-04-23T14:22:09.999Z</time></trkpt><trkpt lat="40.77187275368595" lon="17.426784156423295"><ele>349.0</ele><time>2026-04-23T14:22:11.999Z</time></trkpt><trkpt lat="40.77181345157943" lon="17.42684397854002"><ele>349.0</ele><time>2026-04-23T14:22:13.999Z</time></trkpt><trkpt lat="40.77174996136419" lon="17.42677495224144"><ele>349.0</ele><time>2026-04-23T14:22:15.999Z</time></trkpt><trkpt lat="40.77167983564277" lon="17.42664500960016"><ele>349.0</ele><time>2026-04-23T14:22:17.999Z</time></trkpt><trkpt lat="40.771622233533314" lon="17.426515744165304"><ele>349.16666666666663</ele><time>2026-04-23T14:22:19.999Z</time></trkpt><trkpt lat="40.77156775322844" lon="17.426405570079293"><ele>349.3333333333333</ele><time>2026-04-23T14:22:21.999Z</time></trkpt><trkpt lat="40.7714857461491" lon="17.426366395146797"><ele>349.5</ele><time>2026-04-23T14:22:23.999Z</time></trkpt><trkpt lat="40.77141424810354" lon="17.42631149339232"><ele>349.6666666666667</ele><time>2026-04-23T14:22:25.999Z</time></trkpt><trkpt lat="40.77137117880213" lon="17.426202154785813"><ele>349.83333333333337</ele><time>2026-04-23T14:22:28.999Z</time></trkpt><trkpt lat="40.771338955749435" lon="17.426115015097476"><ele>350.0</ele><time>2026-04-23T14:22:30.999Z</time></trkpt><trkpt lat="40.771312675095366" lon="17.426034349270534"><ele>350.0</ele><time>2026-04-23T14:22:32.999Z</time></trkpt><trkpt lat="40.77128518868491" lon="17.42594028674245"><ele>350.0</ele><time>2026-04-23T14:22:34.999Z</time></trkpt><trkpt lat="40.77126334568645" lon="17.425844058581383"><ele>350.0</ele><time>2026-04-23T14:22:36.999Z</time></trkpt><trkpt lat="40.77123470258624" lon="17.42573502801709"><ele>350.0</ele><time>2026-04-23T14:22:38.999Z</time></trkpt><trkpt lat="40.77120002455494" lon="17.425633572388783"><ele>350.0</ele><time>2026-04-23T14:22:40.999Z</time></trkpt><trkpt lat="40.77119283590787" lon="17.425540207675944"><ele>350.0</ele><time>2026-04-23T14:22:42.998Z</time></trkpt><trkpt lat="40.77118267478928" lon="17.42538016446805"><ele>350.1666666666667</ele><time>2026-04-23T14:22:45.998Z</time></trkpt><trkpt lat="40.77118594639898" lon="17.425291784888174"><ele>350.33333333333337</ele><time>2026-04-23T14:22:47.998Z</time></trkpt><trkpt lat="40.771187960438375" lon="17.425159317068324"><ele>350.5</ele><time>2026-04-23T14:22:49.998Z</time></trkpt><trkpt lat="40.771195116276786" lon="17.42505338050607"><ele>350.6666666666667</ele><time>2026-04-23T14:22:51.998Z</time></trkpt><trkpt lat="40.77118541463212" lon="17.424933021731132"><ele>350.8333333333333</ele><time>2026-04-23T14:22:53.998Z</time></trkpt><trkpt lat="40.771155572024306" lon="17.424812120140228"><ele>351.0</ele><time>2026-04-23T14:22:55.998Z</time></trkpt><trkpt lat="40.77111210946629" lon="17.42469242167251"><ele>351.4</ele><time>2026-04-23T14:22:57.998Z</time></trkpt><trkpt lat="40.771067394766284" lon="17.42456833317513"><ele>351.8</ele><time>2026-04-23T14:22:59.998Z</time></trkpt><trkpt lat="40.771003939738215" lon="17.42446306617969"><ele>352.2</ele><time>2026-04-23T14:23:01.998Z</time></trkpt><trkpt lat="40.77093451303538" lon="17.42439458681971"><ele>352.59999999999997</ele><time>2026-04-23T14:23:03.998Z</time></trkpt><trkpt lat="40.770847912883994" lon="17.42436043508116"><ele>353.0</ele><time>2026-04-23T14:23:05.998Z</time></trkpt><trkpt lat="40.77077275318249" lon="17.424317677146224"><ele>354.79999999999995</ele><time>2026-04-23T14:23:07.998Z</time></trkpt><trkpt lat="40.770696764930676" lon="17.42426378638022"><ele>356.6</ele><time>2026-04-23T14:23:09.998Z</time></trkpt><trkpt lat="40.77061569107493" lon="17.42420397148941"><ele>358.4</ele><time>2026-04-23T14:23:11.998Z</time></trkpt><trkpt lat="40.770530504317925" lon="17.424161014582513"><ele>360.20000000000005</ele><time>2026-04-23T14:23:13.998Z</time></trkpt><trkpt lat="40.77043910809548" lon="17.424136509738986"><ele>362.0</ele><time>2026-04-23T14:23:15.998Z</time></trkpt><trkpt lat="40.77034753503542" lon="17.42412579202012"><ele>362.0</ele><time>2026-04-23T14:23:17.998Z</time></trkpt><trkpt lat="40.77024603820754" lon="17.42412717236056"><ele>362.0</ele><time>2026-04-23T14:23:20Z</time></trkpt><trkpt lat="40.77015107081876" lon="17.424129298937657"><ele>362.0</ele><time>2026-04-23T14:23:22Z</time></trkpt><trkpt lat="40.770056851072766" lon="17.424157034516796"><ele>362.0</ele><time>2026-04-23T14:23:24Z</time></trkpt><trkpt lat="40.76995555172527" lon="17.424185107613532"><ele>362.0</ele><time>2026-04-23T14:23:26Z</time></trkpt><trkpt lat="40.769880570164574" lon="17.424204960823673"><ele>362.0</ele><time>2026-04-23T14:23:28Z</time></trkpt><trkpt lat="40.76981424433313" lon="17.42421661745791"><ele>362.0</ele><time>2026-04-23T14:23:30Z</time></trkpt><trkpt lat="40.76973528351605" lon="17.424221592448326"><ele>362.0</ele><time>2026-04-23T14:23:33Z</time></trkpt><trkpt lat="40.7697194517825" lon="17.424101779509716"><ele>362.0</ele><time>2026-04-23T14:23:36Z</time></trkpt><trkpt lat="40.76972179414546" lon="17.423963508604995"><ele>362.0</ele><time>2026-04-23T14:23:38Z</time></trkpt><trkpt lat="40.769718199692505" lon="17.423830924151087"><ele>362.0</ele><time>2026-04-23T14:23:40Z</time></trkpt><trkpt lat="40.76965770057088" lon="17.423723487663928"><ele>362.0</ele><time>2026-04-23T14:23:42Z</time></trkpt><trkpt lat="40.76961657884047" lon="17.42365797441392"><ele>362.0</ele><time>2026-04-23T14:23:43Z</time></trkpt><trkpt lat="40.769559084891974" lon="17.423508896224043"><ele>362.0</ele><time>2026-04-23T14:23:45Z</time></trkpt><trkpt lat="40.769526695799975" lon="17.423431262285895"><ele>362.0</ele><time>2026-04-23T14:23:46Z</time></trkpt><trkpt lat="40.76949675027704" lon="17.423354386815827"><ele>362.0</ele><time>2026-04-23T14:23:47Z</time></trkpt><trkpt lat="40.76946629624141" lon="17.423279072873587"><ele>362.0</ele><time>2026-04-23T14:23:48Z</time></trkpt><trkpt lat="40.76939778347155" lon="17.423137992017633"><ele>362.0</ele><time>2026-04-23T14:23:50Z</time></trkpt><trkpt lat="40.76936459923857" lon="17.42306648842854"><ele>362.0</ele><time>2026-04-23T14:23:51Z</time></trkpt><trkpt lat="40.76930614977952" lon="17.42291781544207"><ele>362.0</ele><time>2026-04-23T14:23:53Z</time></trkpt><trkpt lat="40.769277449225385" lon="17.422843696350018"><ele>362.0</ele><time>2026-04-23T14:23:54Z</time></trkpt><trkpt lat="40.76921313402892" lon="17.42270933006729"><ele>362.0</ele><time>2026-04-23T14:23:56Z</time></trkpt><trkpt lat="40.7691611536064" lon="17.422590971885416"><ele>362.20000000000005</ele><time>2026-04-23T14:23:58Z</time></trkpt><trkpt lat="40.76910303557076" lon="17.422466221091955"><ele>362.4</ele><time>2026-04-23T14:24:00Z</time></trkpt><trkpt lat="40.76904395699945" lon="17.422361989388186"><ele>362.6</ele><time>2026-04-23T14:24:02Z</time></trkpt><trkpt lat="40.76899247735365" lon="17.422246966026687"><ele>362.79999999999995</ele><time>2026-04-23T14:24:03.999Z</time></trkpt><trkpt lat="40.768938390815926" lon="17.422130524955186"><ele>363.0</ele><time>2026-04-23T14:24:05.999Z</time></trkpt><trkpt lat="40.768884052814485" lon="17.422010141500696"><ele>363.0</ele><time>2026-04-23T14:24:07.999Z</time></trkpt><trkpt lat="40.768829328493155" lon="17.421895507711316"><ele>363.0</ele><time>2026-04-23T14:24:09.999Z</time></trkpt><trkpt lat="40.76876987215233" lon="17.421777878902148"><ele>363.0</ele><time>2026-04-23T14:24:11.999Z</time></trkpt><trkpt lat="40.76871209175165" lon="17.421665267201277"><ele>363.0</ele><time>2026-04-23T14:24:13.999Z</time></trkpt><trkpt lat="40.76865017116272" lon="17.421545147960217"><ele>363.0</ele><time>2026-04-23T14:24:15.999Z</time></trkpt><trkpt lat="40.7685898280075" lon="17.421429469796884"><ele>363.5</ele><time>2026-04-23T14:24:17.999Z</time></trkpt><trkpt lat="40.76852330714797" lon="17.421313546221462"><ele>364.0</ele><time>2026-04-23T14:24:19.999Z</time></trkpt><trkpt lat="40.76848942104883" lon="17.421188134800467"><ele>364.5</ele><time>2026-04-23T14:24:21.999Z</time></trkpt><trkpt lat="40.76847848829032" lon="17.421085453156586"><ele>365.0</ele><time>2026-04-23T14:24:23.999Z</time></trkpt><trkpt lat="40.768451728455716" lon="17.42099739849659"><ele>365.5</ele><time>2026-04-23T14:24:25.999Z</time></trkpt><trkpt lat="40.76843246650463" lon="17.42090528523122"><ele>366.0</ele><time>2026-04-23T14:24:27.999Z</time></trkpt><trkpt lat="40.76841274292951" lon="17.42081612242664"><ele>366.0</ele><time>2026-04-23T14:24:29.999Z</time></trkpt><trkpt lat="40.768376038684" lon="17.420729333952817"><ele>366.0</ele><time>2026-04-23T14:24:31.999Z</time></trkpt><trkpt lat="40.7683188801811" lon="17.42062141125489"><ele>366.0</ele><time>2026-04-23T14:24:33.999Z</time></trkpt><trkpt lat="40.7682369826819" lon="17.420530942844913"><ele>366.0</ele><time>2026-04-23T14:24:35.999Z</time></trkpt><trkpt lat="40.768128778815516" lon="17.420472804947718"><ele>366.0</ele><time>2026-04-23T14:24:37.999Z</time></trkpt><trkpt lat="40.76806519875689" lon="17.420449188278457"><ele>366.0</ele><time>2026-04-23T14:24:38.999Z</time></trkpt><trkpt lat="40.76800164943725" lon="17.42042187343175"><ele>366.0</ele><time>2026-04-23T14:24:39.999Z</time></trkpt><trkpt lat="40.76793228625284" lon="17.420395679324237"><ele>366.0</ele><time>2026-04-23T14:24:40.999Z</time></trkpt><trkpt lat="40.76785130362606" lon="17.42037352671636"><ele>366.0</ele><time>2026-04-23T14:24:41.999Z</time></trkpt><trkpt lat="40.76778138140471" lon="17.420331528912993"><ele>366.0</ele><time>2026-04-23T14:24:42.999Z</time></trkpt><trkpt lat="40.76768786647171" lon="17.420299085507732"><ele>366.0</ele><time>2026-04-23T14:24:43.999Z</time></trkpt><trkpt lat="40.767594717857186" lon="17.420260505600638"><ele>364.20000000000005</ele><time>2026-04-23T14:24:44.999Z</time></trkpt><trkpt lat="40.76749765013976" lon="17.42022617476712"><ele>362.40000000000003</ele><time>2026-04-23T14:24:45.999Z</time></trkpt><trkpt lat="40.767389544428994" lon="17.420211203511833"><ele>360.6</ele><time>2026-04-23T14:24:46.999Z</time></trkpt><trkpt lat="40.76727910735211" lon="17.4201874096225"><ele>358.8</ele><time>2026-04-23T14:24:47.999Z</time></trkpt><trkpt lat="40.767170537137126" lon="17.420172608225336"><ele>357.0</ele><time>2026-04-23T14:24:48.999Z</time></trkpt><trkpt lat="40.76706632238033" lon="17.42015694479604"><ele>357.0</ele><time>2026-04-23T14:24:49.999Z</time></trkpt><trkpt lat="40.76696995969527" lon="17.420128400622076"><ele>357.0</ele><time>2026-04-23T14:24:50.999Z</time></trkpt><trkpt lat="40.766875635948274" lon="17.420112414908886"><ele>357.0</ele><time>2026-04-23T14:24:51.999Z</time></trkpt><trkpt lat="40.76678512614041" lon="17.420094664155144"><ele>357.0</ele><time>2026-04-23T14:24:52.999Z</time></trkpt><trkpt lat="40.76669046109041" lon="17.420099460975873"><ele>357.0</ele><time>2026-04-23T14:24:53.999Z</time></trkpt><trkpt lat="40.76660358687911" lon="17.420087752744948"><ele>356.6</ele><time>2026-04-23T14:24:54.999Z</time></trkpt><trkpt lat="40.76653191624741" lon="17.420068849928626"><ele>356.20000000000005</ele><time>2026-04-23T14:24:55.999Z</time></trkpt><trkpt lat="40.76644290318073" lon="17.420088070909888"><ele>355.8</ele><time>2026-04-23T14:24:57.998Z</time></trkpt><trkpt lat="40.76634401025391" lon="17.42017833936995"><ele>355.4</ele><time>2026-04-23T14:24:59.998Z</time></trkpt><trkpt lat="40.76629273667104" lon="17.42023381230877"><ele>355.0</ele><time>2026-04-23T14:25:00.998Z</time></trkpt><trkpt lat="40.766211653018" lon="17.420350671038804"><ele>355.0</ele><time>2026-04-23T14:25:02.998Z</time></trkpt><trkpt lat="40.76612031566889" lon="17.420445449132078"><ele>355.0</ele><time>2026-04-23T14:25:04.998Z</time></trkpt><trkpt lat="40.76603124686613" lon="17.420541850609133"><ele>355.0</ele><time>2026-04-23T14:25:06.998Z</time></trkpt><trkpt lat="40.76594763563833" lon="17.420626634957298"><ele>355.0</ele><time>2026-04-23T14:25:08.998Z</time></trkpt><trkpt lat="40.76583384853991" lon="17.42068236869177"><ele>355.2</ele><time>2026-04-23T14:25:10.998Z</time></trkpt><trkpt lat="40.76574498932719" lon="17.420798108759172"><ele>355.4</ele><time>2026-04-23T14:25:12.998Z</time></trkpt><trkpt lat="40.76563613662803" lon="17.4208897340859"><ele>355.6</ele><time>2026-04-23T14:25:14.998Z</time></trkpt><trkpt lat="40.76553606968203" lon="17.420985152713182"><ele>355.8</ele><time>2026-04-23T14:25:16.998Z</time></trkpt><trkpt lat="40.765475200351624" lon="17.42103231995934"><ele>356.0</ele><time>2026-04-23T14:25:17.998Z</time></trkpt><trkpt lat="40.765417215162664" lon="17.421089955016363"><ele>355.99999999999994</ele><time>2026-04-23T14:25:18.998Z</time></trkpt><trkpt lat="40.76536561443913" lon="17.421143535648806"><ele>356.0</ele><time>2026-04-23T14:25:19.998Z</time></trkpt><trkpt lat="40.765294713556735" lon="17.421171153915708"><ele>356.0</ele><time>2026-04-23T14:25:20.998Z</time></trkpt><trkpt lat="40.765238563770836" lon="17.42123186552881"><ele>356.0</ele><time>2026-04-23T14:25:21.998Z</time></trkpt><trkpt lat="40.765184642379246" lon="17.421293069470167"><ele>356.0</ele><time>2026-04-23T14:25:22.998Z</time></trkpt><trkpt lat="40.765134515057866" lon="17.421351665188254"><ele>355.99999999999994</ele><time>2026-04-23T14:25:23.998Z</time></trkpt><trkpt lat="40.765084932666994" lon="17.421409621156105"><ele>356.0</ele><time>2026-04-23T14:25:24.998Z</time></trkpt><trkpt lat="40.7650346086891" lon="17.421470129806217"><ele>355.0</ele><time>2026-04-23T14:25:26Z</time></trkpt><trkpt lat="40.76493853573744" lon="17.42158475643795"><ele>354.0</ele><time>2026-04-23T14:25:28Z</time></trkpt><trkpt lat="40.76488804070698" lon="17.42164326244565"><ele>353.0</ele><time>2026-04-23T14:25:29Z</time></trkpt><trkpt lat="40.76483151802498" lon="17.42170230992215"><ele>352.0</ele><time>2026-04-23T14:25:30Z</time></trkpt><trkpt lat="40.76477269138515" lon="17.42175390344605"><ele>351.0</ele><time>2026-04-23T14:25:31Z</time></trkpt><trkpt lat="40.764704612114436" lon="17.421804693345347"><ele>350.0</ele><time>2026-04-23T14:25:32Z</time></trkpt><trkpt lat="40.76463483727745" lon="17.42185217627526"><ele>350.0</ele><time>2026-04-23T14:25:33Z</time></trkpt><trkpt lat="40.764552871847386" lon="17.421908494035236"><ele>350.0</ele><time>2026-04-23T14:25:34Z</time></trkpt><trkpt lat="40.76447466516253" lon="17.421965326413293"><ele>350.0</ele><time>2026-04-23T14:25:35Z</time></trkpt><trkpt lat="40.76440394325464" lon="17.42201979686494"><ele>350.0</ele><time>2026-04-23T14:25:36Z</time></trkpt><trkpt lat="40.76433030078618" lon="17.42207900127246"><ele>350.0</ele><time>2026-04-23T14:25:37Z</time></trkpt><trkpt lat="40.76426238832455" lon="17.422129056108464"><ele>350.0</ele><time>2026-04-23T14:25:38Z</time></trkpt><trkpt lat="40.76418228340021" lon="17.4221835373868"><ele>348.83333333333337</ele><time>2026-04-23T14:25:39Z</time></trkpt><trkpt lat="40.76410983446747" lon="17.422231061257982"><ele>347.6666666666667</ele><time>2026-04-23T14:25:40Z</time></trkpt><trkpt lat="40.76403604300655" lon="17.4222793863156"><ele>346.5</ele><time>2026-04-23T14:25:41Z</time></trkpt><trkpt lat="40.76396240932534" lon="17.422325679187043"><ele>345.3333333333333</ele><time>2026-04-23T14:25:42Z</time></trkpt><trkpt lat="40.76388711179089" lon="17.422373671233107"><ele>344.16666666666663</ele><time>2026-04-23T14:25:43Z</time></trkpt><trkpt lat="40.763815832404326" lon="17.422418852282604"><ele>343.0</ele><time>2026-04-23T14:25:44Z</time></trkpt><trkpt lat="40.763719955394656" lon="17.422462152237046"><ele>343.0</ele><time>2026-04-23T14:25:46Z</time></trkpt><trkpt lat="40.7636065016509" lon="17.42244563474031"><ele>343.0</ele><time>2026-04-23T14:25:48Z</time></trkpt><trkpt lat="40.76348395560324" lon="17.422423532925286"><ele>343.0</ele><time>2026-04-23T14:25:50Z</time></trkpt><trkpt lat="40.76337336642646" lon="17.422474736953937"><ele>343.0</ele><time>2026-04-23T14:25:52Z</time></trkpt><trkpt lat="40.763336616400785" lon="17.422544647416913"><ele>343.0</ele><time>2026-04-23T14:25:53Z</time></trkpt><trkpt lat="40.76331454538346" lon="17.42269320063943"><ele>342.8333333333333</ele><time>2026-04-23T14:25:55Z</time></trkpt><trkpt lat="40.763352057183475" lon="17.42282260870383"><ele>342.66666666666663</ele><time>2026-04-23T14:25:57Z</time></trkpt><trkpt lat="40.76340033080669" lon="17.422890677866437"><ele>342.5</ele><time>2026-04-23T14:25:58Z</time></trkpt><trkpt lat="40.763452247913214" lon="17.422940794981702"><ele>342.3333333333333</ele><time>2026-04-23T14:25:59Z</time></trkpt><trkpt lat="40.76351864079762" lon="17.422961792686237"><ele>342.1666666666667</ele><time>2026-04-23T14:26:00Z</time></trkpt><trkpt lat="40.76363857012172" lon="17.422991191935203"><ele>342.0</ele><time>2026-04-23T14:26:02Z</time></trkpt><trkpt lat="40.76373497623327" lon="17.423069531452725"><ele>341.6</ele><time>2026-04-23T14:26:04Z</time></trkpt><trkpt lat="40.76381146982345" lon="17.423176471442364"><ele>341.20000000000005</ele><time>2026-04-23T14:26:06Z</time></trkpt><trkpt lat="40.76386722283271" lon="17.42330796473478"><ele>340.8</ele><time>2026-04-23T14:26:07.999Z</time></trkpt><trkpt lat="40.76389768427233" lon="17.423464226795012"><ele>340.4</ele><time>2026-04-23T14:26:09.999Z</time></trkpt><trkpt lat="40.76389993850156" lon="17.423554615492915"><ele>340.0</ele><time>2026-04-23T14:26:10.999Z</time></trkpt><trkpt lat="40.763905947368784" lon="17.423687869454998"><ele>340.0</ele><time>2026-04-23T14:26:12.999Z</time></trkpt><trkpt lat="40.76390124050184" lon="17.423801103654828"><ele>340.0</ele><time>2026-04-23T14:26:14.999Z</time></trkpt><trkpt lat="40.76391146517367" lon="17.423921123302044"><ele>340.0</ele><time>2026-04-23T14:26:16.999Z</time></trkpt><trkpt lat="40.76391388263091" lon="17.42402280936679"><ele>340.0</ele><time>2026-04-23T14:26:18.999Z</time></trkpt><trkpt lat="40.76391413788689" lon="17.424128871305392"><ele>340.0</ele><time>2026-04-23T14:26:20.999Z</time></trkpt><trkpt lat="40.76392819458285" lon="17.42424428079474"><ele>340.0</ele><time>2026-04-23T14:26:22.999Z</time></trkpt><trkpt lat="40.76391566233765" lon="17.424365558448496"><ele>340.0</ele><time>2026-04-23T14:26:24.999Z</time></trkpt><trkpt lat="40.76392153927941" lon="17.424491069653865"><ele>340.0</ele><time>2026-04-23T14:26:26.999Z</time></trkpt><trkpt lat="40.763927662682384" lon="17.424617246692403"><ele>340.0</ele><time>2026-04-23T14:26:28.999Z</time></trkpt><trkpt lat="40.763933660396006" lon="17.424723611441326"><ele>340.0</ele><time>2026-04-23T14:26:30.999Z</time></trkpt><trkpt lat="40.763932750678464" lon="17.424835934905488"><ele>340.0</ele><time>2026-04-23T14:26:32.999Z</time></trkpt><trkpt lat="40.76392521759983" lon="17.42494543465029"><ele>340.0</ele><time>2026-04-23T14:26:34.999Z</time></trkpt><trkpt lat="40.763909694558315" lon="17.42504394864393"><ele>340.0</ele><time>2026-04-23T14:26:36.999Z</time></trkpt><trkpt lat="40.763915863002644" lon="17.425157842888048"><ele>340.0</ele><time>2026-04-23T14:26:38.999Z</time></trkpt><trkpt lat="40.763928646145956" lon="17.42527546420851"><ele>340.0</ele><time>2026-04-23T14:26:40.999Z</time></trkpt><trkpt lat="40.763940351953174" lon="17.42538446939872"><ele>340.0</ele><time>2026-04-23T14:26:42.999Z</time></trkpt><trkpt lat="40.76393703597279" lon="17.425490424634443"><ele>340.0</ele><time>2026-04-23T14:26:44.999Z</time></trkpt><trkpt lat="40.76393461027913" lon="17.42559675868966"><ele>340.0</ele><time>2026-04-23T14:26:46.999Z</time></trkpt><trkpt lat="40.76393775043194" lon="17.4257048461997"><ele>340.3333333333333</ele><time>2026-04-23T14:26:48.999Z</time></trkpt><trkpt lat="40.763930871954706" lon="17.425816066612782"><ele>340.66666666666663</ele><time>2026-04-23T14:26:50.999Z</time></trkpt><trkpt lat="40.763928464663465" lon="17.42592414033421"><ele>341.0</ele><time>2026-04-23T14:26:52.999Z</time></trkpt><trkpt lat="40.76391660237997" lon="17.42602818080785"><ele>341.3333333333333</ele><time>2026-04-23T14:26:54.999Z</time></trkpt><trkpt lat="40.76391280638189" lon="17.426143153222764"><ele>341.6666666666667</ele><time>2026-04-23T14:26:56.999Z</time></trkpt><trkpt lat="40.763913327581655" lon="17.426247634366632"><ele>342.0</ele><time>2026-04-23T14:26:58.998Z</time></trkpt><trkpt lat="40.76390456730111" lon="17.426343257132984"><ele>342.0</ele><time>2026-04-23T14:27:00.998Z</time></trkpt><trkpt lat="40.76390747455311" lon="17.426462985641663"><ele>342.0</ele><time>2026-04-23T14:27:02.998Z</time></trkpt><trkpt lat="40.763906674435475" lon="17.426591051489204"><ele>342.0</ele><time>2026-04-23T14:27:04.998Z</time></trkpt><trkpt lat="40.76389990928616" lon="17.426705590299182"><ele>342.0</ele><time>2026-04-23T14:27:06.998Z</time></trkpt><trkpt lat="40.763904130029985" lon="17.42681908440762"><ele>342.0</ele><time>2026-04-23T14:27:08.998Z</time></trkpt><trkpt lat="40.763911011384565" lon="17.42696973573953"><ele>342.0</ele><time>2026-04-23T14:27:10.998Z</time></trkpt><trkpt lat="40.76390820709747" lon="17.4270909371214"><ele>342.0</ele><time>2026-04-23T14:27:12.998Z</time></trkpt><trkpt lat="40.76391816890602" lon="17.427210214509902"><ele>342.0</ele><time>2026-04-23T14:27:14.998Z</time></trkpt><trkpt lat="40.763910072302224" lon="17.427336424532413"><ele>342.0</ele><time>2026-04-23T14:27:16.998Z</time></trkpt><trkpt lat="40.76390143218373" lon="17.42746136664503"><ele>342.0</ele><time>2026-04-23T14:27:18.998Z</time></trkpt><trkpt lat="40.76388570912344" lon="17.427541904777215"><ele>342.0</ele><time>2026-04-23T14:27:19.998Z</time></trkpt><trkpt lat="40.763864310595196" lon="17.427669787383092"><ele>341.6</ele><time>2026-04-23T14:27:21.998Z</time></trkpt><trkpt lat="40.76383431382694" lon="17.427835271810302"><ele>341.20000000000005</ele><time>2026-04-23T14:27:23.998Z</time></trkpt><trkpt lat="40.76382375301843" lon="17.42792110792491"><ele>340.8</ele><time>2026-04-23T14:27:24.998Z</time></trkpt><trkpt lat="40.76380940882366" lon="17.428090207732108"><ele>340.4</ele><time>2026-04-23T14:27:26.998Z</time></trkpt><trkpt lat="40.76379376965038" lon="17.428185992281282"><ele>340.0</ele><time>2026-04-23T14:27:27.998Z</time></trkpt><trkpt lat="40.76377876864438" lon="17.428269296536165"><ele>338.6</ele><time>2026-04-23T14:27:28.998Z</time></trkpt><trkpt lat="40.7637574575021" lon="17.428353459082558"><ele>337.2</ele><time>2026-04-23T14:27:29.998Z</time></trkpt><trkpt lat="40.76374351185537" lon="17.428523779933286"><ele>335.79999999999995</ele><time>2026-04-23T14:27:32Z</time></trkpt><trkpt lat="40.76371329245445" lon="17.428662545366826"><ele>334.4</ele><time>2026-04-23T14:27:34Z</time></trkpt><trkpt lat="40.76363521576214" lon="17.428689253541204"><ele>333.0</ele><time>2026-04-23T14:27:36Z</time></trkpt><trkpt lat="40.76357428959991" lon="17.428610199315468"><ele>335.79999999999995</ele><time>2026-04-23T14:27:38Z</time></trkpt><trkpt lat="40.76351084349109" lon="17.428521079220054"><ele>338.6</ele><time>2026-04-23T14:27:40Z</time></trkpt><trkpt lat="40.76343240412864" lon="17.42848174676297"><ele>341.4</ele><time>2026-04-23T14:27:42Z</time></trkpt><trkpt lat="40.76332770455277" lon="17.428544798736215"><ele>344.20000000000005</ele><time>2026-04-23T14:27:44Z</time></trkpt><trkpt lat="40.763248311626455" lon="17.428596647648195"><ele>347.0</ele><time>2026-04-23T14:27:46Z</time></trkpt><trkpt lat="40.76316407339757" lon="17.42865638290821"><ele>347.0</ele><time>2026-04-23T14:27:48Z</time></trkpt><trkpt lat="40.763061477831414" lon="17.4287112497886"><ele>347.0</ele><time>2026-04-23T14:27:50Z</time></trkpt><trkpt lat="40.76296581376485" lon="17.42874870177493"><ele>347.0</ele><time>2026-04-23T14:27:52Z</time></trkpt><trkpt lat="40.7628634425161" lon="17.428785918620445"><ele>347.0</ele><time>2026-04-23T14:27:54Z</time></trkpt><trkpt lat="40.76276518086298" lon="17.428784950081234"><ele>347.0</ele><time>2026-04-23T14:27:56Z</time></trkpt><trkpt lat="40.76268862477834" lon="17.42879115794796"><ele>347.5</ele><time>2026-04-23T14:27:58Z</time></trkpt><trkpt lat="40.76259113385966" lon="17.42881531081719"><ele>348.0</ele><time>2026-04-23T14:28:00Z</time></trkpt><trkpt lat="40.762498716309395" lon="17.428876669132094"><ele>348.5</ele><time>2026-04-23T14:28:02Z</time></trkpt><trkpt lat="40.7624472787007" lon="17.428944963746552"><ele>349.0</ele><time>2026-04-23T14:28:04Z</time></trkpt><trkpt lat="40.762375922020105" lon="17.42902531314303"><ele>349.5</ele><time>2026-04-23T14:28:06Z</time></trkpt><trkpt lat="40.7623187638435" lon="17.429095291975887"><ele>350.0</ele><time>2026-04-23T14:28:08Z</time></trkpt><trkpt lat="40.76225745380645" lon="17.429157803082095"><ele>350.0</ele><time>2026-04-23T14:28:10Z</time></trkpt><trkpt lat="40.762188674473414" lon="17.429219021841156"><ele>350.0</ele><time>2026-04-23T14:28:12.999Z</time></trkpt><trkpt lat="40.762141067232434" lon="17.429148955297045"><ele>350.0</ele><time>2026-04-23T14:28:14.999Z</time></trkpt><trkpt lat="40.76208855713795" lon="17.429043506497013"><ele>350.0</ele><time>2026-04-23T14:28:16.999Z</time></trkpt><trkpt lat="40.762030462404184" lon="17.428944110186322"><ele>350.0</ele><time>2026-04-23T14:28:18.999Z</time></trkpt><trkpt lat="40.761945314445455" lon="17.428897793724506"><ele>350.0</ele><time>2026-04-23T14:28:21.999Z</time></trkpt><trkpt lat="40.76185434388288" lon="17.4289631854934"><ele>349.5</ele><time>2026-04-23T14:28:23.999Z</time></trkpt><trkpt lat="40.76180556402963" lon="17.429042094487716"><ele>349.0</ele><time>2026-04-23T14:28:25.999Z</time></trkpt><trkpt lat="40.76175776370667" lon="17.42911911721619"><ele>348.5</ele><time>2026-04-23T14:28:27.999Z</time></trkpt><trkpt lat="40.76171086687497" lon="17.429197193544468"><ele>348.0</ele><time>2026-04-23T14:28:29.999Z</time></trkpt><trkpt lat="40.76166314959495" lon="17.42928545165025"><ele>347.5</ele><time>2026-04-23T14:28:31.999Z</time></trkpt><trkpt lat="40.76161646448211" lon="17.42936941010678"><ele>347.0</ele><time>2026-04-23T14:28:33.999Z</time></trkpt><trkpt lat="40.76156982249054" lon="17.429453924957702"><ele>347.0</ele><time>2026-04-23T14:28:35.999Z</time></trkpt><trkpt lat="40.761509274117095" lon="17.429546847312547"><ele>347.0</ele><time>2026-04-23T14:28:37.999Z</time></trkpt><trkpt lat="40.76145104086305" lon="17.42964224274202"><ele>347.0</ele><time>2026-04-23T14:28:39.999Z</time></trkpt><trkpt lat="40.761399252069396" lon="17.429730166148104"><ele>347.0</ele><time>2026-04-23T14:28:41.999Z</time></trkpt><trkpt lat="40.761353867463896" lon="17.42983060433501"><ele>347.0</ele><time>2026-04-23T14:28:43.999Z</time></trkpt><trkpt lat="40.76130709971021" lon="17.429928747420625"><ele>347.0</ele><time>2026-04-23T14:28:45.999Z</time></trkpt><trkpt lat="40.76125323627989" lon="17.430039633371116"><ele>347.20000000000005</ele><time>2026-04-23T14:28:47.999Z</time></trkpt><trkpt lat="40.7611900330436" lon="17.43014351917537"><ele>347.4</ele><time>2026-04-23T14:28:49.999Z</time></trkpt><trkpt lat="40.76114553088745" lon="17.4302057270821"><ele>347.6</ele><time>2026-04-23T14:28:50.999Z</time></trkpt><trkpt lat="40.76106475029475" lon="17.430311148387588"><ele>347.79999999999995</ele><time>2026-04-23T14:28:52.999Z</time></trkpt><trkpt lat="40.761007448376276" lon="17.430414137615134"><ele>348.0</ele><time>2026-04-23T14:28:54.999Z</time></trkpt><trkpt lat="40.76096394071155" lon="17.43049307412524"><ele>348.0</ele><time>2026-04-23T14:28:56.999Z</time></trkpt><trkpt lat="40.76092000888134" lon="17.43060554825168"><ele>348.0</ele><time>2026-04-23T14:28:59.999Z</time></trkpt><trkpt lat="40.760892125348626" lon="17.43072215790074"><ele>348.0</ele><time>2026-04-23T14:29:01.999Z</time></trkpt><trkpt lat="40.76088330776373" lon="17.43086115698438"><ele>348.0</ele><time>2026-04-23T14:29:03.998Z</time></trkpt><trkpt lat="40.76088244768906" lon="17.43100517965549"><ele>348.0</ele><time>2026-04-23T14:29:05.998Z</time></trkpt><trkpt lat="40.76088838760018" lon="17.43113089352462"><ele>348.0</ele><time>2026-04-23T14:29:07.998Z</time></trkpt><trkpt lat="40.76089137663391" lon="17.431251623076562"><ele>348.0</ele><time>2026-04-23T14:29:09.998Z</time></trkpt><trkpt lat="40.76086247478453" lon="17.4313331547646"><ele>348.0</ele><time>2026-04-23T14:29:11.998Z</time></trkpt><trkpt lat="40.760866743560825" lon="17.431438157519906"><ele>348.0</ele><time>2026-04-23T14:29:13.998Z</time></trkpt><trkpt lat="40.7608577021395" lon="17.431581190803456"><ele>348.0</ele><time>2026-04-23T14:29:15.998Z</time></trkpt><trkpt lat="40.760871564900214" lon="17.43166306982404"><ele>348.0</ele><time>2026-04-23T14:29:16.998Z</time></trkpt><trkpt lat="40.760891033896336" lon="17.43174330942356"><ele>347.8333333333333</ele><time>2026-04-23T14:29:17.998Z</time></trkpt><trkpt lat="40.76092152323927" lon="17.431902253093014"><ele>347.6666666666667</ele><time>2026-04-23T14:29:19.998Z</time></trkpt><trkpt lat="40.76093642980507" lon="17.431985616812945"><ele>347.5</ele><time>2026-04-23T14:29:20.998Z</time></trkpt><trkpt lat="40.760951899870854" lon="17.432067159791004"><ele>347.33333333333337</ele><time>2026-04-23T14:29:21.998Z</time></trkpt><trkpt lat="40.76097197152542" lon="17.4321471917846"><ele>347.1666666666667</ele><time>2026-04-23T14:29:22.998Z</time></trkpt><trkpt lat="40.76101948855784" lon="17.43228833298125"><ele>347.0</ele><time>2026-04-23T14:29:24.998Z</time></trkpt><trkpt lat="40.76107245234873" lon="17.43242415773608"><ele>346.25</ele><time>2026-04-23T14:29:26.998Z</time></trkpt><trkpt lat="40.76112788294504" lon="17.432568948244366"><ele>345.5</ele><time>2026-04-23T14:29:28.998Z</time></trkpt><trkpt lat="40.761194762779816" lon="17.432703478018407"><ele>344.75</ele><time>2026-04-23T14:29:30.998Z</time></trkpt><trkpt lat="40.7612634613466" lon="17.43284087917577"><ele>344.0</ele><time>2026-04-23T14:29:32.998Z</time></trkpt><trkpt lat="40.76135011076882" lon="17.432960292053934"><ele>344.4</ele><time>2026-04-23T14:29:34.998Z</time></trkpt><trkpt lat="40.761439643063845" lon="17.433073392183548"><ele>344.79999999999995</ele><time>2026-04-23T14:29:36.998Z</time></trkpt><trkpt lat="40.761487842730595" lon="17.433127283278438"><ele>345.20000000000005</ele><time>2026-04-23T14:29:38Z</time></trkpt><trkpt lat="40.76155921381262" lon="17.43321890538369"><ele>345.6</ele><time>2026-04-23T14:29:40Z</time></trkpt><trkpt lat="40.761645653472144" lon="17.43330801414304"><ele>346.0</ele><time>2026-04-23T14:29:42Z</time></trkpt><trkpt lat="40.761694391776985" lon="17.43336093808569"><ele>346.0</ele><time>2026-04-23T14:29:43Z</time></trkpt><trkpt lat="40.76174161298204" lon="17.433418532547098"><ele>346.0</ele><time>2026-04-23T14:29:44Z</time></trkpt><trkpt lat="40.76179682442034" lon="17.433478461286725"><ele>346.0</ele><time>2026-04-23T14:29:45Z</time></trkpt><trkpt lat="40.76187332403022" lon="17.433585327023778"><ele>346.0</ele><time>2026-04-23T14:29:47Z</time></trkpt><trkpt lat="40.76195712578219" lon="17.433688021229862"><ele>346.0</ele><time>2026-04-23T14:29:49Z</time></trkpt><trkpt lat="40.762048800975144" lon="17.43375792068841"><ele>345.20000000000005</ele><time>2026-04-23T14:29:51Z</time></trkpt><trkpt lat="40.76214682138536" lon="17.433852296543357"><ele>344.40000000000003</ele><time>2026-04-23T14:29:53Z</time></trkpt><trkpt lat="40.76221978434142" lon="17.4339785351388"><ele>343.6</ele><time>2026-04-23T14:29:55Z</time></trkpt><trkpt lat="40.762270187368124" lon="17.434041517949108"><ele>342.8</ele><time>2026-04-23T14:29:56Z</time></trkpt><trkpt lat="40.762328368739006" lon="17.434106558165396"><ele>342.0</ele><time>2026-04-23T14:29:57Z</time></trkpt><trkpt lat="40.76243227790564" lon="17.43421451740094"><ele>342.0</ele><time>2026-04-23T14:29:59Z</time></trkpt><trkpt lat="40.76250589528996" lon="17.43428746527421"><ele>342.0</ele><time>2026-04-23T14:30:01Z</time></trkpt><trkpt lat="40.7625865248932" lon="17.434400031767133"><ele>342.0</ele><time>2026-04-23T14:30:03Z</time></trkpt><trkpt lat="40.76266008633627" lon="17.43449936336767"><ele>342.0</ele><time>2026-04-23T14:30:05Z</time></trkpt><trkpt lat="40.76269631481249" lon="17.434600355865282"><ele>342.0</ele><time>2026-04-23T14:30:08Z</time></trkpt><trkpt lat="40.76276893734638" lon="17.434682492418336"><ele>339.8</ele><time>2026-04-23T14:30:11Z</time></trkpt><trkpt lat="40.76281308121302" lon="17.434838628398683"><ele>337.6</ele><time>2026-04-23T14:30:13Z</time></trkpt><trkpt lat="40.76284351384998" lon="17.434980869035012"><ele>335.40000000000003</ele><time>2026-04-23T14:30:15Z</time></trkpt><trkpt lat="40.76288975401697" lon="17.435053720276805"><ele>333.20000000000005</ele><time>2026-04-23T14:30:16Z</time></trkpt><trkpt lat="40.7629670449345" lon="17.435151477573267"><ele>331.0</ele><time>2026-04-23T14:30:18Z</time></trkpt><trkpt lat="40.763010071901405" lon="17.43525228595"><ele>331.0</ele><time>2026-04-23T14:30:19.999Z</time></trkpt><trkpt lat="40.76309989796064" lon="17.435292082066564"><ele>331.0</ele><time>2026-04-23T14:30:21.999Z</time></trkpt><trkpt lat="40.76313589347996" lon="17.435369449197637"><ele>331.0</ele><time>2026-04-23T14:30:23.999Z</time></trkpt><trkpt lat="40.763171874379154" lon="17.435467321731405"><ele>331.0</ele><time>2026-04-23T14:30:25.999Z</time></trkpt><trkpt lat="40.76320549342855" lon="17.435537623208884"><ele>331.0</ele><time>2026-04-23T14:30:26.999Z</time></trkpt><trkpt lat="40.7632794930583" lon="17.43560624409632"><ele>331.0</ele><time>2026-04-23T14:30:28.999Z</time></trkpt><trkpt lat="40.76334852989234" lon="17.435714000251537"><ele>331.5</ele><time>2026-04-23T14:30:30.999Z</time></trkpt><trkpt lat="40.763436125995334" lon="17.435822644132593"><ele>332.0</ele><time>2026-04-23T14:30:32.999Z</time></trkpt><trkpt lat="40.76347712165424" lon="17.43588654325938"><ele>332.5</ele><time>2026-04-23T14:30:33.999Z</time></trkpt><trkpt lat="40.76355826786437" lon="17.43596989004328"><ele>333.0</ele><time>2026-04-23T14:30:35.999Z</time></trkpt><trkpt lat="40.76360269063932" lon="17.4360728556046"><ele>333.5</ele><time>2026-04-23T14:30:37.999Z</time></trkpt><trkpt lat="40.76366264531112" lon="17.43611309214997"><ele>334.0</ele><time>2026-04-23T14:30:38.999Z</time></trkpt><trkpt lat="40.76374720578225" lon="17.43618329796964"><ele>332.0</ele><time>2026-04-23T14:30:40.999Z</time></trkpt><trkpt lat="40.763786474751754" lon="17.43629517618182"><ele>330.0</ele><time>2026-04-23T14:30:42.999Z</time></trkpt><trkpt lat="40.763853214661346" lon="17.43636682926476"><ele>328.0</ele><time>2026-04-23T14:30:43.999Z</time></trkpt><trkpt lat="40.76395536773696" lon="17.436456860241545"><ele>326.0</ele><time>2026-04-23T14:30:46.999Z</time></trkpt><trkpt lat="40.76401380196837" lon="17.43651487514811"><ele>324.0</ele><time>2026-04-23T14:30:47.999Z</time></trkpt><trkpt lat="40.76408201848201" lon="17.43657017361081"><ele>324.0</ele><time>2026-04-23T14:30:50.999Z</time></trkpt><trkpt lat="40.764174180048535" lon="17.436604812016707"><ele>324.0</ele><time>2026-04-23T14:32:40.999Z</time></trkpt><trkpt lat="40.76422394417065" lon="17.43669135098524"><ele>324.0</ele><time>2026-04-23T14:32:47.999Z</time></trkpt><trkpt lat="40.76427574003895" lon="17.436795304564818"><ele>324.0</ele><time>2026-04-23T14:32:49.999Z</time></trkpt><trkpt lat="40.76432640991964" lon="17.43689870509422"><ele>324.0</ele><time>2026-04-23T14:32:51.999Z</time></trkpt><trkpt lat="40.76433521487784" lon="17.43700821588753"><ele>324.0</ele><time>2026-04-23T14:32:53.999Z</time></trkpt><trkpt lat="40.76438784303222" lon="17.43706827103106"><ele>321.5</ele><time>2026-04-23T14:32:55.999Z</time></trkpt><trkpt lat="40.76443966693921" lon="17.43718787439402"><ele>319.0</ele><time>2026-04-23T14:32:58.999Z</time></trkpt><trkpt lat="40.76449061728044" lon="17.437259020180182"><ele>316.5</ele><time>2026-04-23T14:33:00.999Z</time></trkpt><trkpt lat="40.76455605479039" lon="17.437353491840227"><ele>314.0</ele><time>2026-04-23T14:33:03.999Z</time></trkpt><trkpt lat="40.76456227022685" lon="17.437460193599307"><ele>311.5</ele><time>2026-04-23T14:33:06.999Z</time></trkpt><trkpt lat="40.76451191560953" lon="17.437541623054056"><ele>309.0</ele><time>2026-04-23T14:33:08.999Z</time></trkpt><trkpt lat="40.764481635364056" lon="17.437637352265348"><ele>309.00000000000006</ele><time>2026-04-23T14:33:10.999Z</time></trkpt><trkpt lat="40.764504847187546" lon="17.43772499313983"><ele>309.0</ele><time>2026-04-23T14:33:12.999Z</time></trkpt><trkpt lat="40.76452861559455" lon="17.437836067474958"><ele>309.0</ele><time>2026-04-23T14:33:15.998Z</time></trkpt><trkpt lat="40.76449795756404" lon="17.437915693242203"><ele>309.0</ele><time>2026-04-23T14:33:17.998Z</time></trkpt><trkpt lat="40.76450255810899" lon="17.438010220983557"><ele>309.0</ele><time>2026-04-23T14:33:19.998Z</time></trkpt><trkpt lat="40.76453620823325" lon="17.43809511150849"><ele>309.00000000000006</ele><time>2026-04-23T14:33:21.998Z</time></trkpt><trkpt lat="40.7645413693261" lon="17.43819630186166"><ele>309.0</ele><time>2026-04-23T14:33:23.998Z</time></trkpt><trkpt lat="40.764520284791224" lon="17.438290114483664"><ele>308.3333333333333</ele><time>2026-04-23T14:33:25.998Z</time></trkpt><trkpt lat="40.76445586898394" lon="17.438365585778293"><ele>307.6666666666667</ele><time>2026-04-23T14:33:27.998Z</time></trkpt><trkpt lat="40.764436838647924" lon="17.438453350214903"><ele>307.0</ele><time>2026-04-23T14:33:30.998Z</time></trkpt><trkpt lat="40.764475317828925" lon="17.438542438335784"><ele>306.33333333333337</ele><time>2026-04-23T14:33:34.998Z</time></trkpt><trkpt lat="40.76450686505426" lon="17.43864531843846"><ele>305.6666666666667</ele><time>2026-04-23T14:33:38.998Z</time></trkpt><trkpt lat="40.76448928535034" lon="17.438750353871626"><ele>305.0</ele><time>2026-04-23T14:33:41.998Z</time></trkpt><trkpt lat="40.764511358564064" lon="17.43883677453376"><ele>304.42857142857144</ele><time>2026-04-23T14:33:44.998Z</time></trkpt><trkpt lat="40.7645538300099" lon="17.438903413680602"><ele>303.85714285714283</ele><time>2026-04-23T14:33:46.998Z</time></trkpt><trkpt lat="40.76455788488233" lon="17.438993419387792"><ele>303.2857142857143</ele><time>2026-04-23T14:33:48.998Z</time></trkpt><trkpt lat="40.76455499919053" lon="17.439085651613674"><ele>302.7142857142857</ele><time>2026-04-23T14:33:51Z</time></trkpt><trkpt lat="40.76458668518406" lon="17.439194019676865"><ele>302.1428571428571</ele><time>2026-04-23T14:33:54Z</time></trkpt><trkpt lat="40.764629970213754" lon="17.439266367056035"><ele>301.57142857142856</ele><time>2026-04-23T14:33:58Z</time></trkpt><trkpt lat="40.7646703987406" lon="17.43934736352909"><ele>301.0</ele><time>2026-04-23T14:34:01Z</time></trkpt><trkpt lat="40.76471791174833" lon="17.439417706141615"><ele>301.0</ele><time>2026-04-23T14:34:04Z</time></trkpt><trkpt lat="40.76475552980654" lon="17.439524286305616"><ele>301.0</ele><time>2026-04-23T14:34:07Z</time></trkpt><trkpt lat="40.764799762940264" lon="17.439615061594438"><ele>301.0</ele><time>2026-04-23T14:34:10Z</time></trkpt><trkpt lat="40.76483376642273" lon="17.439714666928754"><ele>301.0</ele><time>2026-04-23T14:34:13Z</time></trkpt><trkpt lat="40.764874722661474" lon="17.439785285632784"><ele>301.0</ele><time>2026-04-23T14:34:16Z</time></trkpt><trkpt lat="40.76489725626703" lon="17.43986364630531"><ele>301.0</ele><time>2026-04-23T14:34:20Z</time></trkpt><trkpt lat="40.7648964617596" lon="17.43995223507416"><ele>302.7142857142857</ele><time>2026-04-23T14:34:23Z</time></trkpt><trkpt lat="40.76495579196394" lon="17.439992075842923"><ele>304.42857142857144</ele><time>2026-04-23T14:34:35.999Z</time></trkpt><trkpt lat="40.76502931098909" lon="17.44004900638549"><ele>306.1428571428571</ele><time>2026-04-23T14:35:02.999Z</time></trkpt><trkpt lat="40.765078318836096" lon="17.440118790760557"><ele>307.8571428571429</ele><time>2026-04-23T14:35:05.999Z</time></trkpt><trkpt lat="40.76511259039756" lon="17.44020146042421"><ele>309.57142857142856</ele><time>2026-04-23T14:35:08.999Z</time></trkpt><trkpt lat="40.76515391133654" lon="17.440274732077285"><ele>311.2857142857143</ele><time>2026-04-23T14:35:10.999Z</time></trkpt><trkpt lat="40.76517983402574" lon="17.440355390361955"><ele>313.0</ele><time>2026-04-23T14:35:12.999Z</time></trkpt><trkpt lat="40.765204694213026" lon="17.440454918210712"><ele>310.3333333333333</ele><time>2026-04-23T14:35:14.999Z</time></trkpt><trkpt lat="40.765258440250356" lon="17.440538427217177"><ele>307.66666666666663</ele><time>2026-04-23T14:35:16.999Z</time></trkpt><trkpt lat="40.765279002768175" lon="17.44062984668204"><ele>305.0</ele><time>2026-04-23T14:35:18.999Z</time></trkpt><trkpt lat="40.76529722913567" lon="17.44071005915453"><ele>302.3333333333333</ele><time>2026-04-23T14:35:20.998Z</time></trkpt><trkpt lat="40.76530423435889" lon="17.440842800399484"><ele>299.6666666666667</ele><time>2026-04-23T14:35:23.998Z</time></trkpt><trkpt lat="40.765335784702664" lon="17.440925130129127"><ele>297.0</ele><time>2026-04-23T14:35:25.998Z</time></trkpt><trkpt lat="40.76536266103139" lon="17.441007375992548"><ele>297.0</ele><time>2026-04-23T14:35:28.998Z</time></trkpt><trkpt lat="40.765397899031704" lon="17.441091053071155"><ele>297.0</ele><time>2026-04-23T14:35:32.998Z</time></trkpt><trkpt lat="40.765420373711606" lon="17.44117138190612"><ele>297.0</ele><time>2026-04-23T14:35:35.998Z</time></trkpt><trkpt lat="40.765500013650495" lon="17.441220053050785"><ele>297.0</ele><time>2026-04-23T14:35:39.998Z</time></trkpt><trkpt lat="40.76561576763634" lon="17.441236575188917"><ele>297.0</ele><time>2026-04-23T14:35:43.998Z</time></trkpt><trkpt lat="40.765680977362244" lon="17.44127738423175"><ele>297.0</ele><time>2026-04-23T14:35:46.998Z</time></trkpt><trkpt lat="40.76574458853602" lon="17.441289401034105"><ele>297.0</ele><time>2026-04-23T14:35:48.998Z</time></trkpt><trkpt lat="40.76581451136599" lon="17.44127925019532"><ele>297.0</ele><time>2026-04-23T14:35:52.998Z</time></trkpt><trkpt lat="40.76586896057977" lon="17.441322654586283"><ele>297.0</ele><time>2026-04-23T14:35:56Z</time></trkpt><trkpt lat="40.765976337628075" lon="17.441381095692254"><ele>297.0</ele><time>2026-04-23T14:35:59Z</time></trkpt><trkpt lat="40.766107708670134" lon="17.441377094401904"><ele>297.0</ele><time>2026-04-23T14:36:03Z</time></trkpt><trkpt lat="40.7661673583839" lon="17.441423186774163"><ele>292.0</ele><time>2026-04-23T14:36:06Z</time></trkpt><trkpt lat="40.766221850404996" lon="17.441472018611485"><ele>287.0</ele><time>2026-04-23T14:36:08Z</time></trkpt><trkpt lat="40.76628569607207" lon="17.441516104338717"><ele>282.0</ele><time>2026-04-23T14:36:10Z</time></trkpt><trkpt lat="40.766361391854566" lon="17.441545433905876"><ele>277.0</ele><time>2026-04-23T14:36:12Z</time></trkpt><trkpt lat="40.766478538570446" lon="17.44153070477809"><ele>272.0</ele><time>2026-04-23T14:36:14Z</time></trkpt><trkpt lat="40.76656674512858" lon="17.441541287108272"><ele>267.0</ele><time>2026-04-23T14:36:16Z</time></trkpt><trkpt lat="40.766644205987575" lon="17.441584911394642"><ele>267.0</ele><time>2026-04-23T14:36:19Z</time></trkpt><trkpt lat="40.766712968679826" lon="17.441632914680532"><ele>267.0</ele><time>2026-04-23T14:36:21Z</time></trkpt><trkpt lat="40.76677579468744" lon="17.441645324489127"><ele>267.0</ele><time>2026-04-23T14:36:24Z</time></trkpt><trkpt lat="40.76686989409727" lon="17.441696527399845"><ele>267.0</ele><time>2026-04-23T14:36:27Z</time></trkpt><trkpt lat="40.766940755801926" lon="17.44171280905257"><ele>267.0</ele><time>2026-04-23T14:36:31Z</time></trkpt><trkpt lat="40.76701474912945" lon="17.441699978405335"><ele>267.0</ele><time>2026-04-23T14:36:35Z</time></trkpt><trkpt lat="40.767099012014626" lon="17.441697908974852"><ele>262.8333333333333</ele><time>2026-04-23T14:36:37.999Z</time></trkpt><trkpt lat="40.76717213759582" lon="17.441700259474565"><ele>258.6666666666667</ele><time>2026-04-23T14:36:41.999Z</time></trkpt><trkpt lat="40.767232531485966" lon="17.441763680950558"><ele>254.5</ele><time>2026-04-23T14:36:44.999Z</time></trkpt><trkpt lat="40.76730102324626" lon="17.44178559098802"><ele>250.33333333333334</ele><time>2026-04-23T14:36:47.999Z</time></trkpt><trkpt lat="40.767377763056906" lon="17.441807665291787"><ele>246.16666666666669</ele><time>2026-04-23T14:36:51.999Z</time></trkpt><trkpt lat="40.76742720302305" lon="17.44188691267737"><ele>242.0</ele><time>2026-04-23T14:36:54.999Z</time></trkpt><trkpt lat="40.76743729924622" lon="17.441985315099483"><ele>242.0</ele><time>2026-04-23T14:36:57.999Z</time></trkpt><trkpt lat="40.76745820871823" lon="17.442072139593563"><ele>241.99999999999997</ele><time>2026-04-23T14:37:00.999Z</time></trkpt><trkpt lat="40.76748985036268" lon="17.442159349010318"><ele>242.0</ele><time>2026-04-23T14:37:14.999Z</time></trkpt><trkpt lat="40.76746803082575" lon="17.442245569585904"><ele>242.0</ele><time>2026-04-23T14:37:17.999Z</time></trkpt><trkpt lat="40.76746385101335" lon="17.44234797862278"><ele>241.99999999999997</ele><time>2026-04-23T14:37:19.999Z</time></trkpt><trkpt lat="40.767437244239844" lon="17.442426398242674"><ele>242.0</ele><time>2026-04-23T14:37:21.999Z</time></trkpt><trkpt lat="40.767400346582654" lon="17.442501184704973"><ele>242.0</ele><time>2026-04-23T14:37:23.999Z</time></trkpt><trkpt lat="40.76738423636859" lon="17.44258283924857"><ele>240.66666666666669</ele><time>2026-04-23T14:37:25.999Z</time></trkpt><trkpt lat="40.76732088727827" lon="17.442617125619684"><ele>239.33333333333334</ele><time>2026-04-23T14:37:27.998Z</time></trkpt><trkpt lat="40.76726893112848" lon="17.442741860588303"><ele>238.0</ele><time>2026-04-23T14:37:31.998Z</time></trkpt><trkpt lat="40.76722874576243" lon="17.442812374921708"><ele>236.66666666666669</ele><time>2026-04-23T14:37:33.998Z</time></trkpt><trkpt lat="40.76714315760509" lon="17.44287830401645"><ele>235.33333333333334</ele><time>2026-04-23T14:37:36.998Z</time></trkpt><trkpt lat="40.76712279563289" lon="17.442967519393957"><ele>234.0</ele><time>2026-04-23T14:37:41.998Z</time></trkpt><trkpt lat="40.76712024371741" lon="17.4430658928874"><ele>234.42857142857144</ele><time>2026-04-23T14:37:45.998Z</time></trkpt><trkpt lat="40.76706161938087" lon="17.443126757365718"><ele>234.8571428571429</ele><time>2026-04-23T14:37:48.998Z</time></trkpt><trkpt lat="40.76700010770159" lon="17.44316827930922"><ele>235.28571428571428</ele><time>2026-04-23T14:37:52.998Z</time></trkpt><trkpt lat="40.766934117263496" lon="17.443201045922944"><ele>235.71428571428572</ele><time>2026-04-23T14:37:56.998Z</time></trkpt><trkpt lat="40.766891367137006" lon="17.443284535336723"><ele>236.14285714285714</ele><time>2026-04-23T14:37:59.998Z</time></trkpt><trkpt lat="40.7668041474969" lon="17.44329709199695"><ele>236.57142857142856</ele><time>2026-04-23T14:38:03Z</time></trkpt><trkpt lat="40.766740995535706" lon="17.443307021477285"><ele>236.99999999999997</ele><time>2026-04-23T14:38:06Z</time></trkpt><trkpt lat="40.76669006375945" lon="17.443384453859945"><ele>237.0</ele><time>2026-04-23T14:38:08Z</time></trkpt><trkpt lat="40.76664448041155" lon="17.44347241969552"><ele>237.0</ele><time>2026-04-23T14:38:11Z</time></trkpt><trkpt lat="40.76658892334207" lon="17.443564531192084"><ele>237.0</ele><time>2026-04-23T14:38:14Z</time></trkpt><trkpt lat="40.76651968025701" lon="17.443644237618468"><ele>237.0</ele><time>2026-04-23T14:38:17Z</time></trkpt><trkpt lat="40.766464924320296" lon="17.44371040421579"><ele>237.0</ele><time>2026-04-23T14:38:20Z</time></trkpt><trkpt lat="40.76643377256988" lon="17.44380182503809"><ele>237.0</ele><time>2026-04-23T14:38:24Z</time></trkpt><trkpt lat="40.76638089798974" lon="17.4438477742516"><ele>234.33333333333334</ele><time>2026-04-23T14:38:26Z</time></trkpt><trkpt lat="40.76633026936857" lon="17.44391119318399"><ele>231.66666666666669</ele><time>2026-04-23T14:38:29Z</time></trkpt><trkpt lat="40.76628187158443" lon="17.44399966386963"><ele>229.0</ele><time>2026-04-23T14:38:32Z</time></trkpt><trkpt lat="40.76624764215303" lon="17.444099193581803"><ele>226.33333333333334</ele><time>2026-04-23T14:38:35Z</time></trkpt><trkpt lat="40.76618980565866" lon="17.444174171350006"><ele>223.66666666666669</ele><time>2026-04-23T14:38:38Z</time></trkpt><trkpt lat="40.76614562909991" lon="17.444294547297517"><ele>221.0</ele><time>2026-04-23T14:38:40.999Z</time></trkpt><trkpt lat="40.76611474378766" lon="17.4443773021296"><ele>221.00000000000003</ele><time>2026-04-23T14:38:42.999Z</time></trkpt><trkpt lat="40.76607808770671" lon="17.4444605807773"><ele>221.0</ele><time>2026-04-23T14:38:44.999Z</time></trkpt><trkpt lat="40.76602589411103" lon="17.444566279257323"><ele>221.0</ele><time>2026-04-23T14:38:47.999Z</time></trkpt><trkpt lat="40.765988348125724" lon="17.444649669708777"><ele>221.0</ele><time>2026-04-23T14:38:49.999Z</time></trkpt><trkpt lat="40.765944354434595" lon="17.44474958335204"><ele>221.00000000000003</ele><time>2026-04-23T14:38:51.999Z</time></trkpt><trkpt lat="40.76589557773355" lon="17.444828382641173"><ele>221.0</ele><time>2026-04-23T14:38:53.999Z</time></trkpt><trkpt lat="40.76586032577242" lon="17.444937243452667"><ele>223.16666666666669</ele><time>2026-04-23T14:38:55.999Z</time></trkpt><trkpt lat="40.76580114014837" lon="17.445015427274516"><ele>225.33333333333334</ele><time>2026-04-23T14:38:57.999Z</time></trkpt><trkpt lat="40.76576306340443" lon="17.44509019388487"><ele>227.5</ele><time>2026-04-23T14:38:59.999Z</time></trkpt><trkpt lat="40.765718593163825" lon="17.445161792335874"><ele>229.66666666666669</ele><time>2026-04-23T14:39:01.999Z</time></trkpt><trkpt lat="40.76566981797993" lon="17.445235442572834"><ele>231.83333333333334</ele><time>2026-04-23T14:39:03.999Z</time></trkpt><trkpt lat="40.76561663359221" lon="17.445331500556023"><ele>234.0</ele><time>2026-04-23T14:39:06.999Z</time></trkpt><trkpt lat="40.76558122067599" lon="17.445408553306684"><ele>231.83333333333334</ele><time>2026-04-23T14:39:07.999Z</time></trkpt><trkpt lat="40.765538013519546" lon="17.445510089759402"><ele>229.66666666666669</ele><time>2026-04-23T14:39:10.999Z</time></trkpt><trkpt lat="40.76549700832904" lon="17.44559721081464"><ele>227.5</ele><time>2026-04-23T14:39:12.999Z</time></trkpt><trkpt lat="40.76545764515563" lon="17.44567450876472"><ele>225.33333333333334</ele><time>2026-04-23T14:39:14.999Z</time></trkpt><trkpt lat="40.76542462810051" lon="17.44575895767029"><ele>223.16666666666669</ele><time>2026-04-23T14:39:16.999Z</time></trkpt><trkpt lat="40.76538377649749" lon="17.445828504715962"><ele>221.0</ele><time>2026-04-23T14:39:18.999Z</time></trkpt><trkpt lat="40.765339652214905" lon="17.445911733537717"><ele>221.00000000000003</ele><time>2026-04-23T14:39:20.999Z</time></trkpt><trkpt lat="40.76529741488958" lon="17.44597572523766"><ele>221.0</ele><time>2026-04-23T14:39:22.999Z</time></trkpt><trkpt lat="40.76525159965364" lon="17.446036059112906"><ele>221.0</ele><time>2026-04-23T14:39:24.999Z</time></trkpt><trkpt lat="40.76520492785286" lon="17.446093142135496"><ele>221.0</ele><time>2026-04-23T14:39:26.999Z</time></trkpt><trkpt lat="40.765163817152" lon="17.446156818224214"><ele>221.0</ele><time>2026-04-23T14:39:28.999Z</time></trkpt><trkpt lat="40.765092867515826" lon="17.446247345677055"><ele>221.00000000000003</ele><time>2026-04-23T14:39:31.998Z</time></trkpt><trkpt lat="40.76503104908029" lon="17.44633394492683"><ele>221.0</ele><time>2026-04-23T14:39:33.998Z</time></trkpt><trkpt lat="40.76497415297641" lon="17.446410733366843"><ele>224.33333333333334</ele><time>2026-04-23T14:39:35.998Z</time></trkpt><trkpt lat="40.76492493894844" lon="17.44647926993215"><ele>227.66666666666669</ele><time>2026-04-23T14:39:37.998Z</time></trkpt><trkpt lat="40.76487835009691" lon="17.44653818437973"><ele>231.0</ele><time>2026-04-23T14:39:39.998Z</time></trkpt><trkpt lat="40.76480314819653" lon="17.446615661855684"><ele>234.33333333333331</ele><time>2026-04-23T14:39:42.998Z</time></trkpt><trkpt lat="40.764738288573746" lon="17.4466860787145"><ele>237.66666666666666</ele><time>2026-04-23T14:39:44.998Z</time></trkpt><trkpt lat="40.76466661587603" lon="17.446752653492283"><ele>241.0</ele><time>2026-04-23T14:39:46.998Z</time></trkpt><trkpt lat="40.76461183632919" lon="17.446819917224783"><ele>240.99999999999997</ele><time>2026-04-23T14:39:48.998Z</time></trkpt><trkpt lat="40.764568751850355" lon="17.44688248776886"><ele>241.0</ele><time>2026-04-23T14:39:50.998Z</time></trkpt><trkpt lat="40.76450707982605" lon="17.44692766993332"><ele>241.0</ele><time>2026-04-23T14:39:52.998Z</time></trkpt><trkpt lat="40.76445003163116" lon="17.446996319366303"><ele>241.0</ele><time>2026-04-23T14:39:54.998Z</time></trkpt><trkpt lat="40.76438414993059" lon="17.44702652216028"><ele>240.99999999999997</ele><time>2026-04-23T14:39:56.998Z</time></trkpt><trkpt lat="40.764318610747814" lon="17.44712316553771"><ele>241.0</ele><time>2026-04-23T14:40:01.998Z</time></trkpt><trkpt lat="40.76426344428526" lon="17.447180844584413"><ele>244.16666666666666</ele><time>2026-04-23T14:40:04.998Z</time></trkpt><trkpt lat="40.76418824180665" lon="17.447293165988444"><ele>247.33333333333331</ele><time>2026-04-23T14:40:08Z</time></trkpt><trkpt lat="40.764148315240924" lon="17.44738955766352"><ele>250.5</ele><time>2026-04-23T14:40:11Z</time></trkpt><trkpt lat="40.76411138986326" lon="17.44747224082725"><ele>253.66666666666669</ele><time>2026-04-23T14:40:13Z</time></trkpt><trkpt lat="40.76407872126439" lon="17.44754468916123"><ele>256.83333333333337</ele><time>2026-04-23T14:40:14Z</time></trkpt><trkpt lat="40.76405807517769" lon="17.447631409250068"><ele>260.0</ele><time>2026-04-23T14:40:15Z</time></trkpt><trkpt lat="40.76402204266768" lon="17.44773024600155"><ele>260.0</ele><time>2026-04-23T14:40:17Z</time></trkpt><trkpt lat="40.76400840120575" lon="17.447853537245372"><ele>260.0</ele><time>2026-04-23T14:40:19Z</time></trkpt><trkpt lat="40.763982463555884" lon="17.447948775080242"><ele>260.0</ele><time>2026-04-23T14:40:21Z</time></trkpt><trkpt lat="40.763948221060275" lon="17.448045998081714"><ele>260.0</ele><time>2026-04-23T14:40:23Z</time></trkpt><trkpt lat="40.763918650677866" lon="17.44813443746582"><ele>260.0</ele><time>2026-04-23T14:40:25Z</time></trkpt><trkpt lat="40.76389973432487" lon="17.448225488554545"><ele>260.0</ele><time>2026-04-23T14:40:27Z</time></trkpt><trkpt lat="40.76388328542069" lon="17.448327645714336"><ele>260.0</ele><time>2026-04-23T14:40:29Z</time></trkpt><trkpt lat="40.76385626551878" lon="17.44841609181471"><ele>260.0</ele><time>2026-04-23T14:40:31Z</time></trkpt><trkpt lat="40.76382646170448" lon="17.448518151643523"><ele>260.0</ele><time>2026-04-23T14:40:33Z</time></trkpt><trkpt lat="40.76381200418304" lon="17.448612925779194"><ele>260.0</ele><time>2026-04-23T14:40:35Z</time></trkpt><trkpt lat="40.763779897926376" lon="17.448739349079936"><ele>260.0</ele><time>2026-04-23T14:40:38Z</time></trkpt><trkpt lat="40.763769649095245" lon="17.44883748979146"><ele>260.0</ele><time>2026-04-23T14:40:40Z</time></trkpt><trkpt lat="40.763770898798995" lon="17.44892621368379"><ele>260.0</ele><time>2026-04-23T14:40:42Z</time></trkpt><trkpt lat="40.76377595288746" lon="17.44902116532198"><ele>260.0</ele><time>2026-04-23T14:40:44Z</time></trkpt><trkpt lat="40.76376819262005" lon="17.449113365533314"><ele>260.0</ele><time>2026-04-23T14:40:45.999Z</time></trkpt><trkpt lat="40.76377006351992" lon="17.44921891480663"><ele>260.0</ele><time>2026-04-23T14:40:47.999Z</time></trkpt><trkpt lat="40.763775025912544" lon="17.449327694769895"><ele>260.0</ele><time>2026-04-23T14:40:49.999Z</time></trkpt><trkpt lat="40.763764809619126" lon="17.449426809126827"><ele>260.0</ele><time>2026-04-23T14:40:52.999Z</time></trkpt><trkpt lat="40.763801925898015" lon="17.449537285762418"><ele>262.14285714285717</ele><time>2026-04-23T14:40:54.999Z</time></trkpt><trkpt lat="40.76382339146142" lon="17.449636127467045"><ele>264.2857142857143</ele><time>2026-04-23T14:40:56.999Z</time></trkpt><trkpt lat="40.76384906136773" lon="17.449721460135418"><ele>266.42857142857144</ele><time>2026-04-23T14:40:58.999Z</time></trkpt><trkpt lat="40.76388322052924" lon="17.44980730527503"><ele>268.57142857142856</ele><time>2026-04-23T14:41:00.999Z</time></trkpt><trkpt lat="40.7639077231432" lon="17.449891132146394"><ele>270.7142857142857</ele><time>2026-04-23T14:41:02.999Z</time></trkpt><trkpt lat="40.76393378869047" lon="17.44997917609543"><ele>272.8571428571429</ele><time>2026-04-23T14:41:04.999Z</time></trkpt><trkpt lat="40.763963963748424" lon="17.450065630989467"><ele>275.0</ele><time>2026-04-23T14:41:06.999Z</time></trkpt><trkpt lat="40.76400321724485" lon="17.450149123763833"><ele>275.0</ele><time>2026-04-23T14:41:08.999Z</time></trkpt><trkpt lat="40.76404129894111" lon="17.450269473928657"><ele>275.0</ele><time>2026-04-23T14:41:11.999Z</time></trkpt><trkpt lat="40.76407598268818" lon="17.450347375136378"><ele>275.0</ele><time>2026-04-23T14:41:13.999Z</time></trkpt><trkpt lat="40.76410291826465" lon="17.450479448312034"><ele>275.0</ele><time>2026-04-23T14:41:16.999Z</time></trkpt><trkpt lat="40.764151435236656" lon="17.450573780161736"><ele>275.0</ele><time>2026-04-23T14:41:18.999Z</time></trkpt><trkpt lat="40.76418502116" lon="17.45066250799093"><ele>275.0</ele><time>2026-04-23T14:41:20.999Z</time></trkpt><trkpt lat="40.764178079927625" lon="17.45076898625586"><ele>277.0</ele><time>2026-04-23T14:41:22.999Z</time></trkpt><trkpt lat="40.76417943565049" lon="17.45089522634348"><ele>279.0</ele><time>2026-04-23T14:41:25.999Z</time></trkpt><trkpt lat="40.76417298081961" lon="17.451020602876298"><ele>281.0</ele><time>2026-04-23T14:41:28.999Z</time></trkpt><trkpt lat="40.764179638634715" lon="17.45113448283108"><ele>283.0</ele><time>2026-04-23T14:41:30.999Z</time></trkpt><trkpt lat="40.76415381316236" lon="17.451236295299587"><ele>285.0</ele><time>2026-04-23T14:41:33.999Z</time></trkpt><trkpt lat="40.7641265031993" lon="17.4513240379143"><ele>287.0</ele><time>2026-04-23T14:41:35.998Z</time></trkpt><trkpt lat="40.764108862779736" lon="17.451409072314004"><ele>287.0</ele><time>2026-04-23T14:41:37.998Z</time></trkpt><trkpt lat="40.76408474765323" lon="17.451498032945047"><ele>287.0</ele><time>2026-04-23T14:41:39.998Z</time></trkpt><trkpt lat="40.76406431354339" lon="17.451577988603276"><ele>287.0</ele><time>2026-04-23T14:41:41.998Z</time></trkpt><trkpt lat="40.76404088367483" lon="17.451671662214775"><ele>287.0</ele><time>2026-04-23T14:41:43.998Z</time></trkpt><trkpt lat="40.763991214141605" lon="17.451751022157257"><ele>287.0</ele><time>2026-04-23T14:41:46.998Z</time></trkpt><trkpt lat="40.76394897819039" lon="17.45181546412736"><ele>287.0</ele><time>2026-04-23T14:41:48.998Z</time></trkpt><trkpt lat="40.76388368691979" lon="17.45186218389695"><ele>287.0</ele><time>2026-04-23T14:41:50.998Z</time></trkpt><trkpt lat="40.76381856791424" lon="17.451936603909207"><ele>287.0</ele><time>2026-04-23T14:41:53.998Z</time></trkpt><trkpt lat="40.763747169411545" lon="17.452008667637084"><ele>287.0</ele><time>2026-04-23T14:41:55.998Z</time></trkpt><trkpt lat="40.76368072683871" lon="17.45202392121459"><ele>287.0</ele><time>2026-04-23T14:41:57.998Z</time></trkpt><trkpt lat="40.763614017588324" lon="17.452071848924195"><ele>287.0</ele><time>2026-04-23T14:41:59.998Z</time></trkpt><trkpt lat="40.76354626766723" lon="17.452120065443538"><ele>287.0</ele><time>2026-04-23T14:42:01.998Z</time></trkpt><trkpt lat="40.76348138280022" lon="17.452156192518782"><ele>287.0</ele><time>2026-04-23T14:42:03.998Z</time></trkpt><trkpt lat="40.76341536336106" lon="17.452196094969885"><ele>287.6666666666667</ele><time>2026-04-23T14:42:05.998Z</time></trkpt><trkpt lat="40.76334785368829" lon="17.45219622090314"><ele>288.33333333333337</ele><time>2026-04-23T14:42:07.998Z</time></trkpt><trkpt lat="40.76328063585675" lon="17.452220901567845"><ele>289.0</ele><time>2026-04-23T14:42:09.998Z</time></trkpt><trkpt lat="40.76319083150261" lon="17.45226096290642"><ele>289.6666666666667</ele><time>2026-04-23T14:42:12.998Z</time></trkpt><trkpt lat="40.76311929540022" lon="17.452322959455444"><ele>290.3333333333333</ele><time>2026-04-23T14:42:15Z</time></trkpt><trkpt lat="40.763051857170204" lon="17.452367862192375"><ele>291.0</ele><time>2026-04-23T14:42:17Z</time></trkpt><trkpt lat="40.762956412406695" lon="17.452426053816477"><ele>291.0</ele><time>2026-04-23T14:42:20Z</time></trkpt><trkpt lat="40.7628791691344" lon="17.452472048753606"><ele>291.0</ele><time>2026-04-23T14:42:22Z</time></trkpt><trkpt lat="40.762809267262035" lon="17.45252295415371"><ele>291.0</ele><time>2026-04-23T14:42:24Z</time></trkpt><trkpt lat="40.762729320474385" lon="17.452542041841273"><ele>291.0</ele><time>2026-04-23T14:42:26Z</time></trkpt><trkpt lat="40.76264733454533" lon="17.45261407618592"><ele>291.0</ele><time>2026-04-23T14:42:28Z</time></trkpt><trkpt lat="40.762587255064446" lon="17.45265560845179"><ele>291.0</ele><time>2026-04-23T14:42:30Z</time></trkpt><trkpt lat="40.76250999039691" lon="17.452708074268916"><ele>290.8333333333333</ele><time>2026-04-23T14:42:32Z</time></trkpt><trkpt lat="40.762440106327915" lon="17.452752843631654"><ele>290.6666666666667</ele><time>2026-04-23T14:42:34Z</time></trkpt><trkpt lat="40.762375082734515" lon="17.452801310257605"><ele>290.5</ele><time>2026-04-23T14:42:36Z</time></trkpt><trkpt lat="40.76231474833046" lon="17.45283917736433"><ele>290.33333333333337</ele><time>2026-04-23T14:42:38Z</time></trkpt><trkpt lat="40.762252737879855" lon="17.45287314271717"><ele>290.1666666666667</ele><time>2026-04-23T14:42:40Z</time></trkpt><trkpt lat="40.76216776966365" lon="17.452929756108265"><ele>290.0</ele><time>2026-04-23T14:42:43Z</time></trkpt><trkpt lat="40.76208965963853" lon="17.452984218354437"><ele>290.0</ele><time>2026-04-23T14:42:45Z</time></trkpt><trkpt lat="40.76201660132359" lon="17.453027151542017"><ele>290.0</ele><time>2026-04-23T14:42:47Z</time></trkpt><trkpt lat="40.76194036598231" lon="17.453060151388037"><ele>290.0</ele><time>2026-04-23T14:42:49Z</time></trkpt><trkpt lat="40.761879190250035" lon="17.45308594276469"><ele>290.0</ele><time>2026-04-23T14:42:50.999Z</time></trkpt><trkpt lat="40.76181419778037" lon="17.453107220410267"><ele>290.0</ele><time>2026-04-23T14:42:52.999Z</time></trkpt><trkpt lat="40.76174166316832" lon="17.453145594585592"><ele>290.0</ele><time>2026-04-23T14:42:54.999Z</time></trkpt><trkpt lat="40.761654094937654" lon="17.453186378907038"><ele>294.0</ele><time>2026-04-23T14:42:57.999Z</time></trkpt><trkpt lat="40.76157041721773" lon="17.453228231899146"><ele>298.0</ele><time>2026-04-23T14:42:59.999Z</time></trkpt><trkpt lat="40.76150385649045" lon="17.453257729751726"><ele>302.0</ele><time>2026-04-23T14:43:01.999Z</time></trkpt><trkpt lat="40.76143068918737" lon="17.453293351602415"><ele>306.0</ele><time>2026-04-23T14:43:03.999Z</time></trkpt><trkpt lat="40.761352725791554" lon="17.453353751254603"><ele>310.0</ele><time>2026-04-23T14:43:05.999Z</time></trkpt><trkpt lat="40.76129088326755" lon="17.45338498595708"><ele>314.0</ele><time>2026-04-23T14:43:07.999Z</time></trkpt><trkpt lat="40.76120934412512" lon="17.453437288018343"><ele>314.0</ele><time>2026-04-23T14:43:10.999Z</time></trkpt><trkpt lat="40.76113386710619" lon="17.45349063198983"><ele>314.0</ele><time>2026-04-23T14:43:14.999Z</time></trkpt><trkpt lat="40.7610547416367" lon="17.453545907738775"><ele>314.0</ele><time>2026-04-23T14:43:16.999Z</time></trkpt><trkpt lat="40.76099842255444" lon="17.4536082514007"><ele>314.0</ele><time>2026-04-23T14:43:18.999Z</time></trkpt><trkpt lat="40.76092765249662" lon="17.453689226126855"><ele>314.0</ele><time>2026-04-23T14:43:20.999Z</time></trkpt><trkpt lat="40.760868311943334" lon="17.45373888647111"><ele>314.0</ele><time>2026-04-23T14:43:22.999Z</time></trkpt><trkpt lat="40.76079991832002" lon="17.45377539081589"><ele>314.4285714285714</ele><time>2026-04-23T14:43:25.999Z</time></trkpt><trkpt lat="40.76072928820283" lon="17.453816113378032"><ele>314.85714285714283</ele><time>2026-04-23T14:43:28.999Z</time></trkpt><trkpt lat="40.76068394581845" lon="17.453888159758844"><ele>315.2857142857143</ele><time>2026-04-23T14:43:30.999Z</time></trkpt><trkpt lat="40.76064340005498" lon="17.453953023737235"><ele>315.71428571428567</ele><time>2026-04-23T14:43:32.999Z</time></trkpt><trkpt lat="40.76057286405266" lon="17.453989379976363"><ele>316.1428571428571</ele><time>2026-04-23T14:43:35.999Z</time></trkpt><trkpt lat="40.760509007717836" lon="17.45402982883449"><ele>316.57142857142856</ele><time>2026-04-23T14:43:37.999Z</time></trkpt><trkpt lat="40.76044527698259" lon="17.454042759212236"><ele>317.0</ele><time>2026-04-23T14:43:40.998Z</time></trkpt><trkpt lat="40.76041057234868" lon="17.454123640458164"><ele>317.0</ele><time>2026-04-23T14:43:44.998Z</time></trkpt><trkpt lat="40.76042912252881" lon="17.45421049551713"><ele>317.0</ele><time>2026-04-23T14:43:48.998Z</time></trkpt><trkpt lat="40.760543176661" lon="17.454232139671316"><ele>317.0</ele><time>2026-04-23T14:43:54.998Z</time></trkpt><trkpt lat="40.760605491404014" lon="17.45430069637"><ele>317.0</ele><time>2026-04-23T14:43:58.998Z</time></trkpt><trkpt lat="40.7606175662118" lon="17.4543858786892"><ele>317.0</ele><time>2026-04-23T14:44:01.998Z</time></trkpt><trkpt lat="40.76060076943573" lon="17.45448216536689"><ele>317.0</ele><time>2026-04-23T14:44:03.998Z</time></trkpt><trkpt lat="40.76076799444637" lon="17.454493637662342"><ele>317.0</ele><time>2026-04-23T14:44:12.998Z</time></trkpt><trkpt lat="40.76089881886822" lon="17.45453025966416"><ele>317.0</ele><time>2026-04-23T14:44:17.998Z</time></trkpt><trkpt lat="40.76088550088636" lon="17.45463701632481"><ele>317.0</ele><time>2026-04-23T14:44:20Z</time></trkpt><trkpt lat="40.76089129004092" lon="17.45474755675636"><ele>317.0</ele><time>2026-04-23T14:44:23Z</time></trkpt><trkpt lat="40.76090435298934" lon="17.45487197948379"><ele>317.0</ele><time>2026-04-23T14:44:25Z</time></trkpt><trkpt lat="40.760880422393036" lon="17.454995060844517"><ele>315.5</ele><time>2026-04-23T14:44:27Z</time></trkpt><trkpt lat="40.760888742210284" lon="17.45507839083666"><ele>314.0</ele><time>2026-04-23T14:44:28Z</time></trkpt><trkpt lat="40.760895502419956" lon="17.455193373940155"><ele>312.5</ele><time>2026-04-23T14:44:31Z</time></trkpt><trkpt lat="40.760905821804144" lon="17.455287354622186"><ele>311.0</ele><time>2026-04-23T14:44:34Z</time></trkpt><trkpt lat="40.7609997934015" lon="17.45522880730843"><ele>309.5</ele><time>2026-04-23T14:44:38Z</time></trkpt><trkpt lat="40.76104972217092" lon="17.45516405271404"><ele>308.0</ele><time>2026-04-23T14:44:40Z</time></trkpt><trkpt lat="40.76113349006559" lon="17.455079416851063"><ele>302.83333333333337</ele><time>2026-04-23T14:44:44Z</time></trkpt><trkpt lat="40.76115672484306" lon="17.454980852608333"><ele>297.6666666666667</ele><time>2026-04-23T14:44:46Z</time></trkpt><trkpt lat="40.76117699316779" lon="17.45488339695969"><ele>292.5</ele><time>2026-04-23T14:44:48Z</time></trkpt><trkpt lat="40.761198087912526" lon="17.45478815883318"><ele>287.3333333333333</ele><time>2026-04-23T14:44:50Z</time></trkpt><trkpt lat="40.76123549474658" lon="17.454706810969157"><ele>282.16666666666663</ele><time>2026-04-23T14:44:52Z</time></trkpt><trkpt lat="40.76133229790688" lon="17.454681442748768"><ele>277.0</ele><time>2026-04-23T14:44:58.999Z</time></trkpt><trkpt lat="40.76135788297102" lon="17.454758333128563"><ele>277.0</ele><time>2026-04-23T14:45:01.999Z</time></trkpt><trkpt lat="40.761305044138155" lon="17.454833848136467"><ele>277.0</ele><time>2026-04-23T14:45:04.999Z</time></trkpt><trkpt lat="40.76127682859749" lon="17.454946375185536"><ele>277.0</ele><time>2026-04-23T14:45:07.999Z</time></trkpt><trkpt lat="40.761237357012206" lon="17.455053051800135"><ele>277.0</ele><time>2026-04-23T14:45:09.999Z</time></trkpt><trkpt lat="40.761244132017396" lon="17.455310740469013"><ele>277.0</ele><time>2026-04-23T14:45:14.999Z</time></trkpt><trkpt lat="40.76121556904227" lon="17.455411899459637"><ele>277.0</ele><time>2026-04-23T14:45:18.999Z</time></trkpt><trkpt lat="40.761216064312315" lon="17.455532660700307"><ele>277.0</ele><time>2026-04-23T14:45:20.999Z</time></trkpt><trkpt lat="40.76122419815948" lon="17.45562024020113"><ele>277.0</ele><time>2026-04-23T14:45:23.999Z</time></trkpt><trkpt lat="40.76125468876704" lon="17.455709764102835"><ele>277.0</ele><time>2026-04-23T14:45:27.999Z</time></trkpt><trkpt lat="40.76131979850125" lon="17.455772357032536"><ele>277.0</ele><time>2026-04-23T14:45:30.999Z</time></trkpt><trkpt lat="40.761393749863174" lon="17.455801968985476"><ele>273.6</ele><time>2026-04-23T14:45:33.999Z</time></trkpt><trkpt lat="40.761466972153016" lon="17.455866640714884"><ele>270.2</ele><time>2026-04-23T14:45:36.999Z</time></trkpt><trkpt lat="40.761526803714005" lon="17.45598020178855"><ele>266.8</ele><time>2026-04-23T14:45:39.999Z</time></trkpt><trkpt lat="40.761587972697725" lon="17.456024839154644"><ele>263.4</ele><time>2026-04-23T14:45:40.999Z</time></trkpt><trkpt lat="40.7616566354523" lon="17.45611267094264"><ele>260.0</ele><time>2026-04-23T14:45:42.999Z</time></trkpt><trkpt lat="40.76186404568894" lon="17.456127512265276"><ele>254.66666666666669</ele><time>2026-04-23T14:45:50.998Z</time></trkpt><trkpt lat="40.7619375961391" lon="17.4561011190432"><ele>249.33333333333334</ele><time>2026-04-23T14:45:52.998Z</time></trkpt><trkpt lat="40.762019832734374" lon="17.456007425775127"><ele>244.0</ele><time>2026-04-23T14:45:56.998Z</time></trkpt><trkpt lat="40.76207184499861" lon="17.455950733634918"><ele>238.66666666666669</ele><time>2026-04-23T14:46:11.998Z</time></trkpt><trkpt lat="40.762092696915275" lon="17.45583863480327"><ele>233.33333333333334</ele><time>2026-04-23T14:46:16.998Z</time></trkpt><trkpt lat="40.76210134510259" lon="17.45573476654514"><ele>228.0</ele><time>2026-04-23T14:46:18.998Z</time></trkpt><trkpt lat="40.7621277636273" lon="17.45561919339931"><ele>228.0</ele><time>2026-04-23T14:46:20.998Z</time></trkpt><trkpt lat="40.762212549471066" lon="17.45550910454679"><ele>228.0</ele><time>2026-04-23T14:46:22.998Z</time></trkpt><trkpt lat="40.76226737720207" lon="17.45542710466914"><ele>228.0</ele><time>2026-04-23T14:46:23.998Z</time></trkpt><trkpt lat="40.76231116949968" lon="17.455328588210268"><ele>228.0</ele><time>2026-04-23T14:46:24.998Z</time></trkpt><trkpt lat="40.76238610084701" lon="17.45520873109635"><ele>228.0</ele><time>2026-04-23T14:46:27Z</time></trkpt><trkpt lat="40.76251419576393" lon="17.455150376519658"><ele>227.5</ele><time>2026-04-23T14:46:29Z</time></trkpt><trkpt lat="40.76257419934119" lon="17.455084155337822"><ele>227.0</ele><time>2026-04-23T14:46:30Z</time></trkpt><trkpt lat="40.7626523112427" lon="17.455050906085948"><ele>226.5</ele><time>2026-04-23T14:46:31Z</time></trkpt><trkpt lat="40.76272287094069" lon="17.4550246793439"><ele>226.0</ele><time>2026-04-23T14:46:32Z</time></trkpt><trkpt lat="40.76278538276574" lon="17.45499734361285"><ele>225.5</ele><time>2026-04-23T14:46:33Z</time></trkpt><trkpt lat="40.762859527979224" lon="17.454937560196893"><ele>225.0</ele><time>2026-04-23T14:46:34Z</time></trkpt><trkpt lat="40.762936477721" lon="17.454855095359832"><ele>225.0</ele><time>2026-04-23T14:46:35Z</time></trkpt><trkpt lat="40.76301365838778" lon="17.454808747541957"><ele>225.0</ele><time>2026-04-23T14:46:36Z</time></trkpt><trkpt lat="40.763081328352456" lon="17.454771137099204"><ele>225.0</ele><time>2026-04-23T14:46:37Z</time></trkpt><trkpt lat="40.76315988208181" lon="17.454745454612787"><ele>225.0</ele><time>2026-04-23T14:46:38Z</time></trkpt><trkpt lat="40.76322507293402" lon="17.45468861508678"><ele>225.0</ele><time>2026-04-23T14:46:39Z</time></trkpt><trkpt lat="40.763349702436095" lon="17.45458795362766"><ele>225.16666666666666</ele><time>2026-04-23T14:46:41Z</time></trkpt><trkpt lat="40.7634105356685" lon="17.454525707422565"><ele>225.33333333333331</ele><time>2026-04-23T14:46:42Z</time></trkpt><trkpt lat="40.7634632448026" lon="17.454473801597132"><ele>225.5</ele><time>2026-04-23T14:46:43Z</time></trkpt><trkpt lat="40.76352730485264" lon="17.454425453124344"><ele>225.66666666666666</ele><time>2026-04-23T14:46:44Z</time></trkpt><trkpt lat="40.76365342668031" lon="17.454367008985383"><ele>225.83333333333331</ele><time>2026-04-23T14:46:46Z</time></trkpt><trkpt lat="40.76359327141379" lon="17.454406819162404"><ele>226.0</ele><time>2026-04-23T14:47:25.999Z</time></trkpt><trkpt lat="40.76350616640028" lon="17.454466033883513"><ele>225.83333333333331</ele><time>2026-04-23T14:47:28.999Z</time></trkpt><trkpt lat="40.763425956941425" lon="17.45451540487217"><ele>225.66666666666666</ele><time>2026-04-23T14:47:30.999Z</time></trkpt><trkpt lat="40.76334757558949" lon="17.454551789868873"><ele>225.5</ele><time>2026-04-23T14:47:32.999Z</time></trkpt><trkpt lat="40.763284130739386" lon="17.45461373572957"><ele>225.33333333333331</ele><time>2026-04-23T14:47:34.999Z</time></trkpt><trkpt lat="40.7632138689601" lon="17.4546869427175"><ele>225.16666666666666</ele><time>2026-04-23T14:47:36.999Z</time></trkpt><trkpt lat="40.76314397039232" lon="17.454744646655236"><ele>225.0</ele><time>2026-04-23T14:47:38.999Z</time></trkpt><trkpt lat="40.763075746129076" lon="17.454788566983808"><ele>225.00000000000003</ele><time>2026-04-23T14:47:40.999Z</time></trkpt><trkpt lat="40.76301289797155" lon="17.45479497082987"><ele>225.0</ele><time>2026-04-23T14:47:43.999Z</time></trkpt><trkpt lat="40.762960500258636" lon="17.454850459467643"><ele>225.00000000000003</ele><time>2026-04-23T14:47:45.999Z</time></trkpt><trkpt lat="40.76290301515903" lon="17.45489195203347"><ele>225.00000000000003</ele><time>2026-04-23T14:47:48.999Z</time></trkpt><trkpt lat="40.76284532652663" lon="17.454943204788172"><ele>225.0</ele><time>2026-04-23T14:47:50.999Z</time></trkpt><trkpt lat="40.762794029152516" lon="17.454995451641516"><ele>225.00000000000003</ele><time>2026-04-23T14:47:53.998Z</time></trkpt><trkpt lat="40.76272798272854" lon="17.455066062350497"><ele>225.00000000000003</ele><time>2026-04-23T14:47:58.998Z</time></trkpt><trkpt lat="40.762663919657726" lon="17.45510021371748"><ele>225.0</ele><time>2026-04-23T14:48:00.998Z</time></trkpt><trkpt lat="40.762734264377016" lon="17.45501208632433"><ele>225.0</ele><time>2026-04-23T14:48:24.998Z</time></trkpt><trkpt lat="40.76282758962964" lon="17.454931231851965"><ele>225.0</ele><time>2026-04-23T14:48:26.998Z</time></trkpt><trkpt lat="40.762893859455765" lon="17.454862371537402"><ele>225.0</ele><time>2026-04-23T14:48:27.998Z</time></trkpt><trkpt lat="40.76301169636911" lon="17.454794207042752"><ele>225.0</ele><time>2026-04-23T14:48:29.998Z</time></trkpt><trkpt lat="40.763080442642476" lon="17.454756572320758"><ele>225.0</ele><time>2026-04-23T14:48:30.998Z</time></trkpt><trkpt lat="40.763178810240646" lon="17.454716293974364"><ele>225.0</ele><time>2026-04-23T14:48:32Z</time></trkpt><trkpt lat="40.76325875837617" lon="17.454645284874765"><ele>225.0</ele><time>2026-04-23T14:48:34Z</time></trkpt><trkpt lat="40.7633152711729" lon="17.454604495155515"><ele>225.0</ele><time>2026-04-23T14:48:36Z</time></trkpt><trkpt lat="40.76336935512517" lon="17.45451940263441"><ele>225.0</ele><time>2026-04-23T14:48:55Z</time></trkpt><trkpt lat="40.76346079799886" lon="17.454449578958396"><ele>225.2</ele><time>2026-04-23T14:48:57Z</time></trkpt><trkpt lat="40.763532212571626" lon="17.45442339029624"><ele>225.4</ele><time>2026-04-23T14:48:58Z</time></trkpt><trkpt lat="40.76364397661029" lon="17.454358647510677"><ele>225.60000000000002</ele><time>2026-04-23T14:49:00Z</time></trkpt><trkpt lat="40.76372742499695" lon="17.45432782134827"><ele>225.8</ele><time>2026-04-23T14:49:01Z</time></trkpt><trkpt lat="40.76383600251656" lon="17.454221456201033"><ele>226.0</ele><time>2026-04-23T14:49:03Z</time></trkpt><trkpt lat="40.76390021019451" lon="17.45419738373564"><ele>225.99999999999997</ele><time>2026-04-23T14:49:04Z</time></trkpt><trkpt lat="40.76396630810165" lon="17.454164731443775"><ele>226.0</ele><time>2026-04-23T14:49:05Z</time></trkpt><trkpt lat="40.76405753123761" lon="17.454119806128528"><ele>226.0</ele><time>2026-04-23T14:49:06Z</time></trkpt><trkpt lat="40.764118302104215" lon="17.45407414214876"><ele>226.0</ele><time>2026-04-23T14:49:07Z</time></trkpt><trkpt lat="40.764196508206055" lon="17.45407319414763"><ele>225.99999999999997</ele><time>2026-04-23T14:49:08Z</time></trkpt><trkpt lat="40.76426586581425" lon="17.454075136642707"><ele>226.0</ele><time>2026-04-23T14:49:09Z</time></trkpt><trkpt lat="40.76435129738653" lon="17.454073972130537"><ele>222.0</ele><time>2026-04-23T14:49:09.999Z</time></trkpt><trkpt lat="40.76445969949468" lon="17.454061824206363"><ele>218.0</ele><time>2026-04-23T14:49:10.999Z</time></trkpt><trkpt lat="40.76457392906658" lon="17.454063283007542"><ele>214.0</ele><time>2026-04-23T14:49:11.999Z</time></trkpt><trkpt lat="40.76468945767228" lon="17.454031693550085"><ele>210.0</ele><time>2026-04-23T14:49:12.999Z</time></trkpt><trkpt lat="40.76480560995978" lon="17.45402346908626"><ele>210.0</ele><time>2026-04-23T14:49:13.999Z</time></trkpt><trkpt lat="40.76491616820656" lon="17.454022624388887"><ele>210.0</ele><time>2026-04-23T14:49:14.999Z</time></trkpt><trkpt lat="40.76502782833417" lon="17.45402118179749"><ele>210.0</ele><time>2026-04-23T14:49:15.999Z</time></trkpt><trkpt lat="40.765109623242886" lon="17.45401172668134"><ele>210.0</ele><time>2026-04-23T14:49:16.999Z</time></trkpt><trkpt lat="40.765188181372785" lon="17.454004711403456"><ele>210.0</ele><time>2026-04-23T14:49:17.999Z</time></trkpt><trkpt lat="40.76525189337168" lon="17.45401650767738"><ele>210.0</ele><time>2026-04-23T14:49:18.999Z</time></trkpt><trkpt lat="40.76541289568965" lon="17.453990210772023"><ele>206.8</ele><time>2026-04-23T14:49:20.999Z</time></trkpt><trkpt lat="40.7655202095906" lon="17.453974356621575"><ele>203.6</ele><time>2026-04-23T14:49:21.999Z</time></trkpt><trkpt lat="40.76560635300542" lon="17.45396914524404"><ele>200.39999999999998</ele><time>2026-04-23T14:49:22.999Z</time></trkpt><trkpt lat="40.76569462179077" lon="17.45395647944379"><ele>197.2</ele><time>2026-04-23T14:49:24.999Z</time></trkpt><trkpt lat="40.765756440339864" lon="17.453917303301743"><ele>194.0</ele><time>2026-04-23T14:49:26.999Z</time></trkpt><trkpt lat="40.76577756864629" lon="17.453789798967108"><ele>194.0</ele><time>2026-04-23T14:49:29.999Z</time></trkpt><trkpt lat="40.765850363233994" lon="17.453736172548762"><ele>194.0</ele><time>2026-04-23T14:50:26.998Z</time></trkpt><trkpt lat="40.76586024955089" lon="17.453637491665855"><ele>194.0</ele><time>2026-04-23T14:50:32.998Z</time></trkpt><trkpt lat="40.76582527779941" lon="17.45370905182384"><ele>194.0</ele><time>2026-04-23T14:50:39Z</time></trkpt><trkpt lat="40.76578612901294" lon="17.453798028507936"><ele>194.0</ele><time>2026-04-23T14:52:44Z</time></trkpt><trkpt lat="40.765766603688775" lon="17.45388183995876"><ele>194.0</ele><time>2026-04-23T14:52:46Z</time></trkpt><trkpt lat="40.765735309734985" lon="17.453972764729283"><ele>194.0</ele><time>2026-04-23T14:52:48Z</time></trkpt><trkpt lat="40.765705518457786" lon="17.45406493996641"><ele>194.00000000000003</ele><time>2026-04-23T14:52:50Z</time></trkpt><trkpt lat="40.765677861157506" lon="17.454159578354947"><ele>194.0</ele><time>2026-04-23T14:52:52Z</time></trkpt><trkpt lat="40.765636900412225" lon="17.45426746590546"><ele>194.0</ele><time>2026-04-23T14:52:55Z</time></trkpt><trkpt lat="40.76559297130876" lon="17.454341904563883"><ele>194.0</ele><time>2026-04-23T14:52:57Z</time></trkpt><trkpt lat="40.765542621510434" lon="17.45441677370544"><ele>194.00000000000003</ele><time>2026-04-23T14:52:59Z</time></trkpt><trkpt lat="40.76548012872262" lon="17.454500922916143"><ele>194.0</ele><time>2026-04-23T14:53:01Z</time></trkpt><trkpt lat="40.76541880035159" lon="17.45458246182841"><ele>193.50000000000003</ele><time>2026-04-23T14:53:03Z</time></trkpt><trkpt lat="40.76536135362595" lon="17.454661344838904"><ele>193.0</ele><time>2026-04-23T14:53:05Z</time></trkpt><trkpt lat="40.76529893936255" lon="17.454743443868836"><ele>192.5</ele><time>2026-04-23T14:53:07Z</time></trkpt><trkpt lat="40.76523857524666" lon="17.454832226644136"><ele>192.0</ele><time>2026-04-23T14:53:09Z</time></trkpt><trkpt lat="40.76517431764515" lon="17.45491635189164"><ele>191.5</ele><time>2026-04-23T14:53:11Z</time></trkpt><trkpt lat="40.76511366197974" lon="17.454995079747437"><ele>191.0</ele><time>2026-04-23T14:53:13Z</time></trkpt><trkpt lat="40.76504591035972" lon="17.455084535934137"><ele>192.20000000000002</ele><time>2026-04-23T14:53:15Z</time></trkpt><trkpt lat="40.76497211799336" lon="17.4551772164694"><ele>193.4</ele><time>2026-04-23T14:53:17Z</time></trkpt><trkpt lat="40.764905426160006" lon="17.455269166475027"><ele>194.6</ele><time>2026-04-23T14:53:19Z</time></trkpt><trkpt lat="40.76483417260843" lon="17.455362280305962"><ele>195.8</ele><time>2026-04-23T14:53:20.999Z</time></trkpt><trkpt lat="40.764760132642046" lon="17.455456191617138"><ele>197.0</ele><time>2026-04-23T14:53:22.999Z</time></trkpt><trkpt lat="40.76469871152219" lon="17.455539840758238"><ele>197.0</ele><time>2026-04-23T14:53:24.999Z</time></trkpt><trkpt lat="40.76462886323233" lon="17.455643424916943"><ele>197.0</ele><time>2026-04-23T14:53:26.999Z</time></trkpt><trkpt lat="40.764558738102885" lon="17.455759683414225"><ele>197.0</ele><time>2026-04-23T14:53:28.999Z</time></trkpt><trkpt lat="40.76448550361865" lon="17.455870509646115"><ele>197.0</ele><time>2026-04-23T14:53:30.999Z</time></trkpt><trkpt lat="40.76441647740438" lon="17.455968160320662"><ele>197.0</ele><time>2026-04-23T14:53:32.999Z</time></trkpt><trkpt lat="40.764346093640064" lon="17.456083036726966"><ele>197.6</ele><time>2026-04-23T14:53:34.999Z</time></trkpt><trkpt lat="40.76427899215769" lon="17.45619513586785"><ele>198.2</ele><time>2026-04-23T14:53:36.999Z</time></trkpt><trkpt lat="40.7642273410591" lon="17.4563010455774"><ele>198.8</ele><time>2026-04-23T14:53:38.999Z</time></trkpt><trkpt lat="40.76416300804327" lon="17.456418987080035"><ele>199.4</ele><time>2026-04-23T14:53:40.999Z</time></trkpt><trkpt lat="40.76410307988146" lon="17.45651184860877"><ele>200.0</ele><time>2026-04-23T14:53:42.999Z</time></trkpt><trkpt lat="40.76405144854498" lon="17.45661504631997"><ele>200.0</ele><time>2026-04-23T14:53:44.999Z</time></trkpt><trkpt lat="40.76398935785659" lon="17.45672090727542"><ele>200.0</ele><time>2026-04-23T14:53:46.999Z</time></trkpt><trkpt lat="40.7639372143057" lon="17.456807822624405"><ele>200.0</ele><time>2026-04-23T14:53:48.999Z</time></trkpt><trkpt lat="40.763878127991376" lon="17.456932216520077"><ele>200.0</ele><time>2026-04-23T14:53:50.999Z</time></trkpt><trkpt lat="40.763818943668866" lon="17.45704041769141"><ele>200.0</ele><time>2026-04-23T14:53:52.999Z</time></trkpt><trkpt lat="40.7637642961161" lon="17.457129148539092"><ele>199.8</ele><time>2026-04-23T14:53:54.999Z</time></trkpt><trkpt lat="40.76372007732883" lon="17.45722961830789"><ele>199.6</ele><time>2026-04-23T14:53:56.999Z</time></trkpt><trkpt lat="40.763666023534604" lon="17.457346507145825"><ele>199.39999999999998</ele><time>2026-04-23T14:53:58.999Z</time></trkpt><trkpt lat="40.76360913741703" lon="17.45745862153758"><ele>199.2</ele><time>2026-04-23T14:54:00.999Z</time></trkpt><trkpt lat="40.76354983466141" lon="17.45757275976524"><ele>199.0</ele><time>2026-04-23T14:54:02.999Z</time></trkpt><trkpt lat="40.763488776167684" lon="17.45768372217485"><ele>199.66666666666666</ele><time>2026-04-23T14:54:04.999Z</time></trkpt><trkpt lat="40.76343980345843" lon="17.45778675504759"><ele>200.33333333333331</ele><time>2026-04-23T14:54:06.999Z</time></trkpt><trkpt lat="40.763383111273896" lon="17.45788209435592"><ele>201.0</ele><time>2026-04-23T14:54:08.998Z</time></trkpt><trkpt lat="40.76339923409806" lon="17.45797649942707"><ele>201.66666666666669</ele><time>2026-04-23T14:54:10.998Z</time></trkpt><trkpt lat="40.76347124780336" lon="17.458059810237994"><ele>202.33333333333334</ele><time>2026-04-23T14:54:12.998Z</time></trkpt><trkpt lat="40.76353639549633" lon="17.458130193591675"><ele>203.0</ele><time>2026-04-23T14:54:14.998Z</time></trkpt><trkpt lat="40.763614022301326" lon="17.45807485256177"><ele>201.4</ele><time>2026-04-23T14:54:18.998Z</time></trkpt><trkpt lat="40.76370460638357" lon="17.458087603533883"><ele>199.8</ele><time>2026-04-23T14:54:20.998Z</time></trkpt><trkpt lat="40.76377701845823" lon="17.458143598895848"><ele>198.2</ele><time>2026-04-23T14:54:22.998Z</time></trkpt><trkpt lat="40.76385006355601" lon="17.458218735526987"><ele>196.6</ele><time>2026-04-23T14:54:24.998Z</time></trkpt><trkpt lat="40.76394012913139" lon="17.45826161403139"><ele>195.0</ele><time>2026-04-23T14:54:26.998Z</time></trkpt><trkpt lat="40.76402999056386" lon="17.458306441195102"><ele>195.0</ele><time>2026-04-23T14:54:28.998Z</time></trkpt><trkpt lat="40.76411461505088" lon="17.458379943258908"><ele>195.0</ele><time>2026-04-23T14:54:30.998Z</time></trkpt><trkpt lat="40.76421967876975" lon="17.458447822492648"><ele>195.0</ele><time>2026-04-23T14:54:32.998Z</time></trkpt><trkpt lat="40.76430141973549" lon="17.458470728293044"><ele>195.0</ele><time>2026-04-23T14:54:33.998Z</time></trkpt><trkpt lat="40.76440563176268" lon="17.458565135363667"><ele>195.0</ele><time>2026-04-23T14:54:35.998Z</time></trkpt><trkpt lat="40.76446454045203" lon="17.458608620452903"><ele>193.8</ele><time>2026-04-23T14:54:36.998Z</time></trkpt><trkpt lat="40.76458617333199" lon="17.458655003875304"><ele>192.6</ele><time>2026-04-23T14:54:38.998Z</time></trkpt><trkpt lat="40.7646626804435" lon="17.458704235759033"><ele>191.39999999999998</ele><time>2026-04-23T14:54:40.998Z</time></trkpt><trkpt lat="40.764768456379" lon="17.458694732835482"><ele>190.2</ele><time>2026-04-23T14:54:42.998Z</time></trkpt><trkpt lat="40.76487087354884" lon="17.4586946590007"><ele>189.0</ele><time>2026-04-23T14:54:44.998Z</time></trkpt><trkpt lat="40.764927665197796" lon="17.458767990165157"><ele>189.0</ele><time>2026-04-23T14:54:46.998Z</time></trkpt><trkpt lat="40.76502299360593" lon="17.458780176526094"><ele>189.0</ele><time>2026-04-23T14:54:50Z</time></trkpt><trkpt lat="40.7650767658935" lon="17.458829491633125"><ele>189.0</ele><time>2026-04-23T14:54:52Z</time></trkpt><trkpt lat="40.76517751153873" lon="17.458822740170554"><ele>189.0</ele><time>2026-04-23T14:54:55Z</time></trkpt><trkpt lat="40.76522715835851" lon="17.45873977215613"><ele>189.0</ele><time>2026-04-23T14:54:57Z</time></trkpt><trkpt lat="40.76530117353245" lon="17.45880188788173"><ele>189.0</ele><time>2026-04-23T14:54:59Z</time></trkpt><trkpt lat="40.765343966253845" lon="17.458907247249865"><ele>187.71428571428572</ele><time>2026-04-23T14:55:01Z</time></trkpt><trkpt lat="40.7653498403944" lon="17.459005567835916"><ele>186.42857142857144</ele><time>2026-04-23T14:55:03Z</time></trkpt><trkpt lat="40.76531939721177" lon="17.459092116698287"><ele>185.14285714285714</ele><time>2026-04-23T14:55:07Z</time></trkpt><trkpt lat="40.765359329125516" lon="17.459165725108203"><ele>183.85714285714286</ele><time>2026-04-23T14:55:10Z</time></trkpt><trkpt lat="40.76543254281312" lon="17.459173596541017"><ele>182.57142857142858</ele><time>2026-04-23T14:55:14Z</time></trkpt><trkpt lat="40.765489984107205" lon="17.45926203086697"><ele>181.28571428571428</ele><time>2026-04-23T14:55:17Z</time></trkpt><trkpt lat="40.76555221976781" lon="17.459236015875092"><ele>180.0</ele><time>2026-04-23T14:55:20Z</time></trkpt><trkpt lat="40.76562811489409" lon="17.45927575970354"><ele>180.0</ele><time>2026-04-23T14:55:23Z</time></trkpt><trkpt lat="40.76569024809056" lon="17.45933933170502"><ele>180.0</ele><time>2026-04-23T14:55:26Z</time></trkpt><trkpt lat="40.765735228180056" lon="17.459400392472237"><ele>180.0</ele><time>2026-04-23T14:55:28Z</time></trkpt><trkpt lat="40.76578872634899" lon="17.4594965200453"><ele>180.0</ele><time>2026-04-23T14:55:30.999Z</time></trkpt><trkpt lat="40.765859986712705" lon="17.45954536640674"><ele>180.0</ele><time>2026-04-23T14:55:34.999Z</time></trkpt><trkpt lat="40.76590565016816" lon="17.45961924406845"><ele>180.0</ele><time>2026-04-23T14:55:37.999Z</time></trkpt><trkpt lat="40.76596325840882" lon="17.45966905062406"><ele>177.25</ele><time>2026-04-23T14:55:40.999Z</time></trkpt><trkpt lat="40.766047902299526" lon="17.45967561509576"><ele>174.5</ele><time>2026-04-23T14:55:43.999Z</time></trkpt><trkpt lat="40.76611330592527" lon="17.459668481034814"><ele>171.75</ele><time>2026-04-23T14:55:46.999Z</time></trkpt><trkpt lat="40.76614851617678" lon="17.459739454211523"><ele>169.0</ele><time>2026-04-23T14:55:48.999Z</time></trkpt><trkpt lat="40.76638677605089" lon="17.459931251937128"><ele>169.0</ele><time>2026-04-23T14:55:50.999Z</time></trkpt><trkpt lat="40.76646194792049" lon="17.45999660257633"><ele>169.0</ele><time>2026-04-23T14:55:51.999Z</time></trkpt><trkpt lat="40.76651434914965" lon="17.460073611422196"><ele>169.0</ele><time>2026-04-23T14:55:52.999Z</time></trkpt><trkpt lat="40.76657145384427" lon="17.460164673424806"><ele>169.0</ele><time>2026-04-23T14:55:53.999Z</time></trkpt><trkpt lat="40.766586119285876" lon="17.46026180381893"><ele>169.0</ele><time>2026-04-23T14:55:54.999Z</time></trkpt><trkpt lat="40.76662818747192" lon="17.460346581417657"><ele>169.0</ele><time>2026-04-23T14:55:55.999Z</time></trkpt><trkpt lat="40.76671185609025" lon="17.46047582471832"><ele>168.71428571428572</ele><time>2026-04-23T14:55:57.999Z</time></trkpt><trkpt lat="40.76677926068468" lon="17.460523005358855"><ele>168.42857142857142</ele><time>2026-04-23T14:55:58.999Z</time></trkpt><trkpt lat="40.766844593127445" lon="17.46055716387331"><ele>168.14285714285714</ele><time>2026-04-23T14:55:59.999Z</time></trkpt><trkpt lat="40.76691097187001" lon="17.460595321720238"><ele>167.85714285714286</ele><time>2026-04-23T14:56:00.999Z</time></trkpt><trkpt lat="40.76698176200604" lon="17.460609945560822"><ele>167.57142857142858</ele><time>2026-04-23T14:56:01.999Z</time></trkpt><trkpt lat="40.767060878895364" lon="17.46058870373039"><ele>167.28571428571428</ele><time>2026-04-23T14:56:02.999Z</time></trkpt><trkpt lat="40.767136736663026" lon="17.460587428499988"><ele>167.0</ele><time>2026-04-23T14:56:03.999Z</time></trkpt><trkpt lat="40.76720879189121" lon="17.460592258547653"><ele>166.39999999999998</ele><time>2026-04-23T14:56:04.999Z</time></trkpt><trkpt lat="40.767313239900766" lon="17.46056617710182"><ele>165.79999999999998</ele><time>2026-04-23T14:56:06.999Z</time></trkpt><trkpt lat="40.767382413841545" lon="17.460535376385458"><ele>165.2</ele><time>2026-04-23T14:56:07.999Z</time></trkpt><trkpt lat="40.76749608674406" lon="17.46044834362173"><ele>164.6</ele><time>2026-04-23T14:56:09.999Z</time></trkpt><trkpt lat="40.76754844175245" lon="17.460399224988645"><ele>164.0</ele><time>2026-04-23T14:56:10.999Z</time></trkpt><trkpt lat="40.76763269205912" lon="17.460338454954996"><ele>162.2</ele><time>2026-04-23T14:56:12.999Z</time></trkpt><trkpt lat="40.76771413979358" lon="17.460342742043203"><ele>160.39999999999998</ele><time>2026-04-23T14:56:15.999Z</time></trkpt><trkpt lat="40.76779828589799" lon="17.460295648889844"><ele>158.6</ele><time>2026-04-23T14:56:18.998Z</time></trkpt><trkpt lat="40.767939302470495" lon="17.460189482146365"><ele>156.8</ele><time>2026-04-23T14:56:19.998Z</time></trkpt><trkpt lat="40.76801292308716" lon="17.460074781509647"><ele>155.0</ele><time>2026-04-23T14:56:21.998Z</time></trkpt><trkpt lat="40.768081202315" lon="17.460013290028915"><ele>155.0</ele><time>2026-04-23T14:56:23.998Z</time></trkpt><trkpt lat="40.768169826823566" lon="17.459985987056168"><ele>155.0</ele><time>2026-04-23T14:56:25.998Z</time></trkpt><trkpt lat="40.76826207054287" lon="17.45991603277921"><ele>155.0</ele><time>2026-04-23T14:56:28.998Z</time></trkpt><trkpt lat="40.76833198353651" lon="17.45985686759546"><ele>155.0</ele><time>2026-04-23T14:56:30.998Z</time></trkpt><trkpt lat="40.76843235543693" lon="17.45983156076876"><ele>155.0</ele><time>2026-04-23T14:56:32.998Z</time></trkpt><trkpt lat="40.768495163527305" lon="17.45981207104939"><ele>155.0</ele><time>2026-04-23T14:56:33.998Z</time></trkpt><trkpt lat="40.768559191991486" lon="17.45976908539208"><ele>152.8</ele><time>2026-04-23T14:56:34.998Z</time></trkpt><trkpt lat="40.76866109649986" lon="17.45969896606363"><ele>150.6</ele><time>2026-04-23T14:56:36.998Z</time></trkpt><trkpt lat="40.76873659256269" lon="17.459728107756774"><ele>148.4</ele><time>2026-04-23T14:56:37.998Z</time></trkpt><trkpt lat="40.7688207557054" lon="17.459766109810538"><ele>146.2</ele><time>2026-04-23T14:56:38.998Z</time></trkpt><trkpt lat="40.768906722185285" lon="17.459728412134886"><ele>144.0</ele><time>2026-04-23T14:56:40.998Z</time></trkpt><trkpt lat="40.768955668877084" lon="17.459638617024538"><ele>143.33333333333334</ele><time>2026-04-23T14:56:42.998Z</time></trkpt><trkpt lat="40.7690296045451" lon="17.459543396868195"><ele>142.66666666666666</ele><time>2026-04-23T14:56:43.998Z</time></trkpt><trkpt lat="40.76905905237416" lon="17.459456538195028"><ele>142.0</ele><time>2026-04-23T14:56:44.998Z</time></trkpt><trkpt lat="40.769132771709856" lon="17.459422439585584"><ele>141.33333333333331</ele><time>2026-04-23T14:56:46.998Z</time></trkpt><trkpt lat="40.76921332421496" lon="17.459470368875245"><ele>140.66666666666666</ele><time>2026-04-23T14:56:48.998Z</time></trkpt><trkpt lat="40.769287532024435" lon="17.45953043380976"><ele>140.0</ele><time>2026-04-23T14:56:50.998Z</time></trkpt><trkpt lat="40.76938105377373" lon="17.459531367255487"><ele>140.0</ele><time>2026-04-23T14:56:52.998Z</time></trkpt><trkpt lat="40.769458737575604" lon="17.45946780611701"><ele>140.0</ele><time>2026-04-23T14:56:54.998Z</time></trkpt><trkpt lat="40.76951509936337" lon="17.459402409568895"><ele>140.0</ele><time>2026-04-23T14:56:57Z</time></trkpt><trkpt lat="40.769544371681526" lon="17.45930303638869"><ele>140.0</ele><time>2026-04-23T14:56:59Z</time></trkpt><trkpt lat="40.769549540251916" lon="17.459192076863353"><ele>140.0</ele><time>2026-04-23T14:57:01Z</time></trkpt><trkpt lat="40.769577548869194" lon="17.459112589644292"><ele>140.0</ele><time>2026-04-23T14:57:03Z</time></trkpt><trkpt lat="40.76961105659392" lon="17.459013783517694"><ele>140.0</ele><time>2026-04-23T14:57:05Z</time></trkpt><trkpt lat="40.769632843423395" lon="17.45891019219803"><ele>140.0</ele><time>2026-04-23T14:57:07Z</time></trkpt><trkpt lat="40.76968274690381" lon="17.458803398846182"><ele>140.0</ele><time>2026-04-23T14:57:09Z</time></trkpt><trkpt lat="40.769707224367004" lon="17.458723611245276"><ele>140.0</ele><time>2026-04-23T14:57:11Z</time></trkpt><trkpt lat="40.769742277900285" lon="17.4586281484686"><ele>140.0</ele><time>2026-04-23T14:57:13Z</time></trkpt><trkpt lat="40.76976671605476" lon="17.458513301899284"><ele>140.0</ele><time>2026-04-23T14:57:15Z</time></trkpt><trkpt lat="40.76979562103447" lon="17.458409699527238"><ele>140.6</ele><time>2026-04-23T14:57:17Z</time></trkpt><trkpt lat="40.769829376859924" lon="17.458301674516527"><ele>141.2</ele><time>2026-04-23T14:57:19Z</time></trkpt><trkpt lat="40.769858534476796" lon="17.458202291241324"><ele>141.8</ele><time>2026-04-23T14:57:21Z</time></trkpt><trkpt lat="40.76989053187416" lon="17.458081359521373"><ele>142.4</ele><time>2026-04-23T14:57:23Z</time></trkpt><trkpt lat="40.76993792151165" lon="17.457971018027045"><ele>143.0</ele><time>2026-04-23T14:57:25Z</time></trkpt><trkpt lat="40.769977405740256" lon="17.45784544634623"><ele>142.6</ele><time>2026-04-23T14:57:27Z</time></trkpt><trkpt lat="40.77001947009806" lon="17.457732903250605"><ele>142.20000000000002</ele><time>2026-04-23T14:57:29Z</time></trkpt><trkpt lat="40.77006444935582" lon="17.45760959849012"><ele>141.8</ele><time>2026-04-23T14:57:31Z</time></trkpt><trkpt lat="40.770109097197086" lon="17.45748367406709"><ele>141.4</ele><time>2026-04-23T14:57:32.999Z</time></trkpt><trkpt lat="40.77015222533674" lon="17.457364337069638"><ele>141.0</ele><time>2026-04-23T14:57:34.999Z</time></trkpt><trkpt lat="40.770203602005104" lon="17.457213561393235"><ele>141.8</ele><time>2026-04-23T14:57:36.999Z</time></trkpt><trkpt lat="40.77023200366121" lon="17.457095157147997"><ele>142.6</ele><time>2026-04-23T14:57:38.999Z</time></trkpt><trkpt lat="40.7702629300211" lon="17.456962422037115"><ele>143.4</ele><time>2026-04-23T14:57:40.999Z</time></trkpt><trkpt lat="40.77029375887539" lon="17.456841232556275"><ele>144.2</ele><time>2026-04-23T14:57:42.999Z</time></trkpt><trkpt lat="40.77032488733348" lon="17.456711007950755"><ele>145.0</ele><time>2026-04-23T14:57:44.999Z</time></trkpt><trkpt lat="40.77036550760944" lon="17.45658867648136"><ele>145.0</ele><time>2026-04-23T14:57:46.999Z</time></trkpt><trkpt lat="40.770409027501046" lon="17.45646639855919"><ele>145.0</ele><time>2026-04-23T14:57:48.999Z</time></trkpt><trkpt lat="40.77042118582114" lon="17.456342495565867"><ele>145.0</ele><time>2026-04-23T14:57:50.999Z</time></trkpt><trkpt lat="40.77044099442338" lon="17.45622536036808"><ele>145.0</ele><time>2026-04-23T14:57:52.999Z</time></trkpt><trkpt lat="40.77043778450579" lon="17.456108064825354"><ele>145.0</ele><time>2026-04-23T14:57:54.999Z</time></trkpt><trkpt lat="40.77042250948075" lon="17.456007047512923"><ele>147.0</ele><time>2026-04-23T14:57:56.999Z</time></trkpt><trkpt lat="40.77041194997279" lon="17.45589871499157"><ele>149.0</ele><time>2026-04-23T14:57:58.999Z</time></trkpt><trkpt lat="40.770396256058476" lon="17.45578688640559"><ele>151.0</ele><time>2026-04-23T14:58:00.999Z</time></trkpt><trkpt lat="40.77038408399265" lon="17.45566880818167"><ele>153.0</ele><time>2026-04-23T14:58:02.999Z</time></trkpt><trkpt lat="40.770384454622466" lon="17.45556128119131"><ele>155.0</ele><time>2026-04-23T14:58:04.999Z</time></trkpt><trkpt lat="40.77036371584969" lon="17.45543693910745"><ele>157.0</ele><time>2026-04-23T14:58:07.999Z</time></trkpt><trkpt lat="40.77036161249463" lon="17.455312993958046"><ele>158.66666666666669</ele><time>2026-04-23T14:58:10.999Z</time></trkpt><trkpt lat="40.77035485084108" lon="17.455215599303465"><ele>160.33333333333334</ele><time>2026-04-23T14:58:12.999Z</time></trkpt><trkpt lat="40.77034464185831" lon="17.45512934825326"><ele>162.0</ele><time>2026-04-23T14:58:14.999Z</time></trkpt><trkpt lat="40.77033593933598" lon="17.455013142614416"><ele>163.66666666666666</ele><time>2026-04-23T14:58:16.999Z</time></trkpt><trkpt lat="40.770337182229895" lon="17.454920445588215"><ele>165.33333333333331</ele><time>2026-04-23T14:58:18.999Z</time></trkpt><trkpt lat="40.77032451834797" lon="17.454826286637484"><ele>167.0</ele><time>2026-04-23T14:58:20.998Z</time></trkpt><trkpt lat="40.770327527153576" lon="17.45471939488151"><ele>167.16666666666666</ele><time>2026-04-23T14:58:23.998Z</time></trkpt><trkpt lat="40.77032484842906" lon="17.454614866994984"><ele>167.33333333333331</ele><time>2026-04-23T14:58:26.998Z</time></trkpt><trkpt lat="40.770321901111465" lon="17.45452091132175"><ele>167.5</ele><time>2026-04-23T14:58:28.998Z</time></trkpt><trkpt lat="40.77029738276583" lon="17.454388583229246"><ele>167.66666666666666</ele><time>2026-04-23T14:58:30.998Z</time></trkpt><trkpt lat="40.77026963969893" lon="17.454296004563506"><ele>167.83333333333334</ele><time>2026-04-23T14:58:31.998Z</time></trkpt><trkpt lat="40.770230613068954" lon="17.454160855684318"><ele>168.0</ele><time>2026-04-23T14:58:33.998Z</time></trkpt><trkpt lat="40.77018548031471" lon="17.45404320561378"><ele>168.83333333333334</ele><time>2026-04-23T14:58:35.998Z</time></trkpt><trkpt lat="40.7701428503488" lon="17.453927648307435"><ele>169.66666666666666</ele><time>2026-04-23T14:58:37.998Z</time></trkpt><trkpt lat="40.77009537446667" lon="17.453823251526444"><ele>170.5</ele><time>2026-04-23T14:58:39.998Z</time></trkpt><trkpt lat="40.77003120805891" lon="17.45373584773605"><ele>171.33333333333331</ele><time>2026-04-23T14:58:41.998Z</time></trkpt><trkpt lat="40.77000225413356" lon="17.4536433263137"><ele>172.16666666666666</ele><time>2026-04-23T14:58:43.998Z</time></trkpt><trkpt lat="40.770062448899544" lon="17.453553514789984"><ele>173.0</ele><time>2026-04-23T14:58:45.998Z</time></trkpt><trkpt lat="40.770111200517256" lon="17.453500119383914"><ele>171.8</ele><time>2026-04-23T14:58:46.998Z</time></trkpt><trkpt lat="40.77019957480141" lon="17.45336800651501"><ele>170.60000000000002</ele><time>2026-04-23T14:58:48.998Z</time></trkpt><trkpt lat="40.77024428796294" lon="17.453295191414373"><ele>169.39999999999998</ele><time>2026-04-23T14:58:49.998Z</time></trkpt><trkpt lat="40.77026224189302" lon="17.453132990321016"><ele>168.2</ele><time>2026-04-23T14:58:51.998Z</time></trkpt><trkpt lat="40.77028142645321" lon="17.453046943353115"><ele>167.0</ele><time>2026-04-23T14:58:52.998Z</time></trkpt><trkpt lat="40.77035137494835" lon="17.45291995259468"><ele>166.75</ele><time>2026-04-23T14:58:54.998Z</time></trkpt><trkpt lat="40.77043187273424" lon="17.452777579512205"><ele>166.5</ele><time>2026-04-23T14:58:56.998Z</time></trkpt><trkpt lat="40.77050709207685" lon="17.452666048676832"><ele>166.25</ele><time>2026-04-23T14:58:58.998Z</time></trkpt><trkpt lat="40.770599623722156" lon="17.45258292820648"><ele>166.0</ele><time>2026-04-23T14:59:00.998Z</time></trkpt><trkpt lat="40.77068257802025" lon="17.452467981060074"><ele>166.0</ele><time>2026-04-23T14:59:03Z</time></trkpt><trkpt lat="40.770784782398856" lon="17.452366705557058"><ele>166.0</ele><time>2026-04-23T14:59:05Z</time></trkpt><trkpt lat="40.770847895689045" lon="17.452212259701618"><ele>166.0</ele><time>2026-04-23T14:59:07Z</time></trkpt><trkpt lat="40.77091542380189" lon="17.452082666750947"><ele>166.0</ele><time>2026-04-23T14:59:09Z</time></trkpt><trkpt lat="40.77096237324345" lon="17.452021825892626"><ele>166.0</ele><time>2026-04-23T14:59:10Z</time></trkpt><trkpt lat="40.771066495581884" lon="17.451936141306984"><ele>164.8</ele><time>2026-04-23T14:59:12Z</time></trkpt><trkpt lat="40.7711224283139" lon="17.45187443256727"><ele>163.60000000000002</ele><time>2026-04-23T14:59:13Z</time></trkpt><trkpt lat="40.771180483659435" lon="17.4518382060318"><ele>162.4</ele><time>2026-04-23T14:59:14Z</time></trkpt><trkpt lat="40.77130631423179" lon="17.451792781709823"><ele>161.2</ele><time>2026-04-23T14:59:16Z</time></trkpt><trkpt lat="40.77140921996152" lon="17.45170636854736"><ele>160.0</ele><time>2026-04-23T14:59:18Z</time></trkpt><trkpt lat="40.77145716181126" lon="17.451640377307903"><ele>160.0</ele><time>2026-04-23T14:59:19Z</time></trkpt><trkpt lat="40.77155035261144" lon="17.451555551842212"><ele>160.0</ele><time>2026-04-23T14:59:21Z</time></trkpt><trkpt lat="40.77157303106445" lon="17.451451493895785"><ele>160.0</ele><time>2026-04-23T14:59:23Z</time></trkpt><trkpt lat="40.77163400629087" lon="17.451315156508862"><ele>160.0</ele><time>2026-04-23T14:59:25Z</time></trkpt><trkpt lat="40.771709501781295" lon="17.451192374186363"><ele>160.0</ele><time>2026-04-23T14:59:27Z</time></trkpt><trkpt lat="40.771803910153864" lon="17.451119842342788"><ele>157.75</ele><time>2026-04-23T14:59:29Z</time></trkpt><trkpt lat="40.77188976200155" lon="17.45103436185897"><ele>155.5</ele><time>2026-04-23T14:59:31Z</time></trkpt><trkpt lat="40.7720014069887" lon="17.451079050664333"><ele>153.25</ele><time>2026-04-23T14:59:33Z</time></trkpt><trkpt lat="40.77212593395177" lon="17.451039745141394"><ele>151.0</ele><time>2026-04-23T14:59:35Z</time></trkpt><trkpt lat="40.77224924315879" lon="17.45099232939524"><ele>151.0</ele><time>2026-04-23T14:59:37Z</time></trkpt><trkpt lat="40.77231730298704" lon="17.450973369265903"><ele>151.0</ele><time>2026-04-23T14:59:38Z</time></trkpt><trkpt lat="40.77238392120078" lon="17.450942963438116"><ele>151.0</ele><time>2026-04-23T14:59:38.999Z</time></trkpt><trkpt lat="40.77244796674456" lon="17.450916039990698"><ele>151.0</ele><time>2026-04-23T14:59:39.999Z</time></trkpt><trkpt lat="40.77251338443425" lon="17.450906510215436"><ele>151.0</ele><time>2026-04-23T14:59:40.999Z</time></trkpt><trkpt lat="40.77263499468254" lon="17.450949467228874"><ele>151.0</ele><time>2026-04-23T14:59:42.999Z</time></trkpt><trkpt lat="40.772740466754485" lon="17.45098179629105"><ele>150.66666666666669</ele><time>2026-04-23T14:59:44.999Z</time></trkpt><trkpt lat="40.772809922171774" lon="17.45097391150487"><ele>150.33333333333334</ele><time>2026-04-23T14:59:45.999Z</time></trkpt><trkpt lat="40.77287868671272" lon="17.450975245240464"><ele>150.0</ele><time>2026-04-23T14:59:46.999Z</time></trkpt><trkpt lat="40.77293604889959" lon="17.451028108902708"><ele>149.66666666666666</ele><time>2026-04-23T14:59:47.999Z</time></trkpt><trkpt lat="40.77303012242114" lon="17.451077616816264"><ele>149.33333333333331</ele><time>2026-04-23T14:59:49.999Z</time></trkpt><trkpt lat="40.77305636664497" lon="17.45116310272609"><ele>149.0</ele><time>2026-04-23T14:59:51.999Z</time></trkpt><trkpt lat="40.77314325963463" lon="17.45117160163113"><ele>149.0</ele><time>2026-04-23T14:59:53.999Z</time></trkpt><trkpt lat="40.77324951805743" lon="17.451195081638403"><ele>149.0</ele><time>2026-04-23T14:59:55.999Z</time></trkpt><trkpt lat="40.77334018860447" lon="17.451292766906832"><ele>149.0</ele><time>2026-04-23T14:59:57.999Z</time></trkpt><trkpt lat="40.773430307262444" lon="17.451355137041496"><ele>149.0</ele><time>2026-04-23T14:59:59.999Z</time></trkpt><trkpt lat="40.773546910448324" lon="17.451390513632898"><ele>149.0</ele><time>2026-04-23T15:00:01.999Z</time></trkpt><trkpt lat="40.77365453959044" lon="17.451464140559903"><ele>148.5</ele><time>2026-04-23T15:00:03.999Z</time></trkpt><trkpt lat="40.77375683365538" lon="17.45153627945274"><ele>148.0</ele><time>2026-04-23T15:00:05.999Z</time></trkpt><trkpt lat="40.77380324582627" lon="17.45163014659177"><ele>147.5</ele><time>2026-04-23T15:00:07.999Z</time></trkpt><trkpt lat="40.773744626940356" lon="17.45171338807933"><ele>147.0</ele><time>2026-04-23T15:00:09.999Z</time></trkpt><trkpt lat="40.77369367176183" lon="17.45177839666031"><ele>146.5</ele><time>2026-04-23T15:00:11.999Z</time></trkpt><trkpt lat="40.77361635040207" lon="17.451831074833496"><ele>146.0</ele><time>2026-04-23T15:00:14.999Z</time></trkpt><trkpt lat="40.77354237456737" lon="17.451876663225338"><ele>147.16666666666666</ele><time>2026-04-23T15:00:17.999Z</time></trkpt><trkpt lat="40.773479968719606" lon="17.451943197904505"><ele>148.33333333333331</ele><time>2026-04-23T15:00:21.999Z</time></trkpt><trkpt lat="40.77348527032243" lon="17.45204478414665"><ele>149.5</ele><time>2026-04-23T15:00:23.999Z</time></trkpt><trkpt lat="40.773473020218084" lon="17.452127911668843"><ele>150.66666666666666</ele><time>2026-04-23T15:00:26.998Z</time></trkpt><trkpt lat="40.77345292078761" lon="17.452225919683805"><ele>151.83333333333334</ele><time>2026-04-23T15:00:29.998Z</time></trkpt><trkpt lat="40.77342605729397" lon="17.45233051482379"><ele>153.0</ele><time>2026-04-23T15:00:32.998Z</time></trkpt><trkpt lat="40.77338938780129" lon="17.452441413743"><ele>154.20000000000002</ele><time>2026-04-23T15:00:35.998Z</time></trkpt><trkpt lat="40.77335594564442" lon="17.452514402674733"><ele>155.4</ele><time>2026-04-23T15:00:37.998Z</time></trkpt><trkpt lat="40.773304432306055" lon="17.452662418637306"><ele>156.60000000000002</ele><time>2026-04-23T15:00:39.998Z</time></trkpt><trkpt lat="40.773274942440345" lon="17.4527833772316"><ele>157.8</ele><time>2026-04-23T15:00:41.998Z</time></trkpt><trkpt lat="40.773260424101245" lon="17.45286831377616"><ele>159.0</ele><time>2026-04-23T15:00:43.998Z</time></trkpt><trkpt lat="40.773226659459404" lon="17.45299649505044"><ele>159.5</ele><time>2026-04-23T15:00:45.998Z</time></trkpt><trkpt lat="40.773237322787494" lon="17.45307975877737"><ele>160.0</ele><time>2026-04-23T15:00:47.998Z</time></trkpt><trkpt lat="40.77328501453945" lon="17.45319344278284"><ele>160.5</ele><time>2026-04-23T15:00:51.998Z</time></trkpt><trkpt lat="40.773283351176076" lon="17.45327705144896"><ele>161.0</ele><time>2026-04-23T15:00:54.998Z</time></trkpt><trkpt lat="40.773286709576446" lon="17.453368288063608"><ele>161.5</ele><time>2026-04-23T15:00:56.998Z</time></trkpt><trkpt lat="40.77329959796739" lon="17.45345998280448"><ele>162.0</ele><time>2026-04-23T15:00:57.998Z</time></trkpt><trkpt lat="40.77332921377313" lon="17.453578629826705"><ele>162.0</ele><time>2026-04-23T15:00:59.998Z</time></trkpt><trkpt lat="40.773343143893804" lon="17.453703982390582"><ele>162.0</ele><time>2026-04-23T15:01:01.998Z</time></trkpt><trkpt lat="40.77331920436975" lon="17.453811929649397"><ele>162.0</ele><time>2026-04-23T15:01:03.998Z</time></trkpt><trkpt lat="40.773262763171566" lon="17.45391861387522"><ele>162.0</ele><time>2026-04-23T15:01:05.998Z</time></trkpt><trkpt lat="40.77321959544027" lon="17.454015855300845"><ele>162.0</ele><time>2026-04-23T15:01:08Z</time></trkpt><trkpt lat="40.77314919066861" lon="17.454110690096503"><ele>161.66666666666666</ele><time>2026-04-23T15:01:10Z</time></trkpt><trkpt lat="40.77311457880409" lon="17.454264131610767"><ele>161.33333333333334</ele><time>2026-04-23T15:01:12Z</time></trkpt><trkpt lat="40.773110204254465" lon="17.45435880308817"><ele>161.0</ele><time>2026-04-23T15:01:13Z</time></trkpt><trkpt lat="40.77313106044388" lon="17.454478241349925"><ele>160.66666666666669</ele><time>2026-04-23T15:01:14Z</time></trkpt><trkpt lat="40.77316501983765" lon="17.454576074642105"><ele>160.33333333333334</ele><time>2026-04-23T15:01:15Z</time></trkpt><trkpt lat="40.773181530482674" lon="17.454681846737813"><ele>160.0</ele><time>2026-04-23T15:01:16Z</time></trkpt><trkpt lat="40.773182991003154" lon="17.45478580574157"><ele>158.6</ele><time>2026-04-23T15:01:17Z</time></trkpt><trkpt lat="40.77317361402577" lon="17.454919814538165"><ele>157.2</ele><time>2026-04-23T15:01:18Z</time></trkpt><trkpt lat="40.77316846964996" lon="17.455046095663484"><ele>155.8</ele><time>2026-04-23T15:01:19Z</time></trkpt><trkpt lat="40.77317385759918" lon="17.45516363343134"><ele>154.4</ele><time>2026-04-23T15:01:20Z</time></trkpt><trkpt lat="40.77318093204907" lon="17.455326339069682"><ele>153.0</ele><time>2026-04-23T15:01:21Z</time></trkpt><trkpt lat="40.773180711632904" lon="17.455439210766105"><ele>150.6</ele><time>2026-04-23T15:01:22Z</time></trkpt><trkpt lat="40.773165235577615" lon="17.455610831184732"><ele>148.20000000000002</ele><time>2026-04-23T15:01:23Z</time></trkpt><trkpt lat="40.773186719900316" lon="17.455722861674722"><ele>145.8</ele><time>2026-04-23T15:01:24Z</time></trkpt><trkpt lat="40.773213293707904" lon="17.455850577183732"><ele>143.4</ele><time>2026-04-23T15:01:25Z</time></trkpt><trkpt lat="40.77322982167162" lon="17.455972899039068"><ele>141.0</ele><time>2026-04-23T15:01:26Z</time></trkpt><trkpt lat="40.77325499311122" lon="17.456107954041745"><ele>141.0</ele><time>2026-04-23T15:01:27Z</time></trkpt><trkpt lat="40.77327340861713" lon="17.456221444671474"><ele>141.0</ele><time>2026-04-23T15:01:28Z</time></trkpt><trkpt lat="40.7733073678024" lon="17.456322885861884"><ele>141.0</ele><time>2026-04-23T15:01:29Z</time></trkpt><trkpt lat="40.77336250987374" lon="17.45643003015851"><ele>141.0</ele><time>2026-04-23T15:01:30Z</time></trkpt><trkpt lat="40.77342326605862" lon="17.456503436763402"><ele>141.0</ele><time>2026-04-23T15:01:31Z</time></trkpt><trkpt lat="40.77345982169471" lon="17.456608041645914"><ele>141.0</ele><time>2026-04-23T15:01:32Z</time></trkpt><trkpt lat="40.77347882585693" lon="17.456695354276736"><ele>140.0</ele><time>2026-04-23T15:01:33Z</time></trkpt><trkpt lat="40.77351081233871" lon="17.456789024521008"><ele>139.0</ele><time>2026-04-23T15:01:35Z</time></trkpt><trkpt lat="40.77345455429922" lon="17.456855664711963"><ele>138.0</ele><time>2026-04-23T15:01:38Z</time></trkpt><trkpt lat="40.77338612123472" lon="17.456890651172753"><ele>137.0</ele><time>2026-04-23T15:01:40Z</time></trkpt><trkpt lat="40.773313584268166" lon="17.45693978695729"><ele>136.0</ele><time>2026-04-23T15:01:42Z</time></trkpt><trkpt lat="40.773222325088916" lon="17.457004212899573"><ele>135.0</ele><time>2026-04-23T15:01:44Z</time></trkpt><trkpt lat="40.77313390351396" lon="17.45707219683049"><ele>134.4</ele><time>2026-04-23T15:01:46Z</time></trkpt><trkpt lat="40.77302429483768" lon="17.457138951604154"><ele>133.8</ele><time>2026-04-23T15:01:47.999Z</time></trkpt><trkpt lat="40.77291026516081" lon="17.45719656488574"><ele>133.2</ele><time>2026-04-23T15:01:49.999Z</time></trkpt><trkpt lat="40.77279821153042" lon="17.457263379927046"><ele>132.6</ele><time>2026-04-23T15:01:51.999Z</time></trkpt><trkpt lat="40.772736903459126" lon="17.457293146520527"><ele>132.0</ele><time>2026-04-23T15:01:52.999Z</time></trkpt><trkpt lat="40.7726319178266" lon="17.45733848868772"><ele>132.0</ele><time>2026-04-23T15:01:54.999Z</time></trkpt><trkpt lat="40.77253914172953" lon="17.45740321944044"><ele>132.0</ele><time>2026-04-23T15:01:56.999Z</time></trkpt><trkpt lat="40.772457194492155" lon="17.457455635637174"><ele>132.0</ele><time>2026-04-23T15:01:58.999Z</time></trkpt><trkpt lat="40.77237323790696" lon="17.457502601461222"><ele>132.0</ele><time>2026-04-23T15:02:00.999Z</time></trkpt><trkpt lat="40.77227544816255" lon="17.457559503760276"><ele>132.0</ele><time>2026-04-23T15:02:02.999Z</time></trkpt><trkpt lat="40.77217409755453" lon="17.45761728031251"><ele>132.0</ele><time>2026-04-23T15:02:04.999Z</time></trkpt><trkpt lat="40.77207137940081" lon="17.457682479861443"><ele>132.0</ele><time>2026-04-23T15:02:06.999Z</time></trkpt><trkpt lat="40.771970007235026" lon="17.457769780168714"><ele>132.0</ele><time>2026-04-23T15:02:08.999Z</time></trkpt><trkpt lat="40.77188275842564" lon="17.457853004121993"><ele>132.0</ele><time>2026-04-23T15:02:10.999Z</time></trkpt><trkpt lat="40.77183076477723" lon="17.457903393036947"><ele>132.0</ele><time>2026-04-23T15:02:11.999Z</time></trkpt><trkpt lat="40.77173433352278" lon="17.458006886341643"><ele>132.0</ele><time>2026-04-23T15:02:13.999Z</time></trkpt><trkpt lat="40.77163814392557" lon="17.458100968634653"><ele>132.0</ele><time>2026-04-23T15:02:15.999Z</time></trkpt><trkpt lat="40.771532256142834" lon="17.458127302168467"><ele>132.0</ele><time>2026-04-23T15:02:17.999Z</time></trkpt><trkpt lat="40.7714235799923" lon="17.458164561141952"><ele>132.0</ele><time>2026-04-23T15:02:19.999Z</time></trkpt><trkpt lat="40.77132159466428" lon="17.458219005274202"><ele>132.0</ele><time>2026-04-23T15:02:21.999Z</time></trkpt><trkpt lat="40.771220204237515" lon="17.458286159003606"><ele>132.0</ele><time>2026-04-23T15:02:23.999Z</time></trkpt><trkpt lat="40.77112085558399" lon="17.458347636993967"><ele>132.0</ele><time>2026-04-23T15:02:25.999Z</time></trkpt><trkpt lat="40.77102100858997" lon="17.458408358985064"><ele>132.0</ele><time>2026-04-23T15:02:27.999Z</time></trkpt><trkpt lat="40.770920204832386" lon="17.458478921964296"><ele>132.0</ele><time>2026-04-23T15:02:29.999Z</time></trkpt><trkpt lat="40.770818308731734" lon="17.45854104645054"><ele>132.33333333333334</ele><time>2026-04-23T15:02:31.999Z</time></trkpt><trkpt lat="40.77074964183791" lon="17.458617679767897"><ele>132.66666666666666</ele><time>2026-04-23T15:02:33.999Z</time></trkpt><trkpt lat="40.77076054344391" lon="17.458743875591587"><ele>133.0</ele><time>2026-04-23T15:02:35.998Z</time></trkpt><trkpt lat="40.77079421477377" lon="17.458814541458768"><ele>133.33333333333331</ele><time>2026-04-23T15:02:36.998Z</time></trkpt><trkpt lat="40.770793691242474" lon="17.45896781730767"><ele>133.66666666666666</ele><time>2026-04-23T15:02:38.998Z</time></trkpt><trkpt lat="40.77077092341835" lon="17.459046392068256"><ele>134.0</ele><time>2026-04-23T15:02:39.998Z</time></trkpt><trkpt lat="40.77071068546009" lon="17.459211214804647"><ele>134.0</ele><time>2026-04-23T15:02:41.998Z</time></trkpt><trkpt lat="40.770666660333504" lon="17.45933885201664"><ele>134.0</ele><time>2026-04-23T15:02:43.998Z</time></trkpt><trkpt lat="40.77063234460852" lon="17.459412433705157"><ele>134.0</ele><time>2026-04-23T15:02:44.998Z</time></trkpt><trkpt lat="40.7705670274452" lon="17.459547638335025"><ele>134.0</ele><time>2026-04-23T15:02:46.998Z</time></trkpt><trkpt lat="40.77049541928558" lon="17.4596747780123"><ele>134.0</ele><time>2026-04-23T15:02:48.998Z</time></trkpt><trkpt lat="40.7704332174145" lon="17.459804118915454"><ele>134.2</ele><time>2026-04-23T15:02:50.998Z</time></trkpt><trkpt lat="40.77034920103896" lon="17.459924570336533"><ele>134.4</ele><time>2026-04-23T15:02:52.998Z</time></trkpt><trkpt lat="40.7702547099576" lon="17.459933934864736"><ele>134.6</ele><time>2026-04-23T15:02:54.998Z</time></trkpt><trkpt lat="40.7701829169964" lon="17.459825228827505"><ele>134.8</ele><time>2026-04-23T15:02:56.998Z</time></trkpt><trkpt lat="40.77011171359047" lon="17.45972141998277"><ele>135.0</ele><time>2026-04-23T15:02:58.998Z</time></trkpt><trkpt lat="40.77004994034138" lon="17.459648490446284"><ele>136.0</ele><time>2026-04-23T15:03:00.998Z</time></trkpt><trkpt lat="40.76995464762028" lon="17.459611836219665"><ele>137.0</ele><time>2026-04-23T15:03:02.998Z</time></trkpt><trkpt lat="40.7698615238709" lon="17.459592445663503"><ele>138.0</ele><time>2026-04-23T15:03:04.998Z</time></trkpt><trkpt lat="40.76976351744822" lon="17.45960707507921"><ele>139.0</ele><time>2026-04-23T15:03:06.998Z</time></trkpt><trkpt lat="40.76967381025657" lon="17.459602887913444"><ele>140.0</ele><time>2026-04-23T15:03:08.998Z</time></trkpt><trkpt lat="40.769594403228076" lon="17.459530998617748"><ele>140.0</ele><time>2026-04-23T15:03:10.998Z</time></trkpt><trkpt lat="40.76952728680529" lon="17.459468628427413"><ele>140.0</ele><time>2026-04-23T15:03:12.998Z</time></trkpt><trkpt lat="40.76945161160656" lon="17.4594395782989"><ele>140.0</ele><time>2026-04-23T15:03:15Z</time></trkpt><trkpt lat="40.76936565513374" lon="17.45946784604878"><ele>140.0</ele><time>2026-04-23T15:03:17Z</time></trkpt><trkpt lat="40.769289080786216" lon="17.459508320665616"><ele>140.0</ele><time>2026-04-23T15:03:19Z</time></trkpt><trkpt lat="40.76921186182999" lon="17.45946789202431"><ele>140.0</ele><time>2026-04-23T15:03:21Z</time></trkpt><trkpt lat="40.769157394367966" lon="17.45937907913342"><ele>141.83333333333331</ele><time>2026-04-23T15:03:23Z</time></trkpt><trkpt lat="40.769095495696945" lon="17.459315477996245"><ele>143.66666666666666</ele><time>2026-04-23T15:03:25Z</time></trkpt><trkpt lat="40.769017781597434" lon="17.45927856306452"><ele>145.5</ele><time>2026-04-23T15:03:27Z</time></trkpt><trkpt lat="40.76893112471364" lon="17.459259469679154"><ele>147.33333333333334</ele><time>2026-04-23T15:03:29Z</time></trkpt><trkpt lat="40.76884062762001" lon="17.45925533167672"><ele>149.16666666666669</ele><time>2026-04-23T15:03:31Z</time></trkpt><trkpt lat="40.76876275502283" lon="17.45931054603423"><ele>151.0</ele><time>2026-04-23T15:03:33Z</time></trkpt><trkpt lat="40.76865895382278" lon="17.45937406715127"><ele>151.0</ele><time>2026-04-23T15:03:35Z</time></trkpt><trkpt lat="40.768588584717946" lon="17.45941191822874"><ele>151.0</ele><time>2026-04-23T15:03:37Z</time></trkpt><trkpt lat="40.76849794352547" lon="17.459431826478347"><ele>151.0</ele><time>2026-04-23T15:03:39Z</time></trkpt><trkpt lat="40.768412575097216" lon="17.459452604802387"><ele>151.0</ele><time>2026-04-23T15:03:41Z</time></trkpt><trkpt lat="40.76833078528729" lon="17.45950560084157"><ele>151.0</ele><time>2026-04-23T15:03:43Z</time></trkpt><trkpt lat="40.76825579539207" lon="17.45957069741369"><ele>151.0</ele><time>2026-04-23T15:03:45Z</time></trkpt><trkpt lat="40.76818783270498" lon="17.459660597346886"><ele>151.8</ele><time>2026-04-23T15:03:47Z</time></trkpt><trkpt lat="40.768102049110254" lon="17.45973041650597"><ele>152.6</ele><time>2026-04-23T15:03:49Z</time></trkpt><trkpt lat="40.76800409767911" lon="17.45978007516839"><ele>153.4</ele><time>2026-04-23T15:03:51Z</time></trkpt><trkpt lat="40.767919859396" lon="17.45984164890491"><ele>154.2</ele><time>2026-04-23T15:03:52.999Z</time></trkpt><trkpt lat="40.76782821262311" lon="17.459884717338067"><ele>155.0</ele><time>2026-04-23T15:03:54.999Z</time></trkpt><trkpt lat="40.76773547142899" lon="17.459952848553485"><ele>156.8</ele><time>2026-04-23T15:03:56.999Z</time></trkpt><trkpt lat="40.767653192175246" lon="17.460005876972797"><ele>158.6</ele><time>2026-04-23T15:03:58.999Z</time></trkpt><trkpt lat="40.7675711845805" lon="17.460090552236636"><ele>160.39999999999998</ele><time>2026-04-23T15:04:00.999Z</time></trkpt><trkpt lat="40.7674903544743" lon="17.460180216404893"><ele>162.2</ele><time>2026-04-23T15:04:02.999Z</time></trkpt><trkpt lat="40.767412440964875" lon="17.460269573410205"><ele>164.0</ele><time>2026-04-23T15:04:04.999Z</time></trkpt><trkpt lat="40.767325951302595" lon="17.460350737324465"><ele>164.0</ele><time>2026-04-23T15:04:06.999Z</time></trkpt><trkpt lat="40.76724669760133" lon="17.460414364613936"><ele>164.0</ele><time>2026-04-23T15:04:08.999Z</time></trkpt><trkpt lat="40.76717340173273" lon="17.46047245074582"><ele>164.0</ele><time>2026-04-23T15:04:10.999Z</time></trkpt><trkpt lat="40.76708655951922" lon="17.460526002545212"><ele>164.0</ele><time>2026-04-23T15:04:12.999Z</time></trkpt><trkpt lat="40.76698572481967" lon="17.460545352272877"><ele>164.0</ele><time>2026-04-23T15:04:14.999Z</time></trkpt><trkpt lat="40.76688809775913" lon="17.4605340146218"><ele>164.6</ele><time>2026-04-23T15:04:16.999Z</time></trkpt><trkpt lat="40.76679535424628" lon="17.460491643642243"><ele>165.2</ele><time>2026-04-23T15:04:18.999Z</time></trkpt><trkpt lat="40.76671269868444" lon="17.46039733085254"><ele>165.79999999999998</ele><time>2026-04-23T15:04:20.999Z</time></trkpt><trkpt lat="40.76665962616343" lon="17.460311878829213"><ele>166.39999999999998</ele><time>2026-04-23T15:04:22.999Z</time></trkpt><trkpt lat="40.76663624220974" lon="17.46017755924681"><ele>167.0</ele><time>2026-04-23T15:04:24.999Z</time></trkpt><trkpt lat="40.7666011390256" lon="17.460042518519362"><ele>167.39999999999998</ele><time>2026-04-23T15:04:26.999Z</time></trkpt><trkpt lat="40.76651057861512" lon="17.459950791854187"><ele>167.79999999999998</ele><time>2026-04-23T15:04:28.999Z</time></trkpt><trkpt lat="40.766438616303" lon="17.459864758533886"><ele>168.2</ele><time>2026-04-23T15:04:30.999Z</time></trkpt><trkpt lat="40.766372253570104" lon="17.45980495844133"><ele>168.6</ele><time>2026-04-23T15:04:32.999Z</time></trkpt><trkpt lat="40.766313595478294" lon="17.459734666638347"><ele>169.0</ele><time>2026-04-23T15:04:34.999Z</time></trkpt><trkpt lat="40.76625270495057" lon="17.459663699610882"><ele>170.0</ele><time>2026-04-23T15:04:36.999Z</time></trkpt><trkpt lat="40.76619484130916" lon="17.459585713596415"><ele>171.0</ele><time>2026-04-23T15:04:38.999Z</time></trkpt><trkpt lat="40.76616901871245" lon="17.459509438644695"><ele>172.0</ele><time>2026-04-23T15:04:40.998Z</time></trkpt><trkpt lat="40.7662078287628" lon="17.459390120044407"><ele>173.0</ele><time>2026-04-23T15:04:42.998Z</time></trkpt><trkpt lat="40.766234686985705" lon="17.459293045371"><ele>174.0</ele><time>2026-04-23T15:04:44.998Z</time></trkpt><trkpt lat="40.76626334035559" lon="17.459197869862795"><ele>175.0</ele><time>2026-04-23T15:04:46.998Z</time></trkpt><trkpt lat="40.766297293024834" lon="17.459095780886226"><ele>175.0</ele><time>2026-04-23T15:04:48.998Z</time></trkpt><trkpt lat="40.76635922023648" lon="17.459029417338517"><ele>175.0</ele><time>2026-04-23T15:04:50.998Z</time></trkpt><trkpt lat="40.76644439079412" lon="17.458987743211697"><ele>175.0</ele><time>2026-04-23T15:04:53.998Z</time></trkpt><trkpt lat="40.76647446897736" lon="17.458887539945025"><ele>175.0</ele><time>2026-04-23T15:04:55.998Z</time></trkpt><trkpt lat="40.766497263075756" lon="17.458775064440527"><ele>175.0</ele><time>2026-04-23T15:04:57.998Z</time></trkpt><trkpt lat="40.766530353181274" lon="17.458679133779917"><ele>175.0</ele><time>2026-04-23T15:04:59.998Z</time></trkpt><trkpt lat="40.766532869261" lon="17.458576026910123"><ele>175.33333333333334</ele><time>2026-04-23T15:05:01.998Z</time></trkpt><trkpt lat="40.766513984942286" lon="17.458465953417672"><ele>175.66666666666669</ele><time>2026-04-23T15:05:03.998Z</time></trkpt><trkpt lat="40.76646024755476" lon="17.45837724918529"><ele>176.0</ele><time>2026-04-23T15:05:05.998Z</time></trkpt><trkpt lat="40.76650565686748" lon="17.458276415475094"><ele>176.33333333333334</ele><time>2026-04-23T15:05:07.998Z</time></trkpt><trkpt lat="40.7665752741111" lon="17.45825779448546"><ele>176.66666666666666</ele><time>2026-04-23T15:05:09.998Z</time></trkpt><trkpt lat="40.76662840726604" lon="17.458189497631906"><ele>177.0</ele><time>2026-04-23T15:05:13.998Z</time></trkpt><trkpt lat="40.76663251614837" lon="17.45809592944972"><ele>177.0</ele><time>2026-04-23T15:05:15.998Z</time></trkpt><trkpt lat="40.76668280278537" lon="17.458017372128577"><ele>177.0</ele><time>2026-04-23T15:05:18.998Z</time></trkpt><trkpt lat="40.76670483973492" lon="17.457923177470647"><ele>177.0</ele><time>2026-04-23T15:05:22Z</time></trkpt><trkpt lat="40.766737127653585" lon="17.45784696372372"><ele>177.0</ele><time>2026-04-23T15:05:24Z</time></trkpt><trkpt lat="40.76679532332392" lon="17.457782077334926"><ele>177.0</ele><time>2026-04-23T15:05:27Z</time></trkpt><trkpt lat="40.766879397546084" lon="17.457794530421427"><ele>177.0</ele><time>2026-04-23T15:05:31Z</time></trkpt><trkpt lat="40.76696289864971" lon="17.45777429064811"><ele>177.57142857142858</ele><time>2026-04-23T15:05:34Z</time></trkpt><trkpt lat="40.766985725318456" lon="17.457693220826087"><ele>178.14285714285714</ele><time>2026-04-23T15:05:38Z</time></trkpt><trkpt lat="40.767007111807835" lon="17.457614236871976"><ele>178.71428571428572</ele><time>2026-04-23T15:05:41Z</time></trkpt><trkpt lat="40.76701786953944" lon="17.457502066612687"><ele>179.28571428571428</ele><time>2026-04-23T15:05:43Z</time></trkpt><trkpt lat="40.76701478350041" lon="17.457394337648793"><ele>179.85714285714283</ele><time>2026-04-23T15:05:45Z</time></trkpt><trkpt lat="40.76706012615088" lon="17.45731829915696"><ele>180.42857142857142</ele><time>2026-04-23T15:05:47Z</time></trkpt><trkpt lat="40.7670932433818" lon="17.457233982246684"><ele>181.0</ele><time>2026-04-23T15:05:49Z</time></trkpt><trkpt lat="40.76713197427391" lon="17.4571183269901"><ele>181.4</ele><time>2026-04-23T15:05:51Z</time></trkpt><trkpt lat="40.76716677261658" lon="17.457010109561413"><ele>181.8</ele><time>2026-04-23T15:05:53Z</time></trkpt><trkpt lat="40.76721207298458" lon="17.456896809583554"><ele>182.20000000000002</ele><time>2026-04-23T15:05:55Z</time></trkpt><trkpt lat="40.76726440945849" lon="17.456781051447553"><ele>182.60000000000002</ele><time>2026-04-23T15:05:56.999Z</time></trkpt><trkpt lat="40.767310039673916" lon="17.45667138352072"><ele>183.0</ele><time>2026-04-23T15:05:58.999Z</time></trkpt><trkpt lat="40.767346650877094" lon="17.456559110332883"><ele>183.0</ele><time>2026-04-23T15:06:00.999Z</time></trkpt><trkpt lat="40.76738386909965" lon="17.456456017165568"><ele>183.0</ele><time>2026-04-23T15:06:02.999Z</time></trkpt><trkpt lat="40.76742689109749" lon="17.456338718834058"><ele>183.0</ele><time>2026-04-23T15:06:04.999Z</time></trkpt><trkpt lat="40.767477769793715" lon="17.456223706343614"><ele>183.0</ele><time>2026-04-23T15:06:06.999Z</time></trkpt><trkpt lat="40.76751336105596" lon="17.456117482980357"><ele>183.0</ele><time>2026-04-23T15:06:08.999Z</time></trkpt><trkpt lat="40.76761629271875" lon="17.45610481735387"><ele>183.0</ele><time>2026-04-23T15:06:11.999Z</time></trkpt><trkpt lat="40.76769888705344" lon="17.456091332536563"><ele>183.0</ele><time>2026-04-23T15:06:13.999Z</time></trkpt><trkpt lat="40.76774300879832" lon="17.455973198260867"><ele>183.0</ele><time>2026-04-23T15:06:15.999Z</time></trkpt><trkpt lat="40.76779749974334" lon="17.455869870310064"><ele>183.0</ele><time>2026-04-23T15:06:17.999Z</time></trkpt><trkpt lat="40.76787774870597" lon="17.455835283996386"><ele>183.0</ele><time>2026-04-23T15:06:19.999Z</time></trkpt><trkpt lat="40.767895369052184" lon="17.45570898920847"><ele>183.0</ele><time>2026-04-23T15:06:21.999Z</time></trkpt><trkpt lat="40.76790348808028" lon="17.45559910733538"><ele>183.0</ele><time>2026-04-23T15:06:23.999Z</time></trkpt><trkpt lat="40.76794603116795" lon="17.455470608170224"><ele>183.0</ele><time>2026-04-23T15:06:25.999Z</time></trkpt><trkpt lat="40.76801249322358" lon="17.455426505204127"><ele>183.0</ele><time>2026-04-23T15:06:27.999Z</time></trkpt><trkpt lat="40.76796626023398" lon="17.455366143046568"><ele>183.0</ele><time>2026-04-23T15:06:29.999Z</time></trkpt><trkpt lat="40.76789910377721" lon="17.455325577220723"><ele>183.0</ele><time>2026-04-23T15:06:31.999Z</time></trkpt><trkpt lat="40.76787602378441" lon="17.455212620436853"><ele>182.8</ele><time>2026-04-23T15:06:33.999Z</time></trkpt><trkpt lat="40.76785290709031" lon="17.455107861698032"><ele>182.60000000000002</ele><time>2026-04-23T15:06:35.999Z</time></trkpt><trkpt lat="40.76787683738126" lon="17.454966476351537"><ele>182.39999999999998</ele><time>2026-04-23T15:06:37.999Z</time></trkpt><trkpt lat="40.767919469285076" lon="17.454847933749296"><ele>182.2</ele><time>2026-04-23T15:06:39.999Z</time></trkpt><trkpt lat="40.76798791497037" lon="17.45475112533069"><ele>182.0</ele><time>2026-04-23T15:06:41.999Z</time></trkpt><trkpt lat="40.768077225202425" lon="17.45465524817628"><ele>181.39999999999998</ele><time>2026-04-23T15:06:43.998Z</time></trkpt><trkpt lat="40.76810285408602" lon="17.454517000767673"><ele>180.79999999999998</ele><time>2026-04-23T15:06:45.998Z</time></trkpt><trkpt lat="40.76813536251749" lon="17.45437012700497"><ele>180.2</ele><time>2026-04-23T15:06:47.998Z</time></trkpt><trkpt lat="40.768186322982615" lon="17.454311137418177"><ele>179.6</ele><time>2026-04-23T15:06:48.998Z</time></trkpt><trkpt lat="40.768280008653015" lon="17.454196705476924"><ele>179.0</ele><time>2026-04-23T15:06:50.998Z</time></trkpt><trkpt lat="40.76833724686886" lon="17.454093449933715"><ele>179.0</ele><time>2026-04-23T15:06:52.998Z</time></trkpt><trkpt lat="40.76839590267994" lon="17.454001816213125"><ele>179.0</ele><time>2026-04-23T15:06:54.998Z</time></trkpt><trkpt lat="40.768454245431265" lon="17.45389322316302"><ele>179.0</ele><time>2026-04-23T15:06:56.998Z</time></trkpt><trkpt lat="40.76850968342715" lon="17.45379828062261"><ele>179.0</ele><time>2026-04-23T15:06:58.998Z</time></trkpt><trkpt lat="40.7685586165937" lon="17.45367914627476"><ele>179.0</ele><time>2026-04-23T15:07:00.998Z</time></trkpt><trkpt lat="40.768582592437" lon="17.4535659475352"><ele>179.14285714285717</ele><time>2026-04-23T15:07:02.998Z</time></trkpt><trkpt lat="40.76854956310666" lon="17.453453628201892"><ele>179.28571428571428</ele><time>2026-04-23T15:07:04.998Z</time></trkpt><trkpt lat="40.76848820182874" lon="17.453396873986375"><ele>179.42857142857144</ele><time>2026-04-23T15:07:06.998Z</time></trkpt><trkpt lat="40.768424512768455" lon="17.453371017086873"><ele>179.57142857142858</ele><time>2026-04-23T15:07:08.998Z</time></trkpt><trkpt lat="40.76835781779166" lon="17.45333260712527"><ele>179.71428571428572</ele><time>2026-04-23T15:07:10.998Z</time></trkpt><trkpt lat="40.76829379110367" lon="17.453300403077765"><ele>179.85714285714286</ele><time>2026-04-23T15:07:12.998Z</time></trkpt><trkpt lat="40.76823162314379" lon="17.453268363723065"><ele>180.0</ele><time>2026-04-23T15:07:14.998Z</time></trkpt><trkpt lat="40.7681499044807" lon="17.45321693157422"><ele>180.0</ele><time>2026-04-23T15:07:16.998Z</time></trkpt><trkpt lat="40.76805174900718" lon="17.45316701510273"><ele>180.0</ele><time>2026-04-23T15:07:19.998Z</time></trkpt><trkpt lat="40.767980484337855" lon="17.45312932006526"><ele>180.0</ele><time>2026-04-23T15:07:21.998Z</time></trkpt><trkpt lat="40.76791250020165" lon="17.45308345066481"><ele>180.0</ele><time>2026-04-23T15:07:23.998Z</time></trkpt><trkpt lat="40.76782636124154" lon="17.453043043731824"><ele>180.0</ele><time>2026-04-23T15:07:26Z</time></trkpt><trkpt lat="40.76774692856072" lon="17.45299534436817"><ele>180.0</ele><time>2026-04-23T15:07:28Z</time></trkpt><trkpt lat="40.767652758113734" lon="17.45294426076051"><ele>181.33333333333334</ele><time>2026-04-23T15:07:30Z</time></trkpt><trkpt lat="40.76756887722206" lon="17.4528905581599"><ele>182.66666666666666</ele><time>2026-04-23T15:07:32Z</time></trkpt><trkpt lat="40.767476003853695" lon="17.452854372698997"><ele>184.0</ele><time>2026-04-23T15:07:34Z</time></trkpt><trkpt lat="40.76740149923859" lon="17.452811107364745"><ele>185.33333333333331</ele><time>2026-04-23T15:07:36Z</time></trkpt><trkpt lat="40.76732215473451" lon="17.452758302055265"><ele>186.66666666666666</ele><time>2026-04-23T15:07:38Z</time></trkpt><trkpt lat="40.76724326057297" lon="17.452723608788304"><ele>188.0</ele><time>2026-04-23T15:07:40Z</time></trkpt><trkpt lat="40.767169392224666" lon="17.45267570177327"><ele>188.0</ele><time>2026-04-23T15:07:42Z</time></trkpt><trkpt lat="40.767085923212896" lon="17.452624138302415"><ele>188.0</ele><time>2026-04-23T15:07:44Z</time></trkpt><trkpt lat="40.76700393883165" lon="17.452580483640432"><ele>188.0</ele><time>2026-04-23T15:07:46Z</time></trkpt><trkpt lat="40.76692494093888" lon="17.452536920743714"><ele>188.0</ele><time>2026-04-23T15:07:48Z</time></trkpt><trkpt lat="40.7668473107836" lon="17.452492834211238"><ele>188.0</ele><time>2026-04-23T15:07:50Z</time></trkpt><trkpt lat="40.76675983347808" lon="17.452450273571202"><ele>188.0</ele><time>2026-04-23T15:07:52Z</time></trkpt><trkpt lat="40.76666237694984" lon="17.45241235336398"><ele>189.33333333333331</ele><time>2026-04-23T15:07:54Z</time></trkpt><trkpt lat="40.76659712040065" lon="17.45235489703234"><ele>190.66666666666666</ele><time>2026-04-23T15:07:56Z</time></trkpt><trkpt lat="40.76652698071722" lon="17.45231772445986"><ele>192.0</ele><time>2026-04-23T15:07:58Z</time></trkpt><trkpt lat="40.76646085508386" lon="17.452269733307467"><ele>193.33333333333331</ele><time>2026-04-23T15:08:00Z</time></trkpt><trkpt lat="40.766397682395" lon="17.45224667064272"><ele>194.66666666666666</ele><time>2026-04-23T15:08:02.999Z</time></trkpt><trkpt lat="40.766319054643986" lon="17.45225860164128"><ele>196.0</ele><time>2026-04-23T15:08:06.999Z</time></trkpt><trkpt lat="40.76632730984999" lon="17.452137297442288"><ele>196.57142857142858</ele><time>2026-04-23T15:08:11.999Z</time></trkpt><trkpt lat="40.7663429904193" lon="17.45205035426109"><ele>197.14285714285714</ele><time>2026-04-23T15:08:14.999Z</time></trkpt><trkpt lat="40.766372744566695" lon="17.451956376563974"><ele>197.71428571428572</ele><time>2026-04-23T15:09:21.998Z</time></trkpt><trkpt lat="40.76638695409769" lon="17.451861094578433"><ele>198.28571428571428</ele><time>2026-04-23T15:09:27.998Z</time></trkpt><trkpt lat="40.76641885242884" lon="17.45178607491998"><ele>198.85714285714286</ele><time>2026-04-23T15:09:33Z</time></trkpt><trkpt lat="40.766396848906524" lon="17.451694113545635"><ele>199.42857142857144</ele><time>2026-04-23T15:09:37Z</time></trkpt><trkpt lat="40.76641889296604" lon="17.45158519478568"><ele>200.0</ele><time>2026-04-23T15:09:41Z</time></trkpt><trkpt lat="40.76642620112659" lon="17.451502061846323"><ele>200.00000000000003</ele><time>2026-04-23T15:09:44Z</time></trkpt><trkpt lat="40.76644200844695" lon="17.451383674558873"><ele>200.0</ele><time>2026-04-23T15:09:48Z</time></trkpt><trkpt lat="40.76645668056575" lon="17.451274698519832"><ele>200.0</ele><time>2026-04-23T15:09:52Z</time></trkpt><trkpt lat="40.76646687518056" lon="17.451173714961506"><ele>200.0</ele><time>2026-04-23T15:09:55Z</time></trkpt><trkpt lat="40.76647406936875" lon="17.451086962504714"><ele>200.00000000000003</ele><time>2026-04-23T15:09:57Z</time></trkpt><trkpt lat="40.7664720555243" lon="17.45096474123945"><ele>200.0</ele><time>2026-04-23T15:10:00Z</time></trkpt><trkpt lat="40.76647157350025" lon="17.450867197485316"><ele>199.83333333333334</ele><time>2026-04-23T15:10:02Z</time></trkpt><trkpt lat="40.7664642680129" lon="17.45078073065722"><ele>199.66666666666669</ele><time>2026-04-23T15:10:04Z</time></trkpt><trkpt lat="40.76645995838004" lon="17.45066727541112"><ele>199.5</ele><time>2026-04-23T15:10:06Z</time></trkpt><trkpt lat="40.766453146426684" lon="17.45057513109261"><ele>199.33333333333331</ele><time>2026-04-23T15:10:08Z</time></trkpt><trkpt lat="40.76643361664734" lon="17.45047130757481"><ele>199.16666666666666</ele><time>2026-04-23T15:10:09.999Z</time></trkpt><trkpt lat="40.76641422543531" lon="17.450364208478437"><ele>199.0</ele><time>2026-04-23T15:10:11.999Z</time></trkpt><trkpt lat="40.766387130690354" lon="17.450262112727188"><ele>198.66666666666666</ele><time>2026-04-23T15:10:13.999Z</time></trkpt><trkpt lat="40.76635398373987" lon="17.45016380317972"><ele>198.33333333333331</ele><time>2026-04-23T15:10:15.999Z</time></trkpt><trkpt lat="40.766311426577765" lon="17.450058446939927"><ele>198.0</ele><time>2026-04-23T15:10:17.999Z</time></trkpt><trkpt lat="40.76626431662682" lon="17.449959314079702"><ele>197.66666666666669</ele><time>2026-04-23T15:10:19.999Z</time></trkpt><trkpt lat="40.76621565369577" lon="17.449879371745574"><ele>197.33333333333334</ele><time>2026-04-23T15:10:21.999Z</time></trkpt><trkpt lat="40.76615201382389" lon="17.449789684398688"><ele>197.0</ele><time>2026-04-23T15:10:23.999Z</time></trkpt><trkpt lat="40.76609272686441" lon="17.44971879677146"><ele>197.00000000000003</ele><time>2026-04-23T15:10:25.999Z</time></trkpt><trkpt lat="40.766029797773385" lon="17.449650693119082"><ele>197.0</ele><time>2026-04-23T15:10:27.999Z</time></trkpt><trkpt lat="40.76596408513745" lon="17.44959006401571"><ele>197.0</ele><time>2026-04-23T15:10:29.999Z</time></trkpt><trkpt lat="40.76589513057043" lon="17.449542605748007"><ele>197.0</ele><time>2026-04-23T15:10:31.999Z</time></trkpt><trkpt lat="40.76583119690063" lon="17.44948589220318"><ele>197.00000000000003</ele><time>2026-04-23T15:10:33.999Z</time></trkpt><trkpt lat="40.765741029349996" lon="17.449425395587753"><ele>197.0</ele><time>2026-04-23T15:10:36.999Z</time></trkpt><trkpt lat="40.765673539581755" lon="17.449377321033094"><ele>198.42857142857144</ele><time>2026-04-23T15:10:38.999Z</time></trkpt><trkpt lat="40.76561387096669" lon="17.449327296252523"><ele>199.85714285714286</ele><time>2026-04-23T15:10:40.999Z</time></trkpt><trkpt lat="40.765558117705936" lon="17.44928573477844"><ele>201.28571428571428</ele><time>2026-04-23T15:10:42.999Z</time></trkpt><trkpt lat="40.765494653858056" lon="17.449241892568008"><ele>202.71428571428572</ele><time>2026-04-23T15:10:44.999Z</time></trkpt><trkpt lat="40.76543552117478" lon="17.449186650187322"><ele>204.14285714285714</ele><time>2026-04-23T15:10:46.999Z</time></trkpt><trkpt lat="40.76537669623441" lon="17.449123481632512"><ele>205.57142857142858</ele><time>2026-04-23T15:10:48.999Z</time></trkpt><trkpt lat="40.76532503721049" lon="17.449070817997235"><ele>207.0</ele><time>2026-04-23T15:10:50.999Z</time></trkpt><trkpt lat="40.765248527958725" lon="17.44900697142767"><ele>207.0</ele><time>2026-04-23T15:10:53.999Z</time></trkpt><trkpt lat="40.765214129818574" lon="17.44890904590341"><ele>207.0</ele><time>2026-04-23T15:10:55.999Z</time></trkpt><trkpt lat="40.76519600382817" lon="17.448771974275893"><ele>207.0</ele><time>2026-04-23T15:10:58.998Z</time></trkpt><trkpt lat="40.765177520975264" lon="17.448655737639545"><ele>207.0</ele><time>2026-04-23T15:11:00.998Z</time></trkpt><trkpt lat="40.765150184362156" lon="17.448552381745046"><ele>207.0</ele><time>2026-04-23T15:11:02.998Z</time></trkpt><trkpt lat="40.76512738555495" lon="17.448439836922205"><ele>207.0</ele><time>2026-04-23T15:11:04.998Z</time></trkpt><trkpt lat="40.76510737202663" lon="17.448314191633596"><ele>211.0</ele><time>2026-04-23T15:11:06.998Z</time></trkpt><trkpt lat="40.765087322922504" lon="17.4482098553456"><ele>215.0</ele><time>2026-04-23T15:11:08.998Z</time></trkpt><trkpt lat="40.76509358069276" lon="17.44808775393324"><ele>219.0</ele><time>2026-04-23T15:11:10.998Z</time></trkpt><trkpt lat="40.765120642958756" lon="17.447956965530302"><ele>223.0</ele><time>2026-04-23T15:11:12.998Z</time></trkpt><trkpt lat="40.765158124147995" lon="17.44782413880378"><ele>227.0</ele><time>2026-04-23T15:11:14.998Z</time></trkpt><trkpt lat="40.765191574126305" lon="17.44769513500806"><ele>223.39999999999998</ele><time>2026-04-23T15:11:16.998Z</time></trkpt><trkpt lat="40.765222212132755" lon="17.447569356978313"><ele>219.79999999999998</ele><time>2026-04-23T15:11:18.998Z</time></trkpt><trkpt lat="40.76525675622969" lon="17.447446163975386"><ele>216.2</ele><time>2026-04-23T15:11:20.998Z</time></trkpt><trkpt lat="40.76528700643457" lon="17.44734099656524"><ele>212.6</ele><time>2026-04-23T15:11:22.998Z</time></trkpt><trkpt lat="40.765318265925" lon="17.44723908709655"><ele>209.0</ele><time>2026-04-23T15:11:24.998Z</time></trkpt><trkpt lat="40.76535268757825" lon="17.447114821316987"><ele>209.0</ele><time>2026-04-23T15:11:26.998Z</time></trkpt><trkpt lat="40.765393345097095" lon="17.447004155506843"><ele>209.0</ele><time>2026-04-23T15:11:28.998Z</time></trkpt><trkpt lat="40.76544362536061" lon="17.446878747630056"><ele>209.0</ele><time>2026-04-23T15:11:30.998Z</time></trkpt><trkpt lat="40.76548420564854" lon="17.44676758855965"><ele>209.0</ele><time>2026-04-23T15:11:32.998Z</time></trkpt><trkpt lat="40.765543217512054" lon="17.446638412340295"><ele>209.0</ele><time>2026-04-23T15:11:34.998Z</time></trkpt><trkpt lat="40.76558906339662" lon="17.44654535981418"><ele>209.0</ele><time>2026-04-23T15:11:36.998Z</time></trkpt><trkpt lat="40.765660605558516" lon="17.44643112839074"><ele>209.0</ele><time>2026-04-23T15:11:39Z</time></trkpt><trkpt lat="40.76571948138891" lon="17.446328492633405"><ele>209.0</ele><time>2026-04-23T15:11:41Z</time></trkpt><trkpt lat="40.76578143268743" lon="17.44622748215182"><ele>209.0</ele><time>2026-04-23T15:11:43Z</time></trkpt><trkpt lat="40.76584925988763" lon="17.446127434311613"><ele>209.0</ele><time>2026-04-23T15:11:45Z</time></trkpt><trkpt lat="40.76592786201865" lon="17.44603159984812"><ele>206.75</ele><time>2026-04-23T15:11:47Z</time></trkpt><trkpt lat="40.76598968267099" lon="17.44592000708402"><ele>204.5</ele><time>2026-04-23T15:11:49Z</time></trkpt><trkpt lat="40.76605948314862" lon="17.445816279387607"><ele>202.25</ele><time>2026-04-23T15:11:51Z</time></trkpt><trkpt lat="40.766130433982674" lon="17.445693072730432"><ele>200.0</ele><time>2026-04-23T15:11:53Z</time></trkpt><trkpt lat="40.76621895872086" lon="17.44557860105428"><ele>201.8</ele><time>2026-04-23T15:11:55Z</time></trkpt><trkpt lat="40.76628139893532" lon="17.445459417248824"><ele>203.6</ele><time>2026-04-23T15:11:57Z</time></trkpt><trkpt lat="40.766374521608526" lon="17.44535830331991"><ele>205.39999999999998</ele><time>2026-04-23T15:11:59Z</time></trkpt><trkpt lat="40.766449683815736" lon="17.445256388244182"><ele>207.2</ele><time>2026-04-23T15:12:01Z</time></trkpt><trkpt lat="40.76651296710821" lon="17.445145247245936"><ele>209.0</ele><time>2026-04-23T15:12:03Z</time></trkpt><trkpt lat="40.76658771577386" lon="17.445058918299615"><ele>209.0</ele><time>2026-04-23T15:12:05Z</time></trkpt><trkpt lat="40.76648753486303" lon="17.444887193618044"><ele>209.0</ele><time>2026-04-23T15:12:10Z</time></trkpt><trkpt lat="40.76639217686502" lon="17.444837006510003"><ele>209.0</ele><time>2026-04-23T15:12:13Z</time></trkpt><trkpt lat="40.766331017034524" lon="17.444793355097"><ele>209.0</ele><time>2026-04-23T15:12:16Z</time></trkpt><trkpt lat="40.76626049413117" lon="17.44473917272854"><ele>209.0</ele><time>2026-04-23T15:12:17.999Z</time></trkpt><trkpt lat="40.7662094130629" lon="17.444669280832457"><ele>209.00000000000003</ele><time>2026-04-23T15:12:20.999Z</time></trkpt><trkpt lat="40.766150980066925" lon="17.444612193659573"><ele>209.0</ele><time>2026-04-23T15:12:24.999Z</time></trkpt><trkpt lat="40.766084524415895" lon="17.44457049943721"><ele>209.0</ele><time>2026-04-23T15:12:27.999Z</time></trkpt><trkpt lat="40.76603860137884" lon="17.44462985256905"><ele>209.0</ele><time>2026-04-23T15:12:29.999Z</time></trkpt><trkpt lat="40.76598004732095" lon="17.44466474645092"><ele>209.00000000000003</ele><time>2026-04-23T15:12:32.999Z</time></trkpt><trkpt lat="40.76592831010618" lon="17.444760364248744"><ele>209.0</ele><time>2026-04-23T15:12:35.999Z</time></trkpt><trkpt lat="40.76588687345691" lon="17.44486556082255"><ele>212.57142857142856</ele><time>2026-04-23T15:12:38.999Z</time></trkpt><trkpt lat="40.765865842177895" lon="17.444944133735532"><ele>216.14285714285714</ele><time>2026-04-23T15:12:40.999Z</time></trkpt><trkpt lat="40.765817962893315" lon="17.445028978168526"><ele>219.71428571428572</ele><time>2026-04-23T15:12:42.999Z</time></trkpt><trkpt lat="40.76577034414364" lon="17.445113424986495"><ele>223.28571428571428</ele><time>2026-04-23T15:12:44.999Z</time></trkpt><trkpt lat="40.7657221776169" lon="17.445171155559855"><ele>226.8571428571429</ele><time>2026-04-23T15:12:46.999Z</time></trkpt><trkpt lat="40.765668300717515" lon="17.44522401455072"><ele>230.42857142857144</ele><time>2026-04-23T15:12:48.999Z</time></trkpt><trkpt lat="40.76564325579192" lon="17.44531912965447"><ele>234.0</ele><time>2026-04-23T15:12:50.999Z</time></trkpt><trkpt lat="40.76559976487414" lon="17.445395155310504"><ele>231.83333333333334</ele><time>2026-04-23T15:12:52.999Z</time></trkpt><trkpt lat="40.76556148921625" lon="17.445464725680083"><ele>229.66666666666669</ele><time>2026-04-23T15:12:54.999Z</time></trkpt><trkpt lat="40.765513281904106" lon="17.445546516183583"><ele>227.5</ele><time>2026-04-23T15:12:56.999Z</time></trkpt><trkpt lat="40.765487703235145" lon="17.445658866611254"><ele>225.33333333333334</ele><time>2026-04-23T15:12:58.999Z</time></trkpt><trkpt lat="40.76543441405965" lon="17.445711438480018"><ele>223.16666666666669</ele><time>2026-04-23T15:13:00.999Z</time></trkpt><trkpt lat="40.765389336211236" lon="17.445793212940846"><ele>221.0</ele><time>2026-04-23T15:13:02.999Z</time></trkpt><trkpt lat="40.765341022658575" lon="17.445868755086888"><ele>221.00000000000003</ele><time>2026-04-23T15:13:04.999Z</time></trkpt><trkpt lat="40.765306285277035" lon="17.44595145627657"><ele>221.0</ele><time>2026-04-23T15:13:06.998Z</time></trkpt><trkpt lat="40.765254198446115" lon="17.44601624669423"><ele>221.0</ele><time>2026-04-23T15:13:08.998Z</time></trkpt><trkpt lat="40.76520055300471" lon="17.44609306881025"><ele>221.0</ele><time>2026-04-23T15:13:10.998Z</time></trkpt><trkpt lat="40.765126888353386" lon="17.44617767103938"><ele>221.00000000000003</ele><time>2026-04-23T15:13:13.998Z</time></trkpt><trkpt lat="40.76508121590698" lon="17.4462665004335"><ele>221.0</ele><time>2026-04-23T15:13:15.998Z</time></trkpt><trkpt lat="40.765034989641975" lon="17.446343273085688"><ele>224.33333333333334</ele><time>2026-04-23T15:13:17.998Z</time></trkpt><trkpt lat="40.76498584229629" lon="17.446429713550543"><ele>227.66666666666669</ele><time>2026-04-23T15:13:19.998Z</time></trkpt><trkpt lat="40.76492678523862" lon="17.446498620154845"><ele>231.0</ele><time>2026-04-23T15:13:21.998Z</time></trkpt><trkpt lat="40.76485886459595" lon="17.446569055465115"><ele>234.33333333333331</ele><time>2026-04-23T15:13:24.998Z</time></trkpt><trkpt lat="40.76479846537605" lon="17.446655678761054"><ele>237.66666666666666</ele><time>2026-04-23T15:13:26.998Z</time></trkpt><trkpt lat="40.76473349692249" lon="17.44670576396098"><ele>241.0</ele><time>2026-04-23T15:13:28.998Z</time></trkpt><trkpt lat="40.764661109337375" lon="17.446762983207172"><ele>240.99999999999997</ele><time>2026-04-23T15:13:31.998Z</time></trkpt><trkpt lat="40.76460396597223" lon="17.446819943275404"><ele>241.0</ele><time>2026-04-23T15:13:34.998Z</time></trkpt><trkpt lat="40.76453504059174" lon="17.446899980851292"><ele>241.0</ele><time>2026-04-23T15:13:37.998Z</time></trkpt><trkpt lat="40.76447109713237" lon="17.44698199439863"><ele>241.0</ele><time>2026-04-23T15:13:40.998Z</time></trkpt><trkpt lat="40.764396443859546" lon="17.4470274684454"><ele>240.99999999999997</ele><time>2026-04-23T15:13:43Z</time></trkpt><trkpt lat="40.764342740022734" lon="17.447095206249283"><ele>241.0</ele><time>2026-04-23T15:13:45Z</time></trkpt><trkpt lat="40.764281694137665" lon="17.44715451464369"><ele>244.16666666666666</ele><time>2026-04-23T15:13:48Z</time></trkpt><trkpt lat="40.76422395071532" lon="17.447246045397275"><ele>247.33333333333331</ele><time>2026-04-23T15:13:51Z</time></trkpt><trkpt lat="40.76417070064272" lon="17.447306475854298"><ele>250.5</ele><time>2026-04-23T15:13:54Z</time></trkpt><trkpt lat="40.764125479818205" lon="17.447377083385152"><ele>253.66666666666669</ele><time>2026-04-23T15:13:57Z</time></trkpt><trkpt lat="40.764083094942734" lon="17.44748755860799"><ele>256.83333333333337</ele><time>2026-04-23T15:14:00Z</time></trkpt><trkpt lat="40.764048531174765" lon="17.447593906867038"><ele>260.0</ele><time>2026-04-23T15:14:02Z</time></trkpt><trkpt lat="40.76401992491345" lon="17.447685648214275"><ele>260.0</ele><time>2026-04-23T15:14:04Z</time></trkpt><trkpt lat="40.76399962983536" lon="17.447773872362323"><ele>260.0</ele><time>2026-04-23T15:14:06Z</time></trkpt><trkpt lat="40.76397090584401" lon="17.44786999688698"><ele>260.0</ele><time>2026-04-23T15:14:08Z</time></trkpt><trkpt lat="40.76393932038377" lon="17.447948025557476"><ele>260.0</ele><time>2026-04-23T15:14:10Z</time></trkpt><trkpt lat="40.76391424512534" lon="17.44803564444784"><ele>260.0</ele><time>2026-04-23T15:14:12Z</time></trkpt><trkpt lat="40.763886966193134" lon="17.44815883002359"><ele>260.0</ele><time>2026-04-23T15:14:15Z</time></trkpt><trkpt lat="40.76386978617489" lon="17.44824472880387"><ele>260.00000000000006</ele><time>2026-04-23T15:14:17Z</time></trkpt><trkpt lat="40.76385173349544" lon="17.44833352208282"><ele>260.0</ele><time>2026-04-23T15:14:19Z</time></trkpt><trkpt lat="40.763844604457226" lon="17.448420919770697"><ele>260.0</ele><time>2026-04-23T15:14:21Z</time></trkpt><trkpt lat="40.76382583670715" lon="17.44850857577814"><ele>260.0</ele><time>2026-04-23T15:14:22.999Z</time></trkpt><trkpt lat="40.76379754996438" lon="17.448623285467704"><ele>260.0</ele><time>2026-04-23T15:14:25.999Z</time></trkpt><trkpt lat="40.76379230186645" lon="17.448723352454234"><ele>260.00000000000006</ele><time>2026-04-23T15:14:27.999Z</time></trkpt><trkpt lat="40.76378588440394" lon="17.448812005993453"><ele>260.0</ele><time>2026-04-23T15:14:29.999Z</time></trkpt><trkpt lat="40.76379707499181" lon="17.448904584919887"><ele>260.0</ele><time>2026-04-23T15:14:31.999Z</time></trkpt><trkpt lat="40.763787509687056" lon="17.448990327544873"><ele>260.0</ele><time>2026-04-23T15:14:33.999Z</time></trkpt><trkpt lat="40.76380036183849" lon="17.449082259464085"><ele>260.0</ele><time>2026-04-23T15:14:35.999Z</time></trkpt><trkpt lat="40.76378816832841" lon="17.44921073326359"><ele>260.0</ele><time>2026-04-23T15:14:38.999Z</time></trkpt><trkpt lat="40.763802886368794" lon="17.449294464203287"><ele>260.0</ele><time>2026-04-23T15:14:40.999Z</time></trkpt><trkpt lat="40.76380429875071" lon="17.44940884433805"><ele>260.0</ele><time>2026-04-23T15:14:43.999Z</time></trkpt><trkpt lat="40.76381975612299" lon="17.449498544805685"><ele>260.0</ele><time>2026-04-23T15:14:45.999Z</time></trkpt><trkpt lat="40.763829216513436" lon="17.44959290300207"><ele>260.0</ele><time>2026-04-23T15:14:47.999Z</time></trkpt><trkpt lat="40.76384778012319" lon="17.449707270734105"><ele>260.0</ele><time>2026-04-23T15:14:50.999Z</time></trkpt><trkpt lat="40.763894285124415" lon="17.4498154034072"><ele>260.0</ele><time>2026-04-23T15:14:53.999Z</time></trkpt><trkpt lat="40.76391995392584" lon="17.44993258383433"><ele>260.0</ele><time>2026-04-23T15:14:56.999Z</time></trkpt><trkpt lat="40.76396271263129" lon="17.450047578817056"><ele>260.0</ele><time>2026-04-23T15:14:59.999Z</time></trkpt><trkpt lat="40.76400272538182" lon="17.450157267292166"><ele>262.5</ele><time>2026-04-23T15:15:02.999Z</time></trkpt><trkpt lat="40.76403857733615" lon="17.45023787951629"><ele>265.0</ele><time>2026-04-23T15:15:04.999Z</time></trkpt><trkpt lat="40.76408256101467" lon="17.450336158404966"><ele>267.5</ele><time>2026-04-23T15:15:07.999Z</time></trkpt><trkpt lat="40.76411418419025" lon="17.450420240727162"><ele>270.0</ele><time>2026-04-23T15:15:09.999Z</time></trkpt><trkpt lat="40.76415289409064" lon="17.45049378321595"><ele>272.5</ele><time>2026-04-23T15:15:11.998Z</time></trkpt><trkpt lat="40.76419305400108" lon="17.450600150342396"><ele>275.0</ele><time>2026-04-23T15:15:14.998Z</time></trkpt><trkpt lat="40.7642313351907" lon="17.450696687368012"><ele>277.0</ele><time>2026-04-23T15:15:17.998Z</time></trkpt><trkpt lat="40.76424714911277" lon="17.450789545677406"><ele>279.0</ele><time>2026-04-23T15:15:20.998Z</time></trkpt><trkpt lat="40.764255540468916" lon="17.45087719389153"><ele>281.0</ele><time>2026-04-23T15:15:23.998Z</time></trkpt><trkpt lat="40.76432491042416" lon="17.4509162022698"><ele>283.0</ele><time>2026-04-23T15:16:09Z</time></trkpt><trkpt lat="40.764397512717515" lon="17.450917414914247"><ele>285.0</ele><time>2026-04-23T15:16:13Z</time></trkpt><trkpt lat="40.764465042149006" lon="17.45090610614482"><ele>287.0</ele><time>2026-04-23T15:16:15Z</time></trkpt><trkpt lat="40.76452834569137" lon="17.450880647981695"><ele>289.0</ele><time>2026-04-23T15:16:18Z</time></trkpt><trkpt lat="40.76460767014118" lon="17.450854420473924"><ele>283.0</ele><time>2026-04-23T15:16:21Z</time></trkpt><trkpt lat="40.76465834627665" lon="17.45078857370984"><ele>277.0</ele><time>2026-04-23T15:16:26Z</time></trkpt><trkpt lat="40.76473524408167" lon="17.45079008423713"><ele>271.0</ele><time>2026-04-23T15:16:29.999Z</time></trkpt><trkpt lat="40.764835681371686" lon="17.450773697945504"><ele>265.0</ele><time>2026-04-23T15:16:32.999Z</time></trkpt><trkpt lat="40.76495376323972" lon="17.450739771863244"><ele>259.0</ele><time>2026-04-23T15:16:35.999Z</time></trkpt><trkpt lat="40.76502283340161" lon="17.450708677091356"><ele>253.0</ele><time>2026-04-23T15:16:37.999Z</time></trkpt><trkpt lat="40.76508872094801" lon="17.450693332596185"><ele>252.99999999999997</ele><time>2026-04-23T15:16:39.999Z</time></trkpt><trkpt lat="40.765161664116974" lon="17.450681411865784"><ele>253.0</ele><time>2026-04-23T15:16:41.999Z</time></trkpt><trkpt lat="40.76524396169728" lon="17.450635247080623"><ele>253.0</ele><time>2026-04-23T15:16:44.999Z</time></trkpt><trkpt lat="40.76532751843681" lon="17.450660752881898"><ele>253.0</ele><time>2026-04-23T15:16:47.999Z</time></trkpt><trkpt lat="40.76537036882106" lon="17.450725362837346"><ele>252.99999999999997</ele><time>2026-04-23T15:16:49.999Z</time></trkpt><trkpt lat="40.76548397017671" lon="17.45067054993962"><ele>253.0</ele><time>2026-04-23T15:16:58.999Z</time></trkpt><trkpt lat="40.76555305855427" lon="17.450642220333105"><ele>249.00000000000003</ele><time>2026-04-23T15:21:30.998Z</time></trkpt><trkpt lat="40.76561581207902" lon="17.450629629478914"><ele>245.0</ele><time>2026-04-23T15:21:46.998Z</time></trkpt><trkpt lat="40.76567090520946" lon="17.45057587744679"><ele>241.00000000000003</ele><time>2026-04-23T15:21:53.998Z</time></trkpt><trkpt lat="40.76570428579565" lon="17.450502618411974"><ele>237.00000000000003</ele><time>2026-04-23T15:21:59.998Z</time></trkpt><trkpt lat="40.7657716209087" lon="17.45047207474638"><ele>233.0</ele><time>2026-04-23T15:23:18.999Z</time></trkpt><trkpt lat="40.765706655198294" lon="17.450531590058198"><ele>229.00000000000003</ele><time>2026-04-23T15:24:55.999Z</time></trkpt><trkpt lat="40.76565943170261" lon="17.450603041711844"><ele>225.00000000000003</ele><time>2026-04-23T15:25:02.999Z</time></trkpt><trkpt lat="40.76559709621221" lon="17.450660778834518"><ele>225.00000000000003</ele><time>2026-04-23T15:25:09.999Z</time></trkpt><trkpt lat="40.765534446665214" lon="17.450690291925543"><ele>225.0</ele><time>2026-04-23T15:25:16.999Z</time></trkpt><trkpt lat="40.765594943058765" lon="17.450640845918294"><ele>225.00000000000003</ele><time>2026-04-23T15:25:36.999Z</time></trkpt><trkpt lat="40.76565829653875" lon="17.450572900646087"><ele>225.00000000000003</ele><time>2026-04-23T15:25:41.998Z</time></trkpt><trkpt lat="40.76572463385549" lon="17.450523365748797"><ele>225.0</ele><time>2026-04-23T15:25:45.998Z</time></trkpt><trkpt lat="40.765792368205865" lon="17.450483696411485"><ele>225.00000000000003</ele><time>2026-04-23T15:25:51.998Z</time></trkpt><trkpt lat="40.765865007142295" lon="17.450472905607178"><ele>225.00000000000003</ele><time>2026-04-23T15:25:54.998Z</time></trkpt><trkpt lat="40.76590244346746" lon="17.4503994986282"><ele>223.66666666666666</ele><time>2026-04-23T15:25:58.998Z</time></trkpt><trkpt lat="40.76596233492838" lon="17.450364363260928"><ele>222.33333333333331</ele><time>2026-04-23T15:26:01.998Z</time></trkpt><trkpt lat="40.76603790515458" lon="17.450315091275012"><ele>221.0</ele><time>2026-04-23T15:26:05.998Z</time></trkpt><trkpt lat="40.76611328515529" lon="17.45032849083925"><ele>219.66666666666666</ele><time>2026-04-23T15:26:08.998Z</time></trkpt><trkpt lat="40.76619412653534" lon="17.450379501139516"><ele>218.33333333333331</ele><time>2026-04-23T15:26:10.998Z</time></trkpt><trkpt lat="40.76627537466232" lon="17.450386283459757"><ele>217.0</ele><time>2026-04-23T15:26:14.998Z</time></trkpt><trkpt lat="40.76637474083444" lon="17.45035789220963"><ele>214.14285714285714</ele><time>2026-04-23T15:26:17.998Z</time></trkpt><trkpt lat="40.766402891962045" lon="17.450270245311323"><ele>211.28571428571428</ele><time>2026-04-23T15:26:22Z</time></trkpt><trkpt lat="40.76634687180687" lon="17.4502172135251"><ele>208.42857142857144</ele><time>2026-04-23T15:28:15.998Z</time></trkpt><trkpt lat="40.76632825858773" lon="17.450124916281172"><ele>205.57142857142856</ele><time>2026-04-23T15:28:17.998Z</time></trkpt><trkpt lat="40.766281609733596" lon="17.450033190195008"><ele>202.71428571428572</ele><time>2026-04-23T15:28:20.998Z</time></trkpt><trkpt lat="40.766248261472214" lon="17.449953806737035"><ele>199.85714285714286</ele><time>2026-04-23T15:28:22.998Z</time></trkpt><trkpt lat="40.76619396551211" lon="17.449884186938778"><ele>197.0</ele><time>2026-04-23T15:28:25Z</time></trkpt><trkpt lat="40.76614014610523" lon="17.449813050899877"><ele>197.00000000000003</ele><time>2026-04-23T15:28:27Z</time></trkpt><trkpt lat="40.7660779022472" lon="17.449740146157506"><ele>197.0</ele><time>2026-04-23T15:28:29Z</time></trkpt><trkpt lat="40.766023148868335" lon="17.44966673178762"><ele>197.0</ele><time>2026-04-23T15:28:31Z</time></trkpt><trkpt lat="40.76596571328454" lon="17.449609570550262"><ele>197.0</ele><time>2026-04-23T15:28:33Z</time></trkpt><trkpt lat="40.76588296952123" lon="17.449539080384334"><ele>197.00000000000003</ele><time>2026-04-23T15:28:36Z</time></trkpt><trkpt lat="40.765822177690836" lon="17.449495298431156"><ele>197.0</ele><time>2026-04-23T15:28:38Z</time></trkpt><trkpt lat="40.765769649793" lon="17.449442785413215"><ele>198.66666666666669</ele><time>2026-04-23T15:28:40Z</time></trkpt><trkpt lat="40.76569749870165" lon="17.449402560879996"><ele>200.33333333333334</ele><time>2026-04-23T15:28:42Z</time></trkpt><trkpt lat="40.7656332750534" lon="17.449353967379388"><ele>202.0</ele><time>2026-04-23T15:28:44Z</time></trkpt><trkpt lat="40.76557534308001" lon="17.44929138508298"><ele>203.66666666666669</ele><time>2026-04-23T15:28:46Z</time></trkpt><trkpt lat="40.765516352638535" lon="17.44924630777279"><ele>205.33333333333334</ele><time>2026-04-23T15:28:48Z</time></trkpt><trkpt lat="40.765452304031314" lon="17.449188176687606"><ele>207.0</ele><time>2026-04-23T15:28:50Z</time></trkpt><trkpt lat="40.76538099586618" lon="17.449109087914156"><ele>207.0</ele><time>2026-04-23T15:28:53Z</time></trkpt><trkpt lat="40.76532239233133" lon="17.449063135962312"><ele>207.0</ele><time>2026-04-23T15:28:55Z</time></trkpt><trkpt lat="40.765273088608375" lon="17.44900590189068"><ele>207.0</ele><time>2026-04-23T15:28:57Z</time></trkpt><trkpt lat="40.76523286075971" lon="17.44893129519911"><ele>207.0</ele><time>2026-04-23T15:28:59Z</time></trkpt><trkpt lat="40.765196498195735" lon="17.448826740141907"><ele>207.0</ele><time>2026-04-23T15:29:01Z</time></trkpt><trkpt lat="40.76518816927047" lon="17.448707123287367"><ele>207.0</ele><time>2026-04-23T15:29:03Z</time></trkpt><trkpt lat="40.76515301325305" lon="17.448597672306892"><ele>211.0</ele><time>2026-04-23T15:29:04.999Z</time></trkpt><trkpt lat="40.765131993639756" lon="17.448472220874994"><ele>215.0</ele><time>2026-04-23T15:29:06.999Z</time></trkpt><trkpt lat="40.76511006298892" lon="17.448337583227882"><ele>219.0</ele><time>2026-04-23T15:29:08.999Z</time></trkpt><trkpt lat="40.765077634613014" lon="17.448221960511137"><ele>223.0</ele><time>2026-04-23T15:29:10.999Z</time></trkpt><trkpt lat="40.76510213116135" lon="17.44810831013829"><ele>227.0</ele><time>2026-04-23T15:29:12.999Z</time></trkpt><trkpt lat="40.76511530228412" lon="17.44795732978648"><ele>227.6</ele><time>2026-04-23T15:29:14.999Z</time></trkpt><trkpt lat="40.765160387864434" lon="17.447816151892017"><ele>228.2</ele><time>2026-04-23T15:29:16.999Z</time></trkpt><trkpt lat="40.76519778969155" lon="17.44767962956054"><ele>228.8</ele><time>2026-04-23T15:29:18.999Z</time></trkpt><trkpt lat="40.765230048441225" lon="17.447534286537792"><ele>229.4</ele><time>2026-04-23T15:29:20.999Z</time></trkpt><trkpt lat="40.76526904193303" lon="17.44740097600723"><ele>230.0</ele><time>2026-04-23T15:29:22.999Z</time></trkpt><trkpt lat="40.7653103852554" lon="17.4472734324488"><ele>224.75</ele><time>2026-04-23T15:29:24.999Z</time></trkpt><trkpt lat="40.76534910539506" lon="17.447132679607602"><ele>219.5</ele><time>2026-04-23T15:29:26.999Z</time></trkpt><trkpt lat="40.76540365666049" lon="17.446981227694945"><ele>214.25</ele><time>2026-04-23T15:29:28.999Z</time></trkpt><trkpt lat="40.76544643620418" lon="17.446849901139117"><ele>209.0</ele><time>2026-04-23T15:29:30.999Z</time></trkpt><trkpt lat="40.765504939032596" lon="17.44673168290221"><ele>209.0</ele><time>2026-04-23T15:29:32.999Z</time></trkpt><trkpt lat="40.76556720356511" lon="17.446603333499727"><ele>209.0</ele><time>2026-04-23T15:29:34.999Z</time></trkpt><trkpt lat="40.76563519867448" lon="17.446486589616928"><ele>209.0</ele><time>2026-04-23T15:29:36.999Z</time></trkpt><trkpt lat="40.76567334964571" lon="17.446419803765853"><ele>209.0</ele><time>2026-04-23T15:29:37.999Z</time></trkpt><trkpt lat="40.76574351590544" lon="17.44629980288407"><ele>209.0</ele><time>2026-04-23T15:29:39.999Z</time></trkpt><trkpt lat="40.76581495776482" lon="17.446168195140235"><ele>207.2</ele><time>2026-04-23T15:29:41.999Z</time></trkpt><trkpt lat="40.76588882158655" lon="17.446039177898076"><ele>205.39999999999998</ele><time>2026-04-23T15:29:43.999Z</time></trkpt><trkpt lat="40.76594883354673" lon="17.445929322661883"><ele>203.6</ele><time>2026-04-23T15:29:45.999Z</time></trkpt><trkpt lat="40.76599643536635" lon="17.445871763718483"><ele>201.8</ele><time>2026-04-23T15:29:46.999Z</time></trkpt><trkpt lat="40.766063098205265" lon="17.445774690854915"><ele>200.0</ele><time>2026-04-23T15:29:48.999Z</time></trkpt><trkpt lat="40.76611911637915" lon="17.445658374696382"><ele>200.0</ele><time>2026-04-23T15:29:50.999Z</time></trkpt><trkpt lat="40.766190513320474" lon="17.44555332321886"><ele>200.0</ele><time>2026-04-23T15:29:52.999Z</time></trkpt><trkpt lat="40.766245279520916" lon="17.445493362185886"><ele>200.0</ele><time>2026-04-23T15:29:53.999Z</time></trkpt><trkpt lat="40.76632537871753" lon="17.44537706899087"><ele>200.0</ele><time>2026-04-23T15:29:55.999Z</time></trkpt><trkpt lat="40.766420612690105" lon="17.445280470213728"><ele>200.0</ele><time>2026-04-23T15:29:57.998Z</time></trkpt><trkpt lat="40.766492452823094" lon="17.445170793013332"><ele>201.50000000000003</ele><time>2026-04-23T15:29:59.998Z</time></trkpt><trkpt lat="40.76657339466465" lon="17.445067094514826"><ele>203.0</ele><time>2026-04-23T15:30:01.998Z</time></trkpt><trkpt lat="40.76658884092598" lon="17.444981011017205"><ele>204.5</ele><time>2026-04-23T15:30:03.998Z</time></trkpt><trkpt lat="40.766549847978474" lon="17.44491316092238"><ele>206.0</ele><time>2026-04-23T15:30:05.998Z</time></trkpt><trkpt lat="40.766489043665466" lon="17.444865609931696"><ele>207.50000000000003</ele><time>2026-04-23T15:30:07.998Z</time></trkpt><trkpt lat="40.766407648434566" lon="17.44482089791876"><ele>209.0</ele><time>2026-04-23T15:30:10.998Z</time></trkpt><trkpt lat="40.766337322946306" lon="17.444789729698996"><ele>209.0</ele><time>2026-04-23T15:30:13.998Z</time></trkpt><trkpt lat="40.76627559129432" lon="17.444761710976035"><ele>209.0</ele><time>2026-04-23T15:30:15.998Z</time></trkpt><trkpt lat="40.766230265633475" lon="17.44467354701449"><ele>209.0</ele><time>2026-04-23T15:30:18.998Z</time></trkpt><trkpt lat="40.76618068360944" lon="17.444615224954738"><ele>209.0</ele><time>2026-04-23T15:30:21.998Z</time></trkpt><trkpt lat="40.76611778933454" lon="17.444579477224355"><ele>209.0</ele><time>2026-04-23T15:30:25.998Z</time></trkpt><trkpt lat="40.766046765640226" lon="17.444617463563052"><ele>209.0</ele><time>2026-04-23T15:30:29.998Z</time></trkpt><trkpt lat="40.76598658797341" lon="17.4446595261112"><ele>209.0</ele><time>2026-04-23T15:30:33Z</time></trkpt><trkpt lat="40.76593302432343" lon="17.444744357328105"><ele>213.16666666666669</ele><time>2026-04-23T15:30:36Z</time></trkpt><trkpt lat="40.76589551301736" lon="17.44483407917118"><ele>217.33333333333334</ele><time>2026-04-23T15:30:38Z</time></trkpt><trkpt lat="40.76586290202366" lon="17.444930058859107"><ele>221.5</ele><time>2026-04-23T15:30:40Z</time></trkpt><trkpt lat="40.76581469649959" lon="17.445018937674913"><ele>225.66666666666669</ele><time>2026-04-23T15:30:42Z</time></trkpt><trkpt lat="40.76575049280383" lon="17.445092232040246"><ele>229.83333333333334</ele><time>2026-04-23T15:30:44Z</time></trkpt><trkpt lat="40.76571350052253" lon="17.445171378823034"><ele>234.0</ele><time>2026-04-23T15:30:46Z</time></trkpt><trkpt lat="40.765667521405" lon="17.445255229492368"><ele>234.0</ele><time>2026-04-23T15:30:48Z</time></trkpt><trkpt lat="40.7656189152215" lon="17.445323258209548"><ele>233.99999999999997</ele><time>2026-04-23T15:30:50Z</time></trkpt><trkpt lat="40.765568501310725" lon="17.445420210521956"><ele>233.99999999999997</ele><time>2026-04-23T15:30:53Z</time></trkpt><trkpt lat="40.76551892706911" lon="17.44552369410854"><ele>234.0</ele><time>2026-04-23T15:30:56Z</time></trkpt><trkpt lat="40.765474570114534" lon="17.445643089084967"><ele>234.0</ele><time>2026-04-23T15:30:59Z</time></trkpt><trkpt lat="40.76541983315546" lon="17.44575291425254"><ele>232.14285714285717</ele><time>2026-04-23T15:31:02Z</time></trkpt><trkpt lat="40.76538492627053" lon="17.44582413606288"><ele>230.2857142857143</ele><time>2026-04-23T15:31:04Z</time></trkpt><trkpt lat="40.76534342095795" lon="17.445899462810157"><ele>228.42857142857144</ele><time>2026-04-23T15:31:06Z</time></trkpt><trkpt lat="40.76527045541186" lon="17.445965472265524"><ele>226.57142857142858</ele><time>2026-04-23T15:31:09Z</time></trkpt><trkpt lat="40.765230286805355" lon="17.446043655445273"><ele>224.71428571428572</ele><time>2026-04-23T15:31:11Z</time></trkpt><trkpt lat="40.76517737808294" lon="17.446105513037473"><ele>222.8571428571429</ele><time>2026-04-23T15:31:13Z</time></trkpt><trkpt lat="40.76513325905591" lon="17.44617095676849"><ele>221.0</ele><time>2026-04-23T15:31:14.999Z</time></trkpt><trkpt lat="40.765081118546014" lon="17.446220800010625"><ele>224.33333333333334</ele><time>2026-04-23T15:31:16.999Z</time></trkpt><trkpt lat="40.76503826580332" lon="17.44630240788825"><ele>227.66666666666669</ele><time>2026-04-23T15:31:18.999Z</time></trkpt><trkpt lat="40.76499531054485" lon="17.44636380029749"><ele>231.0</ele><time>2026-04-23T15:31:20.999Z</time></trkpt><trkpt lat="40.764953111907225" lon="17.44642862792339"><ele>234.33333333333331</ele><time>2026-04-23T15:31:22.999Z</time></trkpt><trkpt lat="40.76490454444932" lon="17.446490180151365"><ele>237.66666666666666</ele><time>2026-04-23T15:31:24.999Z</time></trkpt><trkpt lat="40.76483827727121" lon="17.446590112491943"><ele>241.0</ele><time>2026-04-23T15:31:27.999Z</time></trkpt><trkpt lat="40.764772130785786" lon="17.446657818852316"><ele>240.99999999999997</ele><time>2026-04-23T15:31:30.999Z</time></trkpt><trkpt lat="40.76470186554918" lon="17.446721191680105"><ele>241.0</ele><time>2026-04-23T15:31:33.999Z</time></trkpt><trkpt lat="40.76464163952303" lon="17.446797007917734"><ele>241.0</ele><time>2026-04-23T15:31:36.999Z</time></trkpt><trkpt lat="40.764599767343775" lon="17.446862388880344"><ele>241.0</ele><time>2026-04-23T15:31:38.999Z</time></trkpt><trkpt lat="40.76452250066947" lon="17.446874274807058"><ele>240.99999999999997</ele><time>2026-04-23T15:31:41.999Z</time></trkpt><trkpt lat="40.76448198588364" lon="17.446963559110394"><ele>241.0</ele><time>2026-04-23T15:31:43.999Z</time></trkpt><trkpt lat="40.7644065822817" lon="17.446979713490393"><ele>244.16666666666666</ele><time>2026-04-23T15:31:46.999Z</time></trkpt><trkpt lat="40.76433790368961" lon="17.447044661190123"><ele>247.33333333333331</ele><time>2026-04-23T15:31:49.999Z</time></trkpt><trkpt lat="40.76429098174711" lon="17.447119785231312"><ele>250.5</ele><time>2026-04-23T15:31:51.999Z</time></trkpt><trkpt lat="40.76423777189687" lon="17.447196745360046"><ele>253.66666666666669</ele><time>2026-04-23T15:31:54.999Z</time></trkpt><trkpt lat="40.764180363485536" lon="17.447290922564846"><ele>256.83333333333337</ele><time>2026-04-23T15:31:57.999Z</time></trkpt><trkpt lat="40.76413034605773" lon="17.44734389284575"><ele>260.0</ele><time>2026-04-23T15:31:59.999Z</time></trkpt><trkpt lat="40.764088874882965" lon="17.44744781569665"><ele>260.0</ele><time>2026-04-23T15:32:02.999Z</time></trkpt><trkpt lat="40.76404362248895" lon="17.447540489197753"><ele>260.0</ele><time>2026-04-23T15:32:04.999Z</time></trkpt><trkpt lat="40.76401180106652" lon="17.447631086434864"><ele>260.0</ele><time>2026-04-23T15:32:06.998Z</time></trkpt><trkpt lat="40.763988627507786" lon="17.447711908981567"><ele>260.0</ele><time>2026-04-23T15:32:08.998Z</time></trkpt><trkpt lat="40.76396781005872" lon="17.44779623330621"><ele>260.0</ele><time>2026-04-23T15:32:10.998Z</time></trkpt><trkpt lat="40.763946952750636" lon="17.44788637682303"><ele>260.0</ele><time>2026-04-23T15:32:12.998Z</time></trkpt><trkpt lat="40.76390485693343" lon="17.448000417886902"><ele>259.5714285714286</ele><time>2026-04-23T15:32:15.998Z</time></trkpt><trkpt lat="40.76391128654632" lon="17.44808385578924"><ele>259.14285714285717</ele><time>2026-04-23T15:32:17.998Z</time></trkpt><trkpt lat="40.76389390897545" lon="17.44817894319663"><ele>258.7142857142857</ele><time>2026-04-23T15:32:19.998Z</time></trkpt><trkpt lat="40.76387762374396" lon="17.44825928188303"><ele>258.28571428571433</ele><time>2026-04-23T15:32:21.998Z</time></trkpt><trkpt lat="40.76385880811791" lon="17.448354868849773"><ele>257.8571428571429</ele><time>2026-04-23T15:32:23.998Z</time></trkpt><trkpt lat="40.76379462288566" lon="17.44843040647871"><ele>257.42857142857144</ele><time>2026-04-23T15:32:25.998Z</time></trkpt><trkpt lat="40.763792166872975" lon="17.44853055829862"><ele>257.0</ele><time>2026-04-23T15:32:27.998Z</time></trkpt><trkpt lat="40.76378985681093" lon="17.448647137552378"><ele>257.0</ele><time>2026-04-23T15:32:30.998Z</time></trkpt><trkpt lat="40.76378779566073" lon="17.448734654410426"><ele>257.0</ele><time>2026-04-23T15:32:32.998Z</time></trkpt><trkpt lat="40.763783174552735" lon="17.44885374890476"><ele>257.0</ele><time>2026-04-23T15:32:35.998Z</time></trkpt><trkpt lat="40.76378937637489" lon="17.44897726419894"><ele>257.0</ele><time>2026-04-23T15:32:39Z</time></trkpt><trkpt lat="40.76379216458929" lon="17.449061015152385"><ele>257.0</ele><time>2026-04-23T15:32:41Z</time></trkpt><trkpt lat="40.76377592757991" lon="17.4491751770129"><ele>257.0</ele><time>2026-04-23T15:32:44Z</time></trkpt><trkpt lat="40.763788075632974" lon="17.44925799944004"><ele>257.5</ele><time>2026-04-23T15:32:46Z</time></trkpt><trkpt lat="40.76379381467287" lon="17.449365064148754"><ele>258.0</ele><time>2026-04-23T15:32:49Z</time></trkpt><trkpt lat="40.763820865322955" lon="17.4494788136519"><ele>258.5</ele><time>2026-04-23T15:32:52Z</time></trkpt><trkpt lat="40.76382406026948" lon="17.449572502718947"><ele>259.0</ele><time>2026-04-23T15:32:54Z</time></trkpt><trkpt lat="40.76384536928745" lon="17.449654290636282"><ele>259.5</ele><time>2026-04-23T15:32:56Z</time></trkpt><trkpt lat="40.76387557018106" lon="17.449760761791797"><ele>260.0</ele><time>2026-04-23T15:32:59Z</time></trkpt><trkpt lat="40.76391814280385" lon="17.44986894421461"><ele>262.14285714285717</ele><time>2026-04-23T15:33:02Z</time></trkpt><trkpt lat="40.763933814755816" lon="17.449971631052385"><ele>264.2857142857143</ele><time>2026-04-23T15:33:05Z</time></trkpt><trkpt lat="40.76396394411138" lon="17.450058011828432"><ele>266.42857142857144</ele><time>2026-04-23T15:33:08Z</time></trkpt><trkpt lat="40.76400286630076" lon="17.45013196104456"><ele>268.57142857142856</ele><time>2026-04-23T15:33:10Z</time></trkpt><trkpt lat="40.764023490778364" lon="17.450211859506503"><ele>270.7142857142857</ele><time>2026-04-23T15:33:12Z</time></trkpt><trkpt lat="40.76406313437931" lon="17.450310173521185"><ele>272.8571428571429</ele><time>2026-04-23T15:33:15Z</time></trkpt><trkpt lat="40.76410676647081" lon="17.45039387205613"><ele>275.0</ele><time>2026-04-23T15:33:17Z</time></trkpt><trkpt lat="40.76414404240986" lon="17.45049775081162"><ele>277.0</ele><time>2026-04-23T15:33:20Z</time></trkpt><trkpt lat="40.76417349755685" lon="17.450571456270012"><ele>279.0</ele><time>2026-04-23T15:33:21.999Z</time></trkpt><trkpt lat="40.76419692206572" lon="17.450651771891195"><ele>281.0</ele><time>2026-04-23T15:33:23.999Z</time></trkpt><trkpt lat="40.76420339229704" lon="17.450742700277356"><ele>283.0</ele><time>2026-04-23T15:33:25.999Z</time></trkpt><trkpt lat="40.764218015332894" lon="17.450847200620565"><ele>285.0</ele><time>2026-04-23T15:33:28.999Z</time></trkpt><trkpt lat="40.76422321678302" lon="17.45093406507654"><ele>287.0</ele><time>2026-04-23T15:33:30.999Z</time></trkpt><trkpt lat="40.76421992791153" lon="17.45104762535764"><ele>289.0</ele><time>2026-04-23T15:33:33.999Z</time></trkpt><trkpt lat="40.764218869088445" lon="17.45113308358882"><ele>289.0</ele><time>2026-04-23T15:33:35.999Z</time></trkpt><trkpt lat="40.76419789766821" lon="17.45125169105968"><ele>289.0</ele><time>2026-04-23T15:33:38.999Z</time></trkpt><trkpt lat="40.764168390364404" lon="17.451355986826986"><ele>289.0</ele><time>2026-04-23T15:33:41.999Z</time></trkpt><trkpt lat="40.76413068483377" lon="17.45147307803538"><ele>289.0</ele><time>2026-04-23T15:33:44.999Z</time></trkpt><trkpt lat="40.7640929503599" lon="17.451580430563478"><ele>289.0</ele><time>2026-04-23T15:33:47.999Z</time></trkpt><trkpt lat="40.76403214193721" lon="17.451648463679632"><ele>289.0</ele><time>2026-04-23T15:33:50.999Z</time></trkpt><trkpt lat="40.76398819904517" lon="17.451748206091942"><ele>288.66666666666663</ele><time>2026-04-23T15:33:52.999Z</time></trkpt><trkpt lat="40.763905097439036" lon="17.45180802275721"><ele>288.3333333333333</ele><time>2026-04-23T15:33:55.999Z</time></trkpt><trkpt lat="40.76386029477375" lon="17.451876497421132"><ele>288.0</ele><time>2026-04-23T15:33:57.999Z</time></trkpt><trkpt lat="40.76379885542904" lon="17.451933901244164"><ele>287.6666666666667</ele><time>2026-04-23T15:34:00.999Z</time></trkpt><trkpt lat="40.763722702824374" lon="17.451979786237413"><ele>287.33333333333337</ele><time>2026-04-23T15:34:02.999Z</time></trkpt><trkpt lat="40.76366346805837" lon="17.452022385042323"><ele>287.0</ele><time>2026-04-23T15:34:04.999Z</time></trkpt><trkpt lat="40.763579106060384" lon="17.45206604021253"><ele>287.6666666666667</ele><time>2026-04-23T15:34:08.999Z</time></trkpt><trkpt lat="40.76350509131765" lon="17.452084541164048"><ele>288.33333333333337</ele><time>2026-04-23T15:34:11.999Z</time></trkpt><trkpt lat="40.76341884941198" lon="17.45211980052501"><ele>289.0</ele><time>2026-04-23T15:34:13.998Z</time></trkpt><trkpt lat="40.763345680540446" lon="17.45215718789716"><ele>289.6666666666667</ele><time>2026-04-23T15:34:14.998Z</time></trkpt><trkpt lat="40.763293445681626" lon="17.452204915360355"><ele>290.3333333333333</ele><time>2026-04-23T15:34:15.998Z</time></trkpt><trkpt lat="40.763182093263396" lon="17.45225538768311"><ele>291.0</ele><time>2026-04-23T15:34:17.998Z</time></trkpt><trkpt lat="40.763104623071435" lon="17.452295784868227"><ele>291.0</ele><time>2026-04-23T15:34:19.998Z</time></trkpt><trkpt lat="40.76304189722988" lon="17.452335907200997"><ele>291.0</ele><time>2026-04-23T15:34:20.998Z</time></trkpt><trkpt lat="40.762954179527384" lon="17.452421918162425"><ele>291.0</ele><time>2026-04-23T15:34:22.998Z</time></trkpt><trkpt lat="40.76289256415886" lon="17.45244099811085"><ele>291.0</ele><time>2026-04-23T15:34:23.998Z</time></trkpt><trkpt lat="40.76280458312037" lon="17.452482721390453"><ele>291.0</ele><time>2026-04-23T15:34:25.998Z</time></trkpt><trkpt lat="40.76270846688598" lon="17.452540427802642"><ele>291.0</ele><time>2026-04-23T15:34:27.998Z</time></trkpt><trkpt lat="40.76264310074171" lon="17.452583926596354"><ele>296.2</ele><time>2026-04-23T15:34:29.998Z</time></trkpt><trkpt lat="40.762557428829844" lon="17.452661684822484"><ele>301.40000000000003</ele><time>2026-04-23T15:34:31.998Z</time></trkpt><trkpt lat="40.762494212327525" lon="17.452712011528305"><ele>306.6</ele><time>2026-04-23T15:34:32.998Z</time></trkpt><trkpt lat="40.76239316948818" lon="17.452778837966083"><ele>311.8</ele><time>2026-04-23T15:34:34.998Z</time></trkpt><trkpt lat="40.76231651762058" lon="17.452830856913803"><ele>317.0</ele><time>2026-04-23T15:34:36.998Z</time></trkpt><trkpt lat="40.76223053774084" lon="17.452889071637202"><ele>317.0</ele><time>2026-04-23T15:34:38.998Z</time></trkpt><trkpt lat="40.76216231862006" lon="17.45294982290538"><ele>317.0</ele><time>2026-04-23T15:34:40.998Z</time></trkpt><trkpt lat="40.76209933148935" lon="17.452993030030996"><ele>317.0</ele><time>2026-04-23T15:34:41.998Z</time></trkpt><trkpt lat="40.76199627292675" lon="17.453037332309215"><ele>317.0</ele><time>2026-04-23T15:34:44Z</time></trkpt><trkpt lat="40.76189811938262" lon="17.45309081097326"><ele>317.0</ele><time>2026-04-23T15:34:46Z</time></trkpt><trkpt lat="40.76181115287888" lon="17.453149447605842"><ele>316.4</ele><time>2026-04-23T15:34:48Z</time></trkpt><trkpt lat="40.761700254821726" lon="17.45320851088735"><ele>315.79999999999995</ele><time>2026-04-23T15:34:50Z</time></trkpt><trkpt lat="40.76163364180588" lon="17.453255022065054"><ele>315.2</ele><time>2026-04-23T15:34:51Z</time></trkpt><trkpt lat="40.76154342514888" lon="17.453295020969126"><ele>314.59999999999997</ele><time>2026-04-23T15:34:53Z</time></trkpt><trkpt lat="40.76145492319438" lon="17.453325047847915"><ele>314.0</ele><time>2026-04-23T15:34:55Z</time></trkpt><trkpt lat="40.7613560825715" lon="17.453378204532605"><ele>314.0</ele><time>2026-04-23T15:34:57Z</time></trkpt><trkpt lat="40.76127596294584" lon="17.453420462160615"><ele>314.0</ele><time>2026-04-23T15:34:59Z</time></trkpt><trkpt lat="40.7612009703173" lon="17.4534761216022"><ele>314.0</ele><time>2026-04-23T15:35:01Z</time></trkpt><trkpt lat="40.76112279044666" lon="17.453526369013638"><ele>314.0</ele><time>2026-04-23T15:35:03Z</time></trkpt><trkpt lat="40.761051872418385" lon="17.453581497415872"><ele>314.0</ele><time>2026-04-23T15:35:05Z</time></trkpt><trkpt lat="40.76097763289174" lon="17.453639909668446"><ele>314.0</ele><time>2026-04-23T15:35:07Z</time></trkpt><trkpt lat="40.76089237684751" lon="17.453704327828937"><ele>314.5</ele><time>2026-04-23T15:35:11Z</time></trkpt><trkpt lat="40.76081850579975" lon="17.45374378119331"><ele>315.0</ele><time>2026-04-23T15:35:14Z</time></trkpt><trkpt lat="40.76073355199096" lon="17.453786892694854"><ele>315.5</ele><time>2026-04-23T15:35:17Z</time></trkpt><trkpt lat="40.76064234003228" lon="17.453842233965176"><ele>316.0</ele><time>2026-04-23T15:35:21Z</time></trkpt><trkpt lat="40.760568719028335" lon="17.453829953730498"><ele>316.5</ele><time>2026-04-23T15:35:24Z</time></trkpt><trkpt lat="40.76049447031215" lon="17.453799929307905"><ele>317.0</ele><time>2026-04-23T15:35:26.999Z</time></trkpt><trkpt lat="40.76041005987718" lon="17.453794270657824"><ele>317.0</ele><time>2026-04-23T15:35:29.999Z</time></trkpt><trkpt lat="40.76033456032314" lon="17.45373846527703"><ele>326.0</ele><time>2026-04-23T15:35:32.999Z</time></trkpt><trkpt lat="40.760260956395385" lon="17.453695052005887"><ele>326.0</ele><time>2026-04-23T15:35:35.999Z</time></trkpt><trkpt lat="40.76031288982162" lon="17.453753917499906"><ele>326.0</ele><time>2026-04-23T15:36:17.998Z</time></trkpt></trkseg></trk></gpx>